     2.11           OBSERVATION DATA    G (GPS)             RINEX VERSION / TYPE
teqc 2010Oct21 OPUS Account 20111026 17:03:58UTC            PGM / RUN BY / DATE
E 1523                                                      MARKER NAME
1185                                                        MARKER NUMBER
CSMIDDLETON NGS                                             OBSERVER / AGENCY
0220379089 TRIMBLE R7 2.28                                  REC # / TYPE / VERS
60124975 TRM41249.00 NONE                                   ANT # / TYPE
  -748481.1846 -5508483.2851  3116532.6073                  APPROX POSITION XYZ
        2.0010        0.0000        0.0000                  ANTENNA: DELTA H/E/N
     1     1                                                WAVELENGTH FACT L1/2
     5    L1    L2    C1    P1    P2                        # / TYPES OF OBSERV
    15                                                      LEAP SECONDS
  2011     8     3     0     0   30.0000000     GPS         TIME OF FIRST OBS
                                                            END OF HEADER
 11  8  3  0  0 30.0000000  0  8G09G28G10G17G12G04G27G02
 -19297114.63357 -15021457.64855  21962294.3204                   21962292.8094
 -49516075.98857 -38572180.06655  22223637.8284                   22223636.0554
 -14772859.00457 -11497980.28154  22537078.9304                   22537077.9304
 -43359695.51657 -33771325.96956  21599493.8204                   21599491.1524
  -2970548.42657  -2301469.79754  24144503.1884                   24144502.0354
 -40633610.00858 -31645946.28557  19799401.5944                   19799399.0944
 -26723153.84057 -20807701.77755  22310743.9614                   22310742.9694
 -23837372.14558 -18559356.05556  21537904.4844                   21537900.0744
 11  8  3  0  1  0.0000000  0  8G09G28G10G17G12G04G27G02
 -19329552.92647 -15046734.23845  21956121.7344                   21956120.1294
 -49483379.39547 -38546702.25045  22229860.0864                   22229857.8014
 -14894116.82047 -11592466.78945  22514003.6094                   22514003.2544
 -43359673.12947 -33771308.53146  21599498.3054                   21599495.5204
  -3102066.85247  -2403951.63744  24119476.2344                   24119474.7664
 -40653982.52348 -31661820.96547  19795524.7814                   19795522.4734
 -26745840.82447 -20825379.97745  22306427.0634                   22306425.4844
 -23935229.27748 -18635608.30946  21519282.9384                   21519278.7114
 11  8  3  0  1 30.0000000  0  8G09G28G10G17G12G04G27G02
 -19361279.80947 -15071456.49645  21950084.3984                   21950082.4224
 -49450239.58647 -38520879.07045  22236166.5084                   22236163.3834
 -15015081.23447 -11686724.66845  22490984.5164                   22490984.2344
 -43359488.23047 -33771164.45746  21599533.3674                   21599530.3674
  -3233489.33647  -2506358.72344  24094467.3984                   24094465.6094
 -40673744.13348 -31677219.60947  19791764.3834                   19791761.8674
 -26767980.21547 -20842631.46145  22302214.0864                   22302212.1764
 -24032657.50448 -18711526.35546  21500742.6884                   21500738.7504
 11  8  3  0  2  0.0000000  0  8G09G28G10G17G12G04G27G02
 -19392309.68747 -15095635.64145  21944179.6174                   21944177.3054
 -49416670.79747 -38494721.62145  22242554.5554                   22242552.5204
 -15135762.41447 -11780761.85545  22468020.4614                   22468018.8204
 -43359154.65247 -33770904.53546  21599596.9144                   21599594.3634
  -3364827.57447  -2608700.12944  24069473.8594                   24069472.5314
 -40692909.80148 -31692153.88747  19788117.2584                   19788114.9614
 -26789586.69547 -20859467.69945  22298102.2114                   22298100.7894
 -24129670.21148 -18787120.62546  21482281.9144                   21482277.9304
 11  8  3  0  2 30.0000000  0  8G09G28G10G17G12G04G27G02
 -19422644.50447 -15119273.16445  21938407.6174                   21938405.0554
 -49382675.13347 -38468231.54745  22249023.8204                   22249021.8444
 -15256157.72747 -11874576.28945  22445110.1024                   22445108.9844
 -43358673.07448 -33770529.28546  21599688.6724                   21599685.9734
  -3496080.58646  -2710975.14144  24044497.5784                   24044495.7114
 -40711481.99248 -31706625.71547  19784582.8134                   19784580.5234
 -26810662.24647 -20875890.23445  22294091.9224                   22294090.4104
 -24226267.08648 -18862390.87546  21463900.0634                   21463895.7034
 11  8  3  0  3  0.0000000  0  8G09G28G10G17G12G04G27G02
 -19452283.00847 -15142368.10945  21932767.2034                   21932765.5274
 -49348250.68747 -38441407.35245  22255574.1564                   22255572.3954
 -15376261.93047 -11968163.89145  22422254.2974                   22422253.4844
 -43358041.23848 -33770036.94546  21599809.3284                   21599806.3674
  -3627244.38746  -2813180.61744  24019537.9384                   24019535.7584
 -40729459.84048 -31720634.42247  19781161.9064                   19781159.5314
 -26831205.85947 -20891898.25845  22290182.5634                   22290180.9304
 -24322445.47748 -18937335.03546  21445597.7734                   21445593.9734
 11  8  3  0  3 30.0000000  0  8G09G28G10G17G12G04G27G02
 -19481224.66447 -15164920.04745  21927259.5554                   21927257.5554
 -49313396.52347 -38414248.32045  22262206.7504                   22262204.6134
 -15496070.14847 -12061520.85245  22399456.2274                   22399454.5704
 -43357257.36348 -33769426.13746  21599958.3754                   21599955.4384
  -3758315.22347  -2915313.66443  23994595.8054                   23994593.1994
 -40746843.44948 -31734180.08247  19777854.0704                   19777851.3164
 -26851216.94148 -20907491.33245  22286374.2814                   22286372.8874
 -24418203.10248 -19011951.32046  21427375.8674                   21427371.7304
 11  8  3  0  4  0.0000000  0  8G09G28G10G17G12G04G27G02
 -17934048.27747 -13959328.07045  22221677.5554                   22221675.6524
 -47702693.80147 -37159155.35545  22568713.5004                   22568711.6024
 -14040154.00447 -10927040.63745  22676507.0394                   22676506.3874
 -41780900.57848 -32541096.18446  21899928.5474                   21899926.1214
  -2313866.06247  -1789768.79343  24269465.2894                   24269462.1764
 -39188212.69948 -30519662.60947  20074451.5784                   20074448.8324
 -25295274.94948 -19695069.02045  22582460.0944                   22582458.8554
 -22938115.14548 -17858635.98046  21709026.8834                   21709022.9774
 11  8  3  0  4 30.0000000  0  8G09G28G10G17G12G04G27G02
 -17961595.33647 -13980793.32445  22216435.3524                   22216434.0354
 -47666979.22747 -37131325.87145  22575509.8364                   22575507.8204
 -14159356.65247 -11019925.73845  22653823.9384                   22653822.3014
 -41779809.42647 -32540245.93746  21900136.6954                   21900133.4104
  -2444742.38747  -1891750.30543  24244560.3984                   24244557.3834
 -39204408.62148 -30532282.80547  20071369.4064                   20071366.9344
 -25314221.25048 -19709832.39845  22578855.3834                   22578853.8404
 -23033025.48848 -17932592.05546  21690966.2194                   21690962.6644
 11  8  3  0  5  0.0000000  0  8G09G28G10G17G12G04G27G02
 -17988446.16447 -14001716.05545  22211326.0314                   22211324.3094
 -47630834.98047 -37103161.56245  22582387.9614                   22582385.8244
 -14278251.16047 -11112570.71545  22631199.0164                   22631197.9734
 -41778563.98448 -32539275.47346  21900373.7814                   21900370.7734
  -2575517.81247  -1993653.18443  24219674.4224                   24219671.2464
 -39220012.71548 -30544441.82847  20068399.9774                   20068397.6174
 -25332636.49648 -19724181.97345  22575350.9144                   22575349.4024
 -23127510.53548 -18006216.72346  21672986.1804                   21672982.4384
 11  8  3  0  5 30.0000000  0  8G09G28G10G17G12G04G27G02
 -18014602.11347 -14022097.32845  22206348.6174                   22206347.1994
 -47594262.35247 -37074663.46545  22589347.4304                   22589345.3914
 -14396834.52747 -11204973.23045  22608632.6564                   22608632.1414
 -41777164.57848 -32538185.03546  21900639.7274                   21900636.6414
  -2706191.15247  -2095476.46944  24194808.5864                   24194806.1764
 -39235026.54748 -30556140.92247  20065543.3134                   20065540.3954
 -25350521.98447 -19738118.73445  22571947.2734                   22571946.1454
 -23221570.14848 -18079509.88746  21655087.3444                   21655083.2464
 11  8  3  0  6  0.0000000  0  8G09G28G10G17G12G04G27G02
 -18040064.80547 -14041938.39545  22201503.0634                   22201501.5904
 -47557262.78947 -37045832.69945  22596388.5234                   22596386.7274
 -14515104.07047 -11297131.23845  22586126.8284                   22586126.3714
 -41775611.89848 -32536975.15646  21900935.4924                   21900932.5634
  -2836760.95747  -2197219.10944  24169961.9774                   24169959.3954
 -39249452.57048 -30567381.96947  20062798.0084                   20062795.7664
 -25367879.63748 -19751644.21945  22568644.5474                   22568643.3954
 -23315204.29348 -18152471.52046  21637269.3674                   21637265.1954
 11  8  3  0  6 30.0000000  0  8G09G28G10G17G12G04G27G02
 -18064834.55148 -14061239.50445  22196790.0864                   22196788.0664
 -47519836.33647 -37016669.27345  22603509.9614                   22603508.3444
 -14633055.62147 -11389041.43745  22563681.2344                   22563680.8874
 -41773904.79348 -32535644.95746  21901260.5784                   21901257.0784
  -2967224.45347  -2298878.89544  24145135.3674                   24145133.3484
 -39263291.54348 -30578165.58247  20060164.3134                   20060162.2424
 -25384710.06648 -19764758.85945  22565441.7974                   22565440.8054
 -23408411.50048 -18225100.46146  21619532.3834                   21619528.8244
 11  8  3  0  7  0.0000000  0  8G09G28G10G17G12G04G27G02
 -18088912.92647 -14080001.89145  22192207.6254                   22192206.1884
 -47481983.89147 -36987173.91445  22610713.1334                   22610711.2074
 -14750686.22347 -11480701.55545  22541297.1414                   22541296.3484
 -41772043.80548 -32534194.85246  21901614.5004                   21901611.6334
  -3097580.18447  -2400454.73044  24120329.4694                   24120327.2274
 -39276545.36348 -30588493.23847  20057642.3754                   20057639.8134
 -25401014.76248 -19777463.84845  22562338.7814                   22562337.2384
 -23501191.39548 -18297396.43746  21601876.9844                   21601872.2234
 11  8  3  0  7 30.0000000  0  8G09G28G10G17G12G04G27G02
 -18112301.23447 -14098226.55945  22187757.3834                   22187755.8284
 -47443706.89147 -36957347.73845  22617997.1804                   22617995.6564
 -14867993.10947 -11572109.44545  22518974.3444                   22518973.2934
 -41770028.84847 -32532624.77046  21901997.7894                   21901995.2274
  -3227826.39147  -2501945.19144  24095543.9534                   24095542.2664
 -39289216.09848 -30598366.52347  20055230.8674                   20055228.6024
 -25416795.27348 -19789760.37945  22559336.1724                   22559334.5864
 -23593543.69948 -18369359.22346  21584302.7424                   21584298.6174
 11  8  3  0  8  0.0000000  0  8G09G28G10G17G12G04G27G02
 -18134998.88347 -14115913.04745  22183438.3444                   22183436.4774
 -47405004.37947 -36927189.99645  22625362.4454                   22625360.7384
 -14984971.26247 -11663261.15645  22496713.4844                   22496712.6724
 -41767858.22348 -32530933.38746  21902410.5864                   21902408.1374
  -3357959.40246  -2603347.44544  24070780.6254                   24070779.2734
 -39301303.49248 -30607785.26647  20052930.7034                   20052928.5434
 -25432051.19947 -19801648.14145  22556432.4924                   22556431.4144
 -23685466.21148 -18440987.11346  21566810.7734                   21566806.6914
 11  8  3  0  8 30.0000000  0  8G09G28G10G17G12G04G27G02
 -18157006.86747 -14133062.14545  22179250.0084                   22179248.6134
 -47365877.07847 -36896701.25844  22632807.9224                   22632805.4494
 -15101616.91047 -11754153.78145  22474517.1414                   22474516.2074
 -41765531.74248 -32529120.54746  21902853.8134                   21902850.8794
  -3487977.23846  -2704659.94144  24046038.4224                   24046036.8954
 -39312809.22748 -30616750.76647  20050741.4454                   20050739.0394
 -25446783.68747 -19813128.02745  22553629.6644                   22553628.4804
 -23776958.16848 -18512279.50846  21549400.1094                   21549396.1174
 11  8  3  0  9  0.0000000  0  8G09G28G10G17G12G04G27G02
 -18178325.37147 -14149673.98845  22175193.8444                   22175192.0164
 -47326324.45347 -36865881.08245  22640334.4304                   22640332.4924
 -15217925.52047 -11844783.79345  22452383.9534                   22452383.0044
 -41763048.14548 -32527185.30146  21903326.0474                   21903323.3054
  -3617876.42646  -2805879.96944  24021319.8054                   24021318.9694
 -39323733.76648 -30625263.38747  20048662.5704                   20048659.9614
 -25460992.74247 -19824200.05545  22550925.7274                   22550924.3594
 -23868017.82048 -18583235.03946  21532072.3674                   21532068.2544
 11  8  3  0  9 30.0000000  0  8G09G28G10G17G12G04G27G02
 -18198954.66447 -14165748.76645  22171267.6644                   22171265.5274
 -47286346.67647 -36834729.62544  22647942.3524                   22647939.7504
 -15333892.89547 -11935147.88745  22430315.9694                   22430315.2704
 -41760406.25448 -32525126.69946  21903829.1724                   21903826.4064
  -3747654.20746  -2907005.45344  23996624.3364                   23996622.4104
 -39334077.78948 -30633323.66047  20046694.1804                   20046691.7734
 -25474678.70747 -19834864.46545  22548321.5634                   22548319.9264
 -23958643.31248 -18653852.27046  21514826.9534                   21514822.7854
 11  8  3  0 10  0.0000000  0  8G09G28G10G17G12G04G27G02
 -18218895.27348 -14181286.90645  22167473.1094                   22167471.4614
 -47245943.95747 -36803247.03945  22655630.3674                   22655629.0634
 -15449515.19147 -12025243.10545  22408313.6644                   22408312.3484
 -41757605.37948 -32522944.20346  21904361.9924                   21904358.8364
  -3877307.89546  -3008034.22344  23971951.3054                   23971949.7734
 -39343842.17648 -30640932.26647  20044836.1174                   20044833.3984
 -25487842.53947 -19845122.01645  22545816.1724                   22545814.8954
 -24048833.79748 -18724130.52346  21497663.7194                   21497659.4884
 11  8  3  0 10 30.0000000  0  8G09G28G10G17G12G04G27G02
 -18238148.08248 -14196289.10945  22163809.7194                   22163807.6094
 -47205116.56647 -36771433.55145  22663400.1884                   22663398.3364
 -15564788.20747 -12115066.15245  22386378.2974                   22386377.2234
 -41754644.64548 -32520637.14546  21904925.6884                   21904922.1564
  -4006835.22346  -3108964.49644  23947302.7814                   23947301.6294
 -39353028.40648 -30648090.36347  20043088.2504                   20043085.5314
 -25500485.00047 -19854973.32045  22543410.7664                   22543409.4064
 -24138587.87548 -18794068.71946  21480584.4384                   21480580.2034
 11  8  3  0 11  0.0000000  0  8G09G28G10G17G12G04G27G02
 -18256712.59448 -14210754.97345  22160276.6334                   22160274.9734
 -47163863.57847 -36739288.43444  22671250.3204                   22671248.4344
 -15679707.27047 -12204613.39545  22364509.8284                   22364508.5784
 -41751522.02048 -32518203.94546  21905519.5634                   21905516.5664
  -4136232.14846  -3209793.19144  23922680.4534                   23922677.9924
 -39361636.27348 -30654797.78547  20041450.0234                   20041447.4184
 -25512605.69947 -19864418.05145  22541104.2194                   22541102.9224
 -24227903.40248 -18863665.19546  21463588.5084                   21463583.8754
 11  8  3  0 11 30.0000000  0  8G09G28G10G17G12G04G27G02
 -18274587.76247 -14224683.69545  22156875.5784                   22156873.5704
 -47122183.58647 -36706810.58645  22679181.4774                   22679179.4534
 -15794266.44947 -12293880.20745  22342709.6484                   22342708.7584
 -41748235.41447 -32515642.96946  21906144.7974                   21906141.7734
  -4265494.23047  -3310516.83644  23898082.1564                   23898080.6024
 -39369665.12948 -30661054.02746  20039922.4064                   20039919.5704
 -25524203.85947 -19873455.60945  22538897.0474                   22538895.7934
 -24316777.62548 -18932917.79346  21446675.9384                   21446671.8364
 11  8  3  0 12  0.0000000  0  8G09G28G10G17G12G04G27G02
 -18291774.14547 -14238075.68045  22153604.7424                   22153602.9104
 -47080076.97347 -36674000.30144  22687193.6724                   22687192.7074
 -15908461.55947 -12382863.32445  22320978.8754                   22320977.0784
 -41744783.28547 -32512952.99646  21906802.0474                   21906798.9574
  -4394618.43047  -3411133.05144  23873510.3674                   23873508.1524
 -39377115.80148 -30666859.73847  20038504.6174                   20038501.8054
 -25535279.76247 -19882086.21545  22536789.5084                   22536788.3094
 -24405208.82048 -19001825.17246  21429848.2274                   21429844.1174
 11  8  3  0 12 30.0000000  0  8G09G28G10G17G12G04G27G02
 -18308273.18747 -14250932.10245  22150465.2504                   22150463.4924
 -47037544.59447 -36640858.26244  22695287.9384                   22695286.6994
 -16022289.71147 -12471560.51245  22299318.6024                   22299317.1914
 -41741165.98447 -32510134.34046  21907490.1644                   21907487.6484
  -4523602.91447  -3511640.39144  23848965.5634                   23848963.1684
 -39383990.27348 -30672216.46147  20037196.2894                   20037194.0824
 -25545834.95747 -19890311.07045  22534780.7894                   22534779.6134
 -24493196.73448 -19070387.14146  21413104.4064                   21413100.3054
 11  8  3  0 13  0.0000000  0  8G09G28G10G17G12G04G27G02
 -18324083.99247 -14263252.22345  22147456.1484                   22147454.6914
 -46994584.93047 -36607383.27044  22703462.4774                   22703461.3284
 -16135744.98447 -12559967.11745  22277727.9774                   22277726.6914
 -41737380.60947 -32507184.71146  21908210.4144                   21908207.8914
  -4652442.94947  -3612035.14544  23824447.7034                   23824445.1174
 -39390287.90248 -30677123.69147  20035997.6484                   20035995.2934
 -25555868.44147 -19898129.41045  22532872.1174                   22532870.5044
 -24580738.41448 -19138601.39146  21396445.7814                   21396441.8404
 11  8  3  0 13 30.0000000  0  8G09G28G10G17G12G04G27G02
 -18339206.59447 -14275036.09045  22144578.7194                   22144577.5594
 -46951197.27047 -36573574.78545  22711718.9924                   22711718.1414
 -16248822.44147 -12648079.33645  22256210.6724                   22256209.3014
 -41733425.27747 -32504102.64846  21908963.5164                   21908960.4774
  -4781135.13747  -3712314.75044  23799958.9694                   23799955.1604
 -39396008.61348 -30681581.37947  20034909.1414                   20034906.5274
 -25565380.12147 -19905541.14145  22531061.5474                   22531060.3524
 -24667831.83248 -19206466.35246  21379872.4384                   21379868.1484
 11  8  3  0 14  0.0000000  0  8G09G28G10G17G12G04G27G02
 -18353643.56247 -14286285.69545  22141831.3594                   22141830.2074
 -46907384.29747 -36539434.88744  22720057.0554                   22720054.5594
 -16361520.14847 -12735895.66045  22234765.0004                   22234763.4344
 -41729301.38747 -32500889.25046  21909748.0164                   21909745.3284
  -4909678.58247  -3812478.43744  23775497.0314                   23775495.1724
 -39401155.84448 -30685592.20347  20033929.5864                   20033927.2034
 -25574373.03947 -19912548.64145  22529350.4384                   22529349.0554
 -24754477.77048 -19273982.62946  21363384.1804                   21363379.7384
 11  8  3  0 14 30.0000000  0  8G09G28G10G17G12G04G27G02
 -18367393.99247 -14297000.32845  22139215.1024                   22139213.1414
 -46863144.48447 -36504962.37944  22728475.6644                   22728473.6134
 -16473832.24247 -12823411.48845  22213392.2664                   22213391.2814
 -41725006.04348 -32497542.25446  21910565.5004                   21910562.9774
  -5038068.96547  -3912522.84844  23751065.8984                   23751063.3794
 -39405729.03548 -30689155.71547  20033059.4844                   20033056.7194
 -25582846.30547 -19919151.22345  22527737.8444                   22527736.4144
 -24840673.43748 -19341148.03946  21346981.5944                   21346977.6254
 11  8  3  0 15  0.0000000  0  8G09G28G10G17G12G04G27G02
 -18380460.33247 -14307181.91445  22136728.4694                   22136726.6994
 -46818479.47747 -36470158.56244  22736975.2424                   22736973.5864
 -16585756.54747 -12910625.13745  22192093.5394                   22192092.4264
 -41720540.07048 -32494062.28546  21911415.5474                   21911412.8364
  -5166304.69947  -4012446.73044  23726663.2194                   23726661.0044
 -39409730.65648 -30692273.84847  20032297.8674                   20032295.4064
 -25590802.10247 -19925350.56645  22526224.1954                   22526222.6764
 -24926419.18748 -19407962.85946  21330664.4614                   21330660.6024
 11  8  3  0 15 30.0000000  0  8G09G28G10G17G12G04G27G02
 -18392842.61747 -14316830.47345  22134372.3914                   22134370.4184
 -46773388.97747 -36435023.18444  22745555.5234                   22745553.7074
 -16697288.06247 -12997532.73445  22170870.1094                   22170867.9304
 -41715901.89148 -32490448.14546  21912298.0634                   21912295.4694
  -5294382.44947  -4112247.51644  23702291.0554                   23702288.8554
 -39413161.26648 -30694947.04747  20031644.9144                   20031642.7114
 -25598240.43747 -19931146.69545  22524808.8054                   22524807.2894
 -25011713.05948 -19474425.57846  21314433.9064                   21314429.4024
 11  8  3  0 16  0.0000000  0  8G09G28G10G17G12G04G27G02
 -18404541.91447 -14325946.82845  22132145.5864                   22132143.7544
 -46727873.40247 -36399556.58244  22754216.8834                   22754215.1804
 -16808423.27747 -13084131.52045  22149721.3444                   22149720.2384
 -41711090.32447 -32486698.89846  21913213.2034                   21913210.7544
  -5422299.21947  -4211922.87944  23677949.0784                   23677947.0474
 -39416021.80948 -30697176.02746  20031100.6644                   20031098.4024
 -25605162.25447 -19936540.35545  22523491.5004                   22523489.8794
 -25096554.12548 -19540535.46146  21298289.0314                   21298284.6254
 11  8  3  0 16 30.0000000  0  8G09G28G10G17G12G04G27G02
 -18415559.81647 -14334532.23445  22130049.3984                   22130046.9774
 -46681934.07847 -36363759.77044  22762959.0314                   22762957.0044
 -16919158.48847 -13170418.60945  22128649.4304                   22128648.3954
 -41706105.44947 -32482814.60546  21914162.3134                   21914159.3054
  -5550053.06647  -4311471.26644  23653637.9844                   23653636.1414
 -39418314.50448 -30698962.53546  20030664.1884                   20030661.6804
 -25611569.27047 -19941532.86345  22522272.4304                   22522270.5314
 -25180941.95348 -19606292.17246  21282230.5234                   21282226.5354
 11  8  3  0 17  0.0000000  0  8G09G28G10G17G12G04G27G02
 -18425897.19148 -14342587.36345  22128082.0164                   22128080.7854
 -46635570.96147 -36327632.75044  22771781.8524                   22771780.1254
 -17029489.72347 -13256390.92245  22107654.1094                   22107652.5514
 -41700945.94547 -32478794.23446  21915144.3134                   21915141.2034
  -5677641.21547  -4410890.53144  23629359.1334                   23629356.7424
 -39420040.23848 -30700307.25847  20030335.6094                   20030333.0474
 -25617462.29347 -19946124.86345  22521151.3984                   22521149.4104
 -25264875.31647 -19671694.75446  21266258.4224                   21266254.2704
 11  8  3  0 17 30.0000000  0  8G09G28G10G17G12G04G27G02
 -18435553.83647 -14350112.05145  22126244.3674                   22126242.6334
 -46588783.46947 -36291175.02744  22780685.1484                   22780682.9224
 -17139411.90247 -13342044.49245  22086736.3524                   22086734.9264
 -41695609.99247 -32474636.37546  21916159.4844                   21916156.6684
  -5805059.52347  -4510177.50044  23605112.1884                   23605109.5554
 -39421199.36348 -30701210.46547  20030115.5944                   20030112.9344
 -25622841.07847 -19950316.16445  22520127.8754                   22520125.9264
 -25348351.86748 -19736741.37946  21250373.3364                   21250369.2154
 11  8  3  0 18  0.0000000  0  8G09G28G10G17G12G04G27G02
 -18444531.86347 -14357107.94145  22124536.0944                   22124534.0554
 -46541573.01647 -36254387.74244  22789668.5704                   22789667.8444
 -17248922.17247 -13427377.09045  22065897.0474                   22065895.9064
 -41690097.67647 -32470341.08246  21917208.7034                   21917205.6914
  -5932306.03547  -4609330.58245  23580898.0554                   23580895.2034
 -39421793.80548 -30701673.66446  20030002.5084                   20030000.1604
 -25627707.38747 -19954108.12145  22519201.6484                   22519200.1914
 -25431371.70348 -19801432.12546  21234575.1644                   21234570.9144
 11  8  3  0 18 30.0000000  0  8G09G28G10G17G12G04G27G02
 -18452832.02747 -14363575.63745  22122956.6094                   22122954.4964
 -46493939.80947 -36217271.04744  22798733.4924                   22798731.4184
 -17358016.31247 -13512385.43745  22045137.1724                   22045135.4614
 -41684407.51247 -32465907.19546  21918291.3364                   21918288.5354
  -6059377.53147  -4708347.31244  23556716.5004                   23556714.5664
 -39421824.61748 -30701697.66046  20029996.5394                   20029993.8404
 -25632062.00047 -19957501.36745  22518372.7894                   22518371.1024
 -25513933.34448 -19865765.83646  21218864.1094                   21218859.9024
 11  8  3  0 19  0.0000000  0  8G09G28G10G17G12G04G27G02
 -18460455.50847 -14369516.05145  22121505.9844                   22121504.3674
 -46445884.31647 -36179825.25044  22807878.0784                   22807875.9304
 -17466690.26247 -13597066.37945  22024457.1724                   22024456.2274
 -41678538.72747 -32461334.14546  21919408.3364                   21919405.6374
  -6186271.52747  -4807225.69944  23532569.9534                   23532567.6994
 -39421293.16448 -30701283.54346  20030097.8204                   20030095.1134
 -25635906.12947 -19960496.82045  22517641.0944                   22517640.1644
 -25596036.03948 -19929741.92246  21203240.6484                   21203236.2774
 11  8  3  0 19 30.0000000  0  8G09G28G10G17G12G04G27G02
 -18467403.52347 -14374930.11745  22120183.9304                   22120182.0594
 -46397407.02747 -36142050.80944  22817103.1024                   22817101.7304
 -17574940.19547 -13681416.90245  22003857.7584                   22003856.7194
 -41672490.49248 -32456621.24646  21920559.2894                   21920556.8634
  -6312985.00447  -4905963.43444  23508457.1174                   23508454.3674
 -39420200.75048 -30700432.31247  20030305.5314                   20030302.7814
 -25639240.95347 -19963095.43445  22517006.4614                   22517005.8134
 -25677678.87948 -19993359.68746  21187704.5394                   21187700.2664
 11  8  3  0 20  0.0000000  0  8G09G28G10G17G12G04G27G02
 -18473677.16847 -14379818.69545  22118990.0634                   22118988.0514
 -46348508.39147 -36103948.05544  22826407.8134                   22826406.4224
 -17682761.99647 -13765433.83245  21983340.2814                   21983338.2154
 -41666261.63748 -32451767.60546  21921744.3444                   21921741.7734
  -6439515.00047  -5004558.21144  23484379.1644                   23484377.4384
 -39418548.68748 -30699144.98446  20030620.0234                   20030617.0944
 -25642067.23847 -19965297.76645  22516468.6174                   22516467.2774
 -25758860.67648 -20056618.19946  21172256.1724                   21172251.8204
 11  8  3  0 20 30.0000000  0  8G09G28G10G17G12G04G27G02
 -18479277.10547 -14384182.32045  22117924.2894                   22117922.4964
 -46299188.80147 -36065517.27044  22835793.4224                   22835791.5784
 -17790151.73447 -13849114.09445  21962904.2274                   21962902.3954
 -41659851.00048 -32446772.30946  21922964.3754                   21922961.8874
  -6565858.49647  -5103007.64844  23460336.4774                   23460334.4534
 -39416337.88348 -30697422.27347  20031040.1414                   20031037.7854
 -25644385.75847 -19967104.45345  22516027.9064                   22516026.3364
 -25839580.41448 -20119516.66846  21156895.6254                   21156891.5984
 11  8  3  0 21  0.0000000  0  8G09G28G10G17G12G04G27G02
 -18484204.48447 -14388021.88745  22116986.9844                   22116984.4494
 -46249448.55147 -36026758.71144  22845258.8444                   22845256.9384
 -17897105.42647 -13932454.55945  21942551.8834                   21942549.9574
 -41653257.44148 -32441634.47746  21924219.2344                   21924216.6054
  -6692012.32847  -5201309.23844  23436329.9774                   23436327.7384
 -39413569.60948 -30695265.17246  20031567.2584                   20031564.7734
 -25646197.59047 -19968516.30945  22515683.2034                   22515681.5984
 -25919836.72348 -20182054.01246  21141623.2504                   21141618.8914
 11  8  3  0 21 30.0000000  0  8G09G28G10G17G12G04G27G02
 -18488461.05547 -14391338.73045  22116176.7974                   22116174.9384
 -46199288.56247 -35987673.07444  22854803.9454                   22854802.0824
 -18003619.58647 -14015452.54745  21922283.1414                   21922281.1604
 -41646480.53148 -32436353.77346  21925508.5084                   21925505.8444
  -6817974.12947  -5299461.23444  23412360.2584                   23412358.3244
 -39410245.61348 -30692675.04347  20032199.9454                   20032197.4064
 -25647504.14847 -19969534.44145  22515434.1564                   22515432.8244
 -25999629.19548 -20244229.93046  21126439.1254                   21126434.7274
 11  8  3  0 22  0.0000000  0  8G09G28G10G17G12G04G27G02
 -18492047.87547 -14394133.68745  22115494.4694                   22115492.3164
 -46148709.27747 -35948260.69944  22864429.0864                   22864427.1844
 -18109690.41847 -14098105.06245  21902097.7424                   21902096.7274
 -41639519.26648 -32430929.41846  21926833.0394                   21926830.8244
  -6943740.94547  -5397461.27744  23388427.9534                   23388425.1604
 -39406367.12148 -30689652.83247  20032937.9454                   20032935.6294
 -25648306.38747 -19970159.60545  22515281.5554                   22515280.1524
 -26078956.71948 -20306043.56246  21111343.6174                   21111339.3444
 11  8  3  0 22 30.0000000  0  9G09G28G10G17G12G05G04G27G02
 -18494967.48447 -14396408.74645  22114939.1094                   22114936.9534
 -46097712.54747 -35908523.06644  22874133.5634                   22874132.0234
 -18215314.81247 -14180409.71545  21881998.5084                   21881996.5314
 -41632373.77048 -32425361.50046  21928193.0944                   21928189.8794
  -7069311.07847  -5495308.06244  23364532.3444                   23364530.2464
   1376536.77356   1086399.72754  24578812.1564                   24578815.7814
 -39401936.64148 -30686200.50847  20033781.1334                   20033778.5664
 -25648606.78147 -19970393.73045  22515224.4304                   22515223.2424
 -26157819.63348 -20367495.14846  21096336.7344                   21096331.9654
 11  8  3  0 23  0.0000000  0  9G09G28G10G17G12G05G04G27G02
 -18497223.80547 -14398166.95745  22114509.4304                   22114507.5314
 -46046301.61347 -35868462.66444  22883916.4774                   22883914.9224
 -18320491.83647 -14262365.77345  21861983.6644                   21861982.2814
 -41625045.87947 -32419651.45746  21929587.5004                   21929584.8444
  -7194684.52747  -5593001.57445  23340674.2504                   23340672.5984
   1241189.28547    980934.44544  24553056.6644                   24553060.0234
 -39396958.37948 -30682321.34047  20034728.6254                   20034726.0164
 -25648409.21147 -19970239.83245  22515261.8914                   22515261.5044
 -26236219.84848 -20428586.20346  21081417.2894                   21081412.5474
 11  8  3  0 23 30.0000000  0  9G09G28G10G17G12G05G04G27G02
 -18498823.99247 -14399413.88745  22114204.7974                   22114203.3204
 -45994482.92247 -35828084.57444  22893777.1884                   22893776.3914
 -18425223.28547 -14343974.62145  21842053.4144                   21842052.4494
 -41617540.28547 -32413802.96146  21931015.7194                   21931013.4384
  -7319863.78147  -5690543.77745  23316853.9694                   23316851.1804
   1105843.52747    875470.51244  24527301.0634                   24527304.4264
 -39391439.35948 -30678020.80547  20035778.4694                   20035776.3794
 -25647720.20347 -19969702.98445  22515393.2584                   22515392.0594
 -26314162.08648 -20489320.38346  21066585.1724                   21066581.1524
 11  8  3  0 24  0.0000000  0  9G09G28G10G17G12G05G04G27G02
 -18499770.89147 -14400151.77345  22114024.8444                   22114023.1764
 -45942258.75047 -35787390.49644  22903715.1954                   22903714.2034
 -18529506.97347 -14425234.58645  21822209.3834                   21822207.6294
 -41609857.73847 -32407816.57846  21932478.0234                   21932474.9804
  -7444847.64147  -5787933.73845  23293070.2114                   23293067.8634
    970501.10546    770009.16444  24501546.3984                   24501549.4024
 -39385382.78548 -30673301.39146  20036931.1334                   20036928.1804
 -25646542.48447 -19968785.34045  22515617.9534                   22515616.7384
 -26391647.26648 -20549698.41446  21051840.7814                   21051836.1764
 11  8  3  0 24 30.0000000  0  9G09G28G10G17G12G05G04G27G02
 -18500066.33647 -14400382.02345  22113968.9304                   22113967.0514
 -45889629.82847 -35746381.03144  22913729.9224                   22913729.4344
 -18633339.73848 -14506143.17645  21802450.7584                   21802448.5234
 -41601997.52747 -32401691.75846  21933973.3594                   21933970.9924
  -7569633.42647  -5885169.33245  23269323.8914                   23269322.0704
    835164.82446    664552.61344  24475792.7034                   24475794.8244
 -39378790.23448 -30668164.34046  20038185.4534                   20038182.6884
 -25644877.80947 -19967488.23845  22515934.4694                   22515933.0234
 -26468674.54748 -20609719.64546  21037182.6884                   21037178.2034
 11  8  3  0 25  0.0000000  0  9G09G28G10G17G12G05G04G27G02
 -18499709.06247 -14400103.66845  22114037.2034                   22114035.2384
 -45836594.32047 -35705054.75044  22923822.3364                   22923821.3324
 -18736714.69547 -14586695.03145  21782778.9064                   21782776.6684
 -41593955.90648 -32395425.58246  21935503.9924                   21935501.3984
  -7694215.60947  -5982246.30945  23245617.0944                   23245614.6764
    699840.45746    559105.34443  24450040.6094                   24450043.6844
 -39371660.69148 -30662608.85947  20039542.2974                   20039539.7544
 -25642724.92247 -19965810.72745  22516344.1254                   22516343.1604
 -26545240.63748 -20669381.50046  21022612.5314                   21022608.3554
 11  8  3  0 25 30.0000000  0  9G09G28G10G17G12G05G04G27G02
 -18498698.49647 -14399316.24245  22114229.4534                   22114227.2934
 -45783150.92647 -35663410.62144  22933993.0704                   22933990.4454
 -18839625.98048 -14666885.58645  21763195.7974                   21763194.3324
 -41585730.00048 -32389015.81246  21937069.3054                   21937066.3364
  -7818589.46547  -6079160.94545  23221949.9064                   23221946.9384
    564533.15346    453671.36143  24424292.9144                   24424295.0084
 -39363993.36748 -30656634.31246  20041001.2814                   20040998.7464
 -25640083.12147 -19963752.23045  22516846.5944                   22516845.1604
 -26621342.83648 -20728681.88346  21008131.2194                   21008126.7424
 11  8  3  0 26  0.0000000  0  9G09G28G10G17G12G05G04G27G02
 -18497035.14547 -14398020.15645  22114545.6724                   22114543.7504
 -45729299.41047 -35621448.48044  22944240.6094                   22944238.8404
 -18942069.30148 -14746711.49245  21743701.4534                   21743699.7274
 -41577317.87548 -32382460.93045  21938669.7114                   21938667.0784
  -7942750.99647  -6175910.14145  23198322.3134                   23198319.2424
    429247.23846    348254.10243  24398547.1174                   24398549.8524
 -39355788.92248 -30650241.25446  20042562.5554                   20042559.9924
 -25636952.50847 -19961312.83645  22517442.5084                   22517441.2584
 -26696979.36748 -20787619.42246  20993737.6094                   20993733.4454
 11  8  3  0 26 30.0000000  0  9G09G28G10G17G12G05G04G27G02
 -18494721.42247 -14396217.29345  22114986.1254                   22114984.0434
 -45675041.09847 -35579169.38744  22954565.3914                   22954563.6914
 -19044041.35947 -14826170.17645  21724296.5394                   21724294.8094
 -41568719.30548 -32375760.77046  21940306.6414                   21940303.9844
  -8066698.09047  -6272492.25045  23174736.0554                   23174733.0904
    293985.35546    242855.56643  24372807.6644                   24372809.7464
 -39347049.60548 -30643431.39846  20044225.6724                   20044223.3524
 -25633335.12547 -19958494.16045  22518131.1334                   22518130.0234
 -26772150.34048 -20846194.18046  20979433.0314                   20979428.6484
 11  8  3  0 27  0.0000000  0  9G09G28G10G17G12G05G04G27G02
 -18491757.47747 -14393907.75445  22115549.8204                   22115548.1684
 -45620375.38747 -35536572.80144  22964968.1804                   22964965.9454
 -19145537.05948 -14905257.67245  21704982.7584                   21704980.6414
 -41559932.05948 -32368913.59046  21941978.4534                   21941975.2424
  -8190426.46947  -6368903.92644  23151190.9774                   23151187.8594
    158751.73446    137478.99243  24347073.0634                   24347074.7464
 -39337775.42248 -30636204.77746  20045990.3984                   20045987.8984
 -25629231.04347 -19955296.22745  22518912.2344                   22518910.9454
 -26846853.23848 -20904404.20746  20965217.3834                   20965213.3674
 11  8  3  0 27 30.0000000  0  9G09G28G10G17G12G05G04G27G02
 -18488145.23447 -14391093.05145  22116237.5944                   22116236.1724
 -45565303.36747 -35493659.62144  22975447.6954                   22975446.4144
 -19246553.20348 -14983971.49645  21685760.0864                   21685757.7234
 -41550955.41448 -32361918.82046  21943686.7034                   21943684.3634
  -8313933.40647  -6465143.05544  23127688.3914                   23127685.1954
     23549.30546     32126.80143  24321344.4384                   24321347.2034
 -39327968.25448 -30628562.83646  20047856.8444                   20047854.3324
 -25624641.84447 -19951720.27745  22519785.3834                   22519784.7584
 -26921087.77748 -20962249.27346  20951091.2114                   20951086.7774
 11  8  3  0 28  0.0000000  0  9G09G28G10G17G12G05G04G27G02
 -16908465.53147 -13160173.84445  22416840.2034                   22416838.7114
 -43934407.03947 -34222831.40644  23285797.2034                   23285795.7934
 -17771661.95747 -13834705.53145  21966422.1724                   21966419.9144
 -39966367.81647 -31127175.27045  22245223.6334                   22245221.1994
  -6861790.92247  -5333603.41845  23404021.6644                   23404018.7664
   1463806.47746   1154405.46543  24595417.7344                   24595418.9774
 -37742209.33648 -29392906.55546  20349616.6484                   20349613.9454
 -24044148.38347 -18720166.99245  22820543.4924                   22820542.6214
 -25419430.16448 -19792126.42646  21236847.3524                   21236842.4884
 11  8  3  0 28 30.0000000  0  9G09G28G10G17G12G05G04G27G02
 -16903560.19947 -13156351.54745  22417773.4064                   22417772.0274
 -43878523.83246 -34179286.13744  23296431.5314                   23296429.9064
 -17871706.56648 -13912662.31645  21947384.2894                   21947382.3404
 -39957008.25447 -31119882.14545  22247005.0394                   22247002.1024
  -6984845.29347  -5429489.87545  23380605.0944                   23380602.2424
   1328677.19146   1049110.21543  24569702.6024                   24569705.2194
 -37731339.93448 -29384436.90246  20351684.7584                   20351682.5704
 -24038592.15247 -18715837.53145  22821600.7344                   22821599.3444
 -25492725.14148 -19849239.36746  21222899.3364                   21222895.1214
 11  8  3  0 29  0.0000000  0  9G09G28G10G17G12G05G04G27G02
 -16898011.14547 -13152027.64145  22418829.6724                   22418828.0044
 -43822236.67647 -34135426.12144  23307142.7734                   23307141.4144
 -17971260.25848 -13990236.57445  21928439.8754                   21928437.9024
 -39947456.42247 -31112439.18046  22248822.3284                   22248820.1844
  -7107669.40647  -5525196.94144  23357232.7814                   23357229.6094
   1193588.97747    943847.01244  24543996.1484                   24543997.8714
 -37719942.01648 -29375555.42646  20353854.0314                   20353851.3794
 -24032554.91847 -18711133.25045  22822749.2974                   22822748.2584
 -25565549.60248 -19905985.67246  21209041.4064                   21209037.0944
 11  8  3  0 29 30.0000000  0  9G09G28G10G17G12G05G04G27G02
 -16891819.43747 -13147202.97745  22420007.8284                   22420006.4224
 -43765545.50447 -34091251.29344  23317930.3674                   23317929.9264
 -18070318.36748 -14067424.65245  21909589.8364                   21909587.6484
 -39937710.37147 -31104844.88746  22250676.7974                   22250674.3204
  -7230259.35547  -5620721.54744  23333904.5004                   23333902.4574
   1058545.97747    838619.03544  24518297.8834                   24518300.5784
 -37708016.61348 -29366262.91846  20356123.2664                   20356121.0394
 -24026037.35247 -18706054.68045  22823990.4844                   22823988.5274
 -25637902.27348 -19962364.34846  21195273.4534                   21195268.7464
 11  8  3  0 30  0.0000000  0  9G09G28G10G17G12G05G04G27G02
 -16884986.20747 -13141878.41445  22421308.5864                   22421307.0904
 -43708451.20347 -34046762.32844  23328795.4694                   23328794.6954
 -18168877.18448 -14144223.66445  21890834.5554                   21890832.6454
 -39927768.26648 -31097097.80946  22252568.9614                   22252566.3674
  -7352612.37147  -5716061.48845  23310620.9694                   23310618.7774
    923551.44947    733428.81344  24492608.9614                   24492611.3674
 -37695564.81248 -29356560.24246  20358492.7274                   20358490.2274
 -24019040.59447 -18700602.72345  22825321.0784                   22825320.1954
 -25709782.20348 -20018374.66046  21181594.9534                   21181590.5354
 11  8  3  0 30 30.0000000  0  9G09G28G10G17G12G05G04G27G02
 -16877513.50447 -13136055.56645  22422731.0474                   22422728.7074
 -43650954.38747 -34001959.71544  23339737.2114                   23339735.9964
 -18266933.30148 -14220630.97345  21872175.0554                   21872172.6254
 -39917630.31248 -31089198.12146  22254497.9144                   22254495.7274
  -7474725.44947  -5811214.48045  23287384.5394                   23287382.0234
    788608.27046    628278.61344  24466929.2274                   24466931.5314
 -37682588.44148 -29346448.79346  20360961.9694                   20360959.6054
 -24011566.24247 -18694778.59845  22826744.5084                   22826743.0274
 -25781189.14548 -20074016.41046  21168006.8054                   21168002.5824
 11  8  3  0 31  0.0000000  0  9G09G28G10G17G12G05G04G27G02
 -16869403.11347 -13129735.82045  22424273.6644                   22424271.8404
 -43593055.93447 -33956844.14144  23350754.8444                   23350753.3554
 -18364482.62148 -14296643.36745  21853612.2274                   21853610.1094
 -39907295.31248 -31081144.89845  22256464.7194                   22256462.6024
  -7596595.23047  -5906177.89545  23264192.4384                   23264190.6564
    653720.44146    523171.55544  24441261.1804                   24441262.9654
 -37669088.99248 -29335929.75846  20363530.7974                   20363528.4414
 -24003615.35247 -18688583.16445  22828257.4774                   22828255.7424
 -25852121.80548 -20129288.57846  21154508.5004                   21154504.0554
 11  8  3  0 31 30.0000000  0  9G09G28G10G17G12G05G04G27G02
 -16860655.77047 -13122919.74245  22425938.1414                   22425936.7624
 -43534755.71947 -33911415.49244  23361849.3984                   23361848.2424
 -18461520.75848 -14372257.43745  21835146.2194                   21835144.4654
 -39896760.98848 -31072936.35545  22258469.5554                   22258467.0514
  -7718218.05947  -6000948.88745  23241048.9304                   23241046.5984
    518891.55546    418110.42244  24415603.6884                   24415604.8554
 -37655067.40648 -29325003.86346  20366199.3594                   20366196.6644
 -23995188.62947 -18682016.93745  22829860.4924                   22829859.7034
 -25922579.05148 -20184190.30946  21141100.9454                   21141096.5354
 11  8  3  0 32  0.0000000  0  9G09G28G10G17G12G05G04G27G02
 -16851274.31647 -13115609.57045  22427723.6724                   22427722.1564
 -43476055.69547 -33865675.32444  23373019.4384                   23373018.5044
 -18558045.30948 -14447471.31645  21816778.1484                   21816776.5704
 -39886027.46547 -31064572.60545  22260512.2034                   22260509.4574
  -7839592.12547  -6095526.02345  23217952.5164                   23217950.3404
    384123.92646    313096.99244  24389958.1564                   24389959.2584
 -37640525.92648 -29313672.86347  20368966.5004                   20368964.2624
 -23986288.56247 -18675081.87545  22831553.9224                   22831552.7934
 -25992561.20348 -20238721.83246  21127783.9144                   21127779.0204
 11  8  3  0 32 30.0000000  0  9G09G28G10G17G12G05G04G27G02
 -16841260.48847 -13107806.62545  22429629.0784                   22429627.9064
 -43416957.12947 -33819624.58244  23384265.3524                   23384265.2034
 -18654052.58248 -14522282.10945  21798508.2344                   21798506.5004
 -39875093.85547 -31056052.92245  22262592.7974                   22262590.4574
  -7960714.56647  -6189907.07045  23194903.7034                   23194901.1804
    249420.92646    208133.95744  24364324.6254                   24364326.6804
 -37625466.52348 -29301938.27346  20371832.3524                   20371829.6684
 -23976916.78547 -18667779.25445  22833337.7664                   22833336.4494
 -26062067.87148 -20292882.84846  21114557.2344                   21114552.2934
 11  8  3  0 33  0.0000000  0  9G09G28G10G17G12G05G04G27G02
 -16830616.41447 -13099512.58645  22431655.4694                   22431653.4344
 -43357460.73446 -33773263.85544  23395586.6254                   23395586.5394
 -18749539.02047 -14596687.07845  21780337.9844                   21780335.6254
 -39863959.20747 -31047376.60946  22264711.7344                   22264708.8794
  -8081582.47347  -6284089.79745  23171902.9224                   23171900.6294
    114785.68446    103223.69144  24338704.3284                   24338706.3054
 -37609890.79748 -29289801.36746  20374796.2734                   20374793.5124
 -23967074.88347 -18660110.29745  22835210.8204                   22835209.4184
 -26131098.42648 -20346672.87146  21101420.9534                   21101416.3674
 11  8  3  0 33 30.0000000  0  9G09G28G10G17G12G05G04G27G02
 -16819345.30547 -13090729.94945  22433799.6024                   22433797.9924
 -43297568.87146 -33726594.96543  23406983.5314                   23406983.3244
 -18844502.64848 -14670684.65645  21762266.6564                   21762264.6524
 -39852623.79747 -31038543.83646  22266868.6884                   22266865.9494
  -8202194.14147  -6378072.84445  23148951.0474                   23148948.0514
    -19780.22746     -1632.53944  24313096.8204                   24313099.1054
 -37593801.93748 -29277264.60546  20377857.9064                   20377855.7734
 -23956765.84447 -18652077.33245  22837172.0554                   22837171.2234
 -26199653.84048 -20400092.64846  21088375.1334                   21088370.5084
 11  8  3  0 34  0.0000000  0  9G09G28G10G17G12G05G04G27G02
 -16807449.47347 -13081460.52045  22436063.3834                   22436062.3364
 -43237282.67246 -33679618.84044  23418456.7424                   23418455.0474
 -18938939.92247 -14744272.09045  21744296.2814                   21744293.5824
 -39841087.10547 -31029554.22745  22269063.8524                   22269061.4574
  -8322546.84847  -6471854.10545  23126048.6414                   23126046.1604
   -154273.27346   -106432.02344  24287504.0234                   24287505.1914
 -37577201.59848 -29264329.28946  20381016.7034                   20381014.2274
 -23945991.62547 -18643681.88745  22839222.5234                   22839221.0984
 -26267733.82848 -20453141.96946  21075420.2034                   21075415.5044
 11  8  3  0 34 30.0000000  0  9G09G28G10G17G12G05G04G27G02
 -16794931.11347 -13071706.00445  22438446.0314                   22438444.4024
 -43176603.68447 -33632336.59444  23430003.6414                   23430002.0864
 -19032848.01247 -14817447.16445  21726425.8444                   21726423.7304
 -39829348.37947 -31020407.18445  22271297.5944                   22271295.0124
  -8442638.28947  -6565431.80145  23103196.0554                   23103193.1884
   -288690.66846   -211172.57044  24261924.6484                   24261926.1914
 -37560092.02348 -29250997.15246  20384272.6804                   20384269.8204
 -23934754.19147 -18634925.49245  22841361.1024                   22841359.8634
 -26335338.21948 -20505820.68046  21062555.3524                   21062550.8204
 11  8  3  0 35  0.0000000  0  9G09G28G10G17G12G05G04G27G02
 -16781793.64147 -13061469.06245  22440945.5864                   22440944.4454
 -43115534.46946 -33584750.28944  23441624.8984                   23441623.6374
 -19126224.79747 -14890208.25045  21708656.7424                   21708654.9614
 -39817408.15648 -31011103.13345  22273570.1644                   22273567.7894
  -8562466.65247  -6658804.50445  23080393.5944                   23080390.4774
   -423031.04747   -315853.11744  24236360.8834                   24236361.5164
 -37542476.48848 -29237270.77346  20387624.9454                   20387622.3674
 -23923056.49247 -18625810.46145  22843587.2114                   22843585.8054
 -26402468.15648 -20558129.69546  21049781.0084                   21049776.7194
 11  8  3  0 35 30.0000000  0  9G09G28G10G17G12G05G04G27G02
 -16768040.34047 -13050752.26645  22443562.8054                   22443561.5124
 -43054077.24646 -33536861.66843  23453319.6174                   23453317.6214
 -19219068.12948 -14962553.66845  21690989.1334                   21690987.7034
 -39805267.24247 -31001642.70346  22275880.6024                   22275877.9654
  -8682030.53547  -6751971.13345  23057641.1804                   23057638.3244
   -557292.21147   -420471.94944  24210811.0864                   24210812.5204
 -37524357.97348 -29223152.46146  20391072.5394                   20391070.0274
 -23910901.63747 -18616339.18745  22845899.9304                   22845898.7074
 -26469124.46148 -20610069.64546  21037096.9304                   21037092.1054
 11  8  3  0 36  0.0000000  0  9G09G28G10G17G12G05G04G27G02
 -16753675.00047 -13039558.54345  22446296.6564                   22446295.6564
 -42992234.44546 -33488672.58244  23465087.8444                   23465086.8054
 -19311376.05547 -15034481.87945  21673423.7894                   21673421.5744
 -39792925.82047 -30992026.04745  22278228.7734                   22278226.3244
  -8801328.36747  -6844930.43045  23034939.0944                   23034937.0594
   -691472.60247   -525027.85244  24185276.5864                   24185278.4964
 -37505739.61348 -29208644.65646  20394615.8524                   20394612.7034
 -23898292.65647 -18606514.06245  22848298.9774                   22848298.1564
 -26535308.25048 -20661641.40646  21024502.2814                   21024498.2934
 11  8  3  0 36 30.0000000  0  9G09G28G10G17G12G05G04G27G02
 -16738701.37547 -13027890.84045  22449145.7664                   22449144.9414
 -42930009.20747 -33440185.48044  23476929.7894                   23476928.4384
 -19403146.89847 -15105991.59445  21655960.1174                   21655958.2074
 -39780384.97347 -30982253.96945  22280615.3444                   22280612.4694
  -8920359.20747  -6937681.68445  23012288.6644                   23012285.9304
   -825570.78547   -629519.69144  24159759.7344                   24159760.2704
 -37486625.25448 -29193750.35246  20398252.7344                   20398250.3204
 -23885233.09847 -18596337.82045  22850784.9224                   22850783.2664
 -26601021.10948 -20712846.19946  21011997.5864                   21011993.1724
 11  8  3  0 37  0.0000000  0  9G09G28G10G17G12G05G04G27G02
 -16723125.35947 -13015753.73845  22452109.8524                   22452109.1884
 -42867406.42646 -33391404.19944  23488842.2734                   23488841.8674
 -19494381.10548 -15177083.15245  21638598.8524                   21638596.8714
 -39767647.18047 -30972328.44545  22283039.2194                   22283037.0044
  -9039123.98047  -7030225.62945  22989688.5004                   22989685.5164
   -959587.40647   -733947.98444  24134256.6334                   24134257.6764
 -37467020.32448 -29178473.78946  20401983.6334                   20401980.9454
 -23871728.57847 -18585814.87544  22853354.4534                   22853353.8404
 -26666266.40648 -20763686.65646  20999581.7344                   20999577.2704
 11  8  3  0 37 30.0000000  0  9G09G28G10G17G12G05G04G27G02
 -16706950.19547 -13003149.76245  22455188.2344                   22455187.1214
 -42804428.43046 -33342330.55144  23500826.1644                   23500826.1604
 -19585076.53547 -15247754.88345  21621340.0004                   21621337.8134
 -39754712.89847 -30962249.80945  22285500.6414                   22285498.1564
  -9157620.82847  -7122560.82445  22967139.7734                   22967136.8794
  -1093520.29747   -838311.01644  24108770.0314                   24108770.4224
 -37446927.98848 -29162817.43046  20405807.1564                   20405804.8754
 -23857781.92247 -18574947.39845  22856008.5314                   22856007.5634
 -26731044.68448 -20814163.21146  20987255.2114                   20987250.1454
 11  8  3  0 38  0.0000000  0  9G09G28G10G17G12G05G04G27G02
 -16690182.76647 -12990084.28545  22458379.3754                   22458377.8634
 -42741081.29346 -33292969.26244  23512881.5314                   23512880.4454
 -19675234.64848 -15318007.91845  21604183.7344                   21604181.6524
 -39741586.21147 -30952021.24645  22287998.7974                   22287995.8204
  -9275851.80147  -7214688.82445  22944640.2734                   22944638.0514
  -1227370.91447   -942609.94944  24083298.4774                   24083299.2774
 -37426354.61348 -29146786.23046  20409722.1254                   20409719.9344
 -23843399.67647 -18563740.49245  22858745.5704                   22858744.1564
 -26795360.75048 -20864279.59846  20975016.0634                   20975011.4734
 11  8  3  0 38 30.0000000  0  9G09G28G10G17G12G05G04G27G02
 -16672829.40247 -12976562.25445  22461681.0704                   22461680.2854
 -42677369.80946 -33243324.04344  23525005.3284                   23525004.3984
 -19764856.29747 -15387842.93746  21587129.0164                   21587127.2304
 -39728270.06647 -30941645.04745  22290532.6484                   22290529.7154
  -9393817.64847  -7306610.24245  22922192.4694                   22922189.7504
  -1361140.36346  -1046845.63344  24057843.1254                   24057843.7584
 -37405306.11348 -29130384.80146  20413727.4534                   20413724.6454
 -23828587.77047 -18552198.80545  22861564.4384                   22861563.1604
 -26859218.19948 -20914038.63346  20962864.1884                   20962859.4804
 11  8  3  0 39  0.0000000  0  9G09G28G10G17G12G05G04G27G02
 -16654896.39547 -12962588.53145  22465093.8754                   22465093.0664
 -42613299.46546 -33193399.25043  23537197.0314                   23537196.4104
 -19853942.05147 -15457260.36745  21570176.6414                   21570174.9734
 -39714767.49647 -30931123.59445  22293102.1804                   22293099.7114
  -9511520.25847  -7398326.54745  22899794.2814                   22899791.5354
  -1494829.08247  -1151018.40244  24032402.1024                   24032403.5434
 -37383788.62548 -29113617.93046  20417822.1484                   20417819.8324
 -23813352.02047 -18540326.84045  22864463.3754                   22864462.2504
 -26922621.12948 -20963443.48046  20950799.1564                   20950794.7034
 11  8  3  0 39 30.0000000  0  9G09G28G10G17G12G05G04G27G02
 -16636391.80947 -12948169.42245  22468615.0004                   22468614.0164
 -42548877.05146 -33143200.07043  23549457.3914                   23549456.1564
 -19942494.28947 -15526262.07445  21553325.6414                   21553323.3324
 -39701083.58647 -30920460.82845  22295705.9144                   22295703.5864
  -9628961.22747  -7489838.98445  22877446.3284                   22877443.8134
  -1628440.09047  -1255130.60544  24006977.1484                   24006978.0204
 -37361809.51648 -29096491.35246  20422004.5234                   20422002.2114
 -23797700.07047 -18528130.55945  22867442.0004                   22867440.1134
 -26985574.75048 -21012498.22746  20938819.2734                   20938814.9454
 11  8  3  0 40  0.0000000  0  9G09G28G10G17G12G05G04G27G02
 -16617324.19147 -12933311.59045  22472243.2034                   22472242.4454
 -42484110.37946 -33092732.65643  23561781.9774                   23561781.1094
 -20030516.42247 -15594850.71146  21536576.0084                   21536573.5944
 -39687223.82448 -30909661.04745  22298343.4454                   22298341.1804
  -9746145.02747  -7581151.00045  22855146.7344                   22855144.1994
  -1761976.41047  -1359184.63344  23981565.0944                   23981566.8444
 -37339377.10548 -29079011.55546  20426273.2734                   20426270.6954
 -23781640.18047 -18515616.40644  22870497.8914                   22870496.8794
 -27048085.34448 -21061207.74646  20926923.6884                   20926919.3054
 11  8  3  0 40 30.0000000  0  9G09G28G10G17G12G05G04G27G02
 -16597703.40247 -12918022.73045  22475977.4304                   22475976.4024
 -42419008.44546 -33042003.96543  23574170.1954                   23574169.6054
 -20118012.42647 -15663029.37545  21519925.2114                   21519923.8984
 -39673194.86747 -30898729.41045  22301012.7734                   22301010.6644
  -9863076.34447  -7672266.28545  22832894.9694                   22832892.8554
  -1895442.05547  -1463183.59444  23956167.8524                   23956168.8754
 -37316500.94148 -29061185.98046  20430626.7194                   20430624.2304
 -23765181.79347 -18502791.74645  22873630.0164                   22873628.9774
 -27110160.14548 -21109577.69946  20915111.4924                   20915107.0704
 11  8  3  0 41  0.0000000  0  9G09G28G10G17G12G05G04G27G02
 -16577540.06247 -12902311.08245  22479813.8444                   22479813.6134
 -42353580.36346 -32991021.13743  23586621.0704                   23586620.3054
 -20204987.75048 -15730802.31245  21503374.8674                   21503372.4774
 -39659004.03948 -30887671.63745  22303713.5634                   22303710.9144
  -9979760.28547  -7763188.82445  22810691.4384                   22810689.0594
  -2028842.62947  -1567131.86744  23930782.6174                   23930783.0434
 -37293191.06648 -29043022.44546  20435062.1884                   20435059.4224
 -23748334.95747 -18489664.37945  22876835.5944                   22876834.9774
 -27171807.20748 -21157614.35246  20903380.5944                   20903375.4844
 11  8  3  0 41 30.0000000  0  9G09G28G10G17G12G05G04G27G02
 -16556844.52047 -12886184.75445  22483753.0004                   22483752.1914
 -42287835.71546 -32939791.65243  23599131.7114                   23599130.1254
 -20291446.99647 -15798173.11745  21486922.0084                   21486920.0124
 -39644658.22748 -30876493.10545  22306443.7344                   22306441.2934
 -10096201.89147  -7853922.52345  22788532.8834                   22788530.1334
  -2162182.94147  -1671033.18744  23905408.3984                   23905408.8984
 -37269457.45748 -29024528.73046  20439578.6884                   20439576.0984
 -23731109.69547 -18476242.16845  22880113.8594                   22880112.6524
 -27233034.47348 -21205323.88346  20891729.3594                   20891724.7544
 11  8  3  0 42  0.0000000  0  9G09G28G10G17G12G05G04G27G02
 -16535630.02747 -12869654.04345  22487790.0084                   22487789.1334
 -42221786.72346 -32888324.98443  23611699.9774                   23611699.0944
 -20377398.27747 -15865148.10546  21470566.3204                   21470564.2704
 -39630168.11747 -30865202.14145  22309200.3914                   22309198.7384
 -10212409.59847  -7944473.94145  22766418.9454                   22766417.1414
  -2295470.64147  -1774893.52744  23880044.5394                   23880044.8914
 -37245313.25048 -29005715.07446  20444173.1254                   20444170.7544
 -23713518.84447 -18462535.07045  22883461.6804                   22883460.5864
 -27293852.98448 -21252714.91046  20880155.5784                   20880151.0864
 11  8  3  0 42 30.0000000  0  9G09G28G10G17G12G05G04G27G02
 -16513911.19947 -12852730.33245  22491923.2114                   22491922.1884
 -42155446.91046 -32836631.71944  23624324.4924                   23624324.0664
 -20462850.45747 -15931734.18446  21454305.1094                   21454303.2504
 -39615544.60548 -30853807.22745  22311983.3914                   22311981.0354
 -10328392.44947  -8034850.16045  22744348.2194                   22744345.9534
  -2428714.53947  -1878719.70744  23854688.5004                   23854689.4734
 -37220772.25848 -28986592.23446  20448843.0634                   20448840.4304
 -23695576.66447 -18448554.20345  22886875.4224                   22886874.3554
 -27354274.57848 -21299796.65646  20868658.2814                   20868653.6484
 11  8  3  0 43  0.0000000  0  9G09G28G10G17G12G05G04G27G02
 -16491702.83247 -12835425.16045  22496149.0554                   22496148.2504
 -42088829.76646 -32784722.35944  23637001.8984                   23637000.6094
 -20547812.77047 -15997938.54746  21438137.1644                   21438135.2584
 -39600799.43047 -30842317.50845  22314789.6724                   22314787.0394
 -10444160.08247  -8125058.67645  22722318.7194                   22722316.1914
  -2561923.94147  -1982519.00044  23829339.5314                   23829339.7624
 -37195848.85248 -28967171.40246  20453585.8134                   20453583.7304
 -23677297.27747 -18434310.59444  22890354.3754                   22890353.4024
 -27414311.48448 -21346578.62546  20857232.9534                   20857229.0554
 11  8  3  0 43 30.0000000  0  9G09G28G10G17G12G05G04G27G02
 -16469020.60947 -12817750.75845  22500464.8754                   22500464.1294
 -42021950.11746 -32732608.44944  23649728.4694                   23649728.0744
 -20632295.19947 -16063768.98046  21422060.7344                   21422058.4654
 -39585944.49648 -30830742.27045  22317616.7344                   22317613.6374
 -10559722.60947  -8215107.34845  22700327.6724                   22700325.2344
  -2695108.82447  -2086299.24244  23803995.3134                   23803995.7114
 -37170558.14848 -28947464.37146  20458398.6254                   20458395.9844
 -23658695.86747 -18419816.04745  22893893.5004                   22893893.7544
 -27473976.72748 -21393070.99246  20845879.3444                   20845875.1804
 11  8  3  0 44  0.0000000  0  9G09G28G10G17G12G05G04G27G02
 -16445884.09447 -12799722.36745  22504868.2664                   22504867.3834
 -41954826.46146 -32680304.43443  23662501.5234                   23662501.2934
 -20716311.87547 -16129236.47746  21406072.6414                   21406070.8014
 -39570996.34848 -30819094.38745  22320461.3754                   22320458.4344
 -10675094.17247  -8305007.21145  22678373.9304                   22678370.1644
  -2828283.31247  -2190071.32844  23778652.1024                   23778652.6174
 -37144919.38748 -28927486.12546  20463277.2584                   20463274.8404
 -23639791.65647 -18405085.56645  22897491.3594                   22897490.9924
 -27533287.53548 -21439287.19146  20834592.8444                   20834588.3714
 11  8  3  0 44 30.0000000  0  9G09G28G10G17G12G05G04G27G02
 -16422311.04747 -12781353.79745  22509353.8364                   22509352.7774
 -41887475.13346 -32627823.02044  23675318.2424                   23675318.3164
 -20799875.14147 -16194350.67646  21390171.3364                   21390169.5474
 -39555969.39147 -30807385.08245  22323320.5234                   22323318.0004
 -10790287.36347  -8394768.10945  22656452.5004                   22656449.5704
  -2961459.07447  -2293844.43744  23753310.3134                   23753309.8714
 -37118949.70748 -28907250.02346  20468219.2974                   20468216.9804
 -23620602.05947 -18390132.71145  22901142.9774                   22901141.9654
 -27592259.04348 -21485238.98846  20823370.7344                   20823366.7854
 11  8  3  0 45  0.0000000  0  9G09G28G10G17G12G05G04G27G02
 -16398321.06247 -12762660.37145  22513919.1954                   22513918.1024
 -41819915.23446 -32575179.08244  23688174.7034                   23688174.5984
 -20882999.10547 -16259122.55546  21374352.9454                   21374351.1564
 -39540880.26247 -30795627.33645  22326191.8204                   22326189.4304
 -10905317.01247  -8484401.56245  22634563.3834                   22634560.7774
  -3094650.24647  -2397629.55144  23727964.3594                   23727964.3914
 -37092668.44148 -28886771.12146  20473220.1884                   20473218.0434
 -23601146.44547 -18374972.56644  22904845.0784                   22904844.5474
 -27650908.53148 -21530939.87146  20812210.2814                   20812205.8554
 11  8  3  0 45 30.0000000  0  9G09G28G10G17G12G05G04G27G02
 -16373934.74647 -12743658.08245  22518559.6804                   22518559.1524
 -41752165.93046 -32522387.54343  23701066.9304                   23701066.8754
 -20965698.79748 -16323563.82846  21358615.8524                   21358614.2734
 -39525745.54747 -30783834.08245  22329071.3594                   22329069.2774
 -11020197.56247  -8573918.82845  22612702.2584                   22612699.4264
  -3227871.95747  -2501438.48444  23702613.3754                   23702613.2154
 -37066095.43448 -28866064.88746  20478276.7814                   20478274.8364
 -23581444.68447 -18359620.61745  22908594.6024                   22908593.8754
 -27709253.89848 -21576403.77746  20801107.3754                   20801103.0164
 11  8  3  0 46  0.0000000  0  9G09G28G10G17G12G05G04G27G02
 -16349172.78947 -12724363.09845  22523272.3594                   22523270.5044
 -41684246.75846 -32469463.66443  23713991.0234                   23713991.8594
 -21047989.37948 -16387686.32046  21342956.9224                   21342954.6914
 -39510582.93048 -30772019.08245  22331957.4774                   22331954.9494
 -11134944.46547  -8663331.95345  22590866.4614                   22590863.2704
  -3361138.82447  -2605282.58644  23677252.8834                   23677253.1724
 -37039250.86748 -28845147.04746  20483385.3444                   20483383.3054
 -23561516.91847 -18344092.57445  22912386.1094                   22912386.2154
 -27767313.37948 -21621644.91446  20790059.0164                   20790054.8164
 11  8  3  0 46 30.0000000  0  9G09G28G10G17G12G05G04G27G02
 -16324055.60547 -12704791.32845  22528051.6174                   22528050.2704
 -41616176.75446 -32416422.19943  23726945.0634                   23726944.6484
 -21129885.46948 -16451501.41446  21327372.1024                   21327370.0234
 -39495409.12147 -30760195.37545  22334844.5164                   22334842.4494
 -11249572.56247  -8752652.52045  22569053.1414                   22569050.6564
  -3494465.42647  -2709173.23844  23651882.4064                   23651881.6644
 -37012154.40648 -28824032.93446  20488541.8674                   20488539.6914
 -23541382.93447 -18328403.84045  22916218.3524                   22916218.5664
 -27825104.58248 -21666677.00046  20779061.6334                   20779057.2344
 11  8  3  0 47  0.0000000  0  9G09G28G10G17G12G05G04G27G02
 -16298603.93447 -12684958.91045  22532894.6804                   22532894.1294
 -41547975.76646 -32363278.66043  23739922.7664                   23739922.8634
 -21211402.64848 -16515021.25046  21311860.2274                   21311858.0554
 -39480241.57847 -30748376.54345  22337731.0474                   22337728.5984
 -11364097.44947  -8841892.66845  22547260.2584                   22547257.3524
  -3627867.16847  -2813122.43044  23626495.7664                   23626496.2304
 -36984826.27748 -28802738.28946  20493741.8524                   20493739.2584
 -23521063.04747 -18312570.24244  22920084.5474                   22920084.6374
 -27882645.59048 -21711514.12546  20768112.3284                   20768107.7464
 11  8  3  0 47 30.0000000  0  9G09G28G10G17G12G05G04G27G02
 -16272838.66447 -12664882.12545  22537797.8674                   22537796.9654
 -41479663.43746 -32310048.41043  23752922.9224                   23752922.1914
 -21292556.26248 -16578257.79346  21296417.3754                   21296414.8794
 -39465097.66048 -30736576.12145  22340613.2034                   22340610.6764
 -11478534.24247  -8931064.15645  22525483.6564                   22525480.6094
  -3761358.81247  -2917141.68444  23601092.8054                   23601093.5044
 -36957286.99648 -28781279.10946  20498982.7584                   20498980.4064
 -23500577.53947 -18296607.57044  22923982.8524                   22923983.0554
 -27939955.01248 -21756170.80546  20757206.6254                   20757202.0474
 11  8  3  0 48  0.0000000  0  9G09G28G10G17G12G05G04G27G02
 -16246779.03147 -12644575.98445  22542756.3984                   22542756.0434
 -41411257.64546 -32256745.31243  23765940.4774                   23765939.0554
 -21373359.62148 -16641221.41846  21281040.7734                   21281038.6564
 -39449993.01247 -30724806.28945  22343487.3134                   22343484.6414
 -11592896.89147  -9020177.90245  22503721.1724                   22503718.3634
  -3894953.93047  -3021241.55944  23575670.5314                   23575671.4184
 -36929554.93048 -28759669.71146  20504259.7814                   20504257.3634
 -23479945.32047 -18280530.60545  22927909.5394                   22927909.1914
 -27997049.34448 -21800659.87946  20746341.6724                   20746337.5354
 11  8  3  0 48 30.0000000  0  9G09G28G10G17G12G05G04G27G02
 -16220441.75047 -12624053.49245  22547768.2894                   22547767.9804
 -41342774.49646 -32203381.91843  23778972.0864                   23778971.0784
 -21453824.26648 -16703921.10246  21265728.6954                   21265726.2814
 -39434940.89547 -30713077.38345  22346351.5394                   22346349.6374
 -11707196.43447  -9109242.44145  22481970.5554                   22481968.3204
  -4028663.30947  -3125430.48444  23550226.7274                   23550226.7704
 -36901646.30948 -28737922.73046  20509570.6954                   20509568.3404
 -23459182.45347 -18264351.81644  22931860.6724                   22931860.3364
 -28053942.89548 -21844992.50846  20735515.4534                   20735510.9884
 11  8  3  0 49  0.0000000  0  9G09G28G10G17G12G05G04G27G02
 -16193842.00047 -12603326.46945  22552830.2814                   22552829.4574
 -41274228.05546 -32149969.17643  23792016.3524                   23792015.0084
 -21533959.84448 -16766364.36746  21250479.6954                   21250477.5474
 -39419953.12547 -30701398.63345  22349203.6724                   22349201.7584
 -11821442.52347  -9198265.34845  22460230.5704                   22460227.4494
  -4162496.19547  -3229715.65244  23524759.0234                   23524759.0514
 -36873575.72748 -28716049.55146  20514912.2814                   20514910.0084
 -23438303.73047 -18248082.75444  22935833.7974                   22935833.6524
 -28110648.30548 -21889178.52746  20724724.8134                   20724720.0434
 11  8  3  0 49 30.0000000  0  9G09G28G10G17G12G05G04G27G02
 -16166991.66447 -12582404.19545  22557940.2274                   22557938.4734
 -41205628.71546 -32096515.26243  23805070.1484                   23805069.5704
 -21613772.94148 -16828556.35946  21235291.0314                   21235289.2664
 -39405038.12147 -30689776.57045  22352041.6804                   22352039.1484
 -11935641.59847  -9287251.61745  22438499.0084                   22438496.0274
  -4296458.78147  -3334101.88744  23499266.6334                   23499266.6254
 -36845354.44548 -28694058.95346  20520282.5474                   20520280.1054
 -23417320.60247 -18231732.32844  22939826.7584                   22939826.1764
 -28167174.83648 -21933225.16846  20713967.8914                   20713963.4224
 11  8  3  0 50  0.0000000  0  9G09G28G10G17G12G05G04G27G02
 -16139901.46147 -12561295.00845  22563095.2424                   22563094.2624
 -41136986.39546 -32043027.82843  23818132.0164                   23818131.6334
 -21693268.68448 -16890501.06646  21220163.8204                   21220162.1334
 -39390203.09447 -30678216.82045  22354865.0634                   22354863.3874
 -12049799.00847  -9376205.42245  22416775.7424                   22416772.9144
  -4430555.86747  -3438592.92644  23473748.8134                   23473748.3164
 -36816992.48448 -28671958.73446  20525679.7424                   20525677.1884
 -23396243.21547 -18215308.46544  22943837.6414                   22943837.1174
 -28223530.75448 -21977138.85546  20703244.2814                   20703239.4224
 11  8  3  0 50 30.0000000  0  9G09G28G10G17G12G05G04G27G02
 -16112578.80147 -12540004.69145  22568294.8984                   22568293.0784
 -41068306.93046 -31989511.48843  23831201.8914                   23831200.7934
 -21772448.75048 -16952199.78146  21205096.3834                   21205093.7934
 -39375452.06247 -30666722.53545  22357671.9304                   22357669.4694
 -12163916.58247  -9465128.16845  22395059.8134                   22395057.1914
  -4564788.94947  -3543189.94544  23448204.9694                   23448204.6844
 -36788496.70748 -28649754.24246  20531102.6884                   20531100.0044
 -23375078.56647 -18198816.61344  22947864.8444                   22947864.3714
 -28279720.85548 -22020923.33246  20692551.2974                   20692546.6884
 11  8  3  0 51  0.0000000  0  9G09G28G10G17G12G05G04G27G02
 -16085027.91047 -12518536.50845  22573537.0084                   22573536.3204
 -40999593.80546 -31935968.90643  23844277.2974                   23844278.0044
 -21851311.96148 -17013651.60246  21190089.0314                   21190086.8054
 -39360785.21547 -30655293.85245  22360462.7034                   22360461.2774
 -12277992.89147  -9554018.76645  22373351.5004                   22373348.3484
  -4699156.53947  -3647891.78545  23422635.5394                   23422635.4264
 -36759870.75048 -28627448.32046  20536549.5234                   20536547.5234
 -23353830.25047 -18182259.56244  22951909.1174                   22951907.5824
 -28335746.66048 -22064579.79346  20681889.7114                   20681885.1764
 11  8  3  0 51 30.0000000  0  9G09G28G10G17G12G05G04G27G02
 -16057249.93447 -12496891.39845  22578822.9384                   22578822.7974
 -40930846.80546 -31882399.96143  23857359.0864                   23857359.9224
 -21929854.09448 -17074853.23446  21175143.3284                   21175141.4574
 -39346200.53547 -30643929.20745  22363238.4224                   22363236.7464
 -12392023.17247  -9642873.51245  22351651.8204                   22351649.4694
  -4833653.73847  -3752694.62544  23397041.1414                   23397041.0394
 -36731114.94948 -28605041.21946  20542021.9224                   20542019.6454
 -23332499.10547 -18165637.96544  22955967.7894                   22955967.9104
 -28391606.92248 -22108107.26247  20671260.3754                   20671255.4494
 11  8  3  0 52  0.0000000  0  9G09G28G10G17G12G05G04G27G02
 -16029241.89547 -12475067.02045  22584153.0864                   22584151.8484
 -40862061.54346 -31828801.21143  23870449.5084                   23870449.6684
 -22008066.78148 -17135798.16446  21160259.4844                   21160256.8014
 -39331691.24647 -30632623.28945  22365999.5864                   22365996.9614
 -12505999.21947  -9731685.98045  22329963.3674                   22329960.2274
  -4968271.53947  -3857591.43744  23371424.3204                   23371423.8914
 -36702225.65248 -28582530.10246  20547519.1174                   20547516.9964
 -23311081.29747 -18148948.84044  22960043.3674                   22960042.8054
 -28447295.86348 -22151501.21546  20660662.7734                   20660657.7464
 11  8  3  0 52 30.0000000  0  9G09G28G10G17G12G05G04G27G02
 -16000996.40247 -12453057.62145  22589527.9614                   22589526.7304
 -40793229.64546 -31775166.09443  23883547.7114                   23883548.2114
 -22085936.97748 -17196476.20346  21145441.7814                   21145439.1884
 -39317246.29747 -30621367.51245  22368748.0864                   22368745.8594
 -12619907.64547  -9820445.76645  22308286.7734                   22308284.5864
  -5102996.44147  -3962571.71544  23345786.4384                   23345785.7974
 -36673194.67248 -28559908.58646  20553043.7194                   20553041.2624
 -23289568.90247 -18132186.02044  22964137.5474                   22964136.9024
 -28502803.71148 -22194754.07046  20650100.1564                   20650095.2974
 11  8  3  0 53  0.0000000  0  9G09G28G10G17G12G05G04G27G02
 -15972504.75447 -12430856.38745  22594949.5164                   22594948.4924
 -40724341.44547 -31721487.09843  23896656.4144                   23896656.8554
 -22163450.67648 -17256876.46546  21130691.1724                   21130688.9024
 -39302853.60247 -30610152.44945  22371486.9614                   22371485.1294
 -12733734.45747  -9909141.94945  22286627.0004                   22286624.2894
  -5237814.03147  -4067624.22744  23320131.6334                   23320131.2774
 -36644012.64148 -28537169.36746  20558596.7664                   20558594.9654
 -23267952.93047 -18115342.45344  22968250.4304                   22968249.7624
 -28558119.21948 -22237857.04347  20639573.7584                   20639568.9344
 11  8  3  0 53 30.0000000  0  9G09G28G10G17G12G05G04G27G02
 -15943755.91047 -12408454.73045  22600420.3364                   22600420.3284
 -40655384.70347 -31667754.71943  23909778.7734                   23909778.4494
 -22240591.63348 -17316986.27346  21116011.8444                   21116008.8634
 -39288498.33247 -30598966.55145  22374218.6954                   22374216.6914
 -12847462.93447  -9997761.52046  22264985.0314                   22264982.5204
  -5372707.20347  -4172735.64545  23294462.1804                   23294461.7704
 -36614667.98848 -28514303.43046  20564180.7894                   20564178.5394
 -23246221.60247 -18098409.05944  22972386.3524                   22972386.0394
 -28613228.52048 -22280799.33646  20629087.0084                   20629081.9884
 11  8  3  0 54  0.0000000  0  9G09G28G10G17G12G05G04G27G02
 -15914737.14547 -12385842.77745  22605942.3594                   22605941.5744
 -40586345.19547 -31613957.78543  23922916.6254                   23922916.1994
 -22317341.42648 -17376791.27346  21101406.3754                   21101404.4184
 -39274163.93447 -30587796.93045  22376947.0164                   22376944.3524
 -12961074.59047 -10086290.04745  22243365.1334                   22243362.5004
  -5507657.10247  -4277891.25445  23268781.8984                   23268781.9804
 -36585146.87548 -28491299.98446  20569798.5704                   20569795.9964
 -23224361.72347 -18081375.45744  22976545.6484                   22976545.7854
 -28668116.34448 -22323569.04746  20618642.1334                   20618637.3914
 11  8  3  0 54 30.0000000  0  9G09G28G10G17G12G05G04G27G02
 -15885433.13347 -12363008.52045  22611518.9064                   22611518.1724
 -40517206.50447 -31560083.59843  23936074.2664                   23936073.5904
 -22393679.13348 -17436275.17246  21086879.6724                   21086877.2854
 -39259831.78147 -30576629.03545  22379674.3134                   22379671.4774
 -13074548.28547 -10174711.07845  22221771.9844                   22221769.7704
  -5642642.27747  -4383074.38344  23243095.3914                   23243094.2114
 -36555433.46548 -28468146.70746  20575453.2424                   20575450.5314
 -23202357.28947 -18064229.23444  22980733.3594                   22980733.0164
 -28722764.94548 -22366152.34846  20608242.8204                   20608238.1414
 11  8  3  0 55  0.0000000  0  9G09G28G10G17G12G05G04G27G02
 -15855828.26647 -12339939.85545  22617152.8364                   22617151.7544
 -40447951.70346 -31506118.96943  23949252.6724                   23949253.1484
 -22469583.81248 -17495421.63746  21072435.6024                   21072434.1094
 -39245482.48047 -30565447.80145  22382404.4534                   22382402.2894
 -13187862.83247 -10263008.10546  22200208.9694                   22200206.4344
  -5777641.43447  -4488268.39845  23217405.7344                   23217404.9264
 -36525511.38348 -28444830.82046  20581146.7344                   20581144.6334
 -23180192.18047 -18046957.77744  22984951.3984                   22984950.9774
 -28777156.25448 -22408535.15247  20597892.6484                   20597888.0274
 11  8  3  0 55 30.0000000  0  9G09G28G10G17G12G05G04G27G02
 -15825906.61747 -12316624.32445  22622846.7344                   22622846.0634
 -40378563.68446 -31452050.51643  23962456.5084                   23962456.8674
 -22545034.13748 -17554214.07446  21058078.1564                   21058075.7234
 -39231096.25447 -30554237.77045  22385142.0634                   22385140.0594
 -13300996.56247 -10351164.23046  22178680.2504                   22178677.5944
  -5912632.03947  -4593455.75445  23191717.6644                   23191717.0864
 -36495363.75448 -28421339.17646  20586884.0164                   20586881.8914
 -23157849.64547 -18029548.10544  22989202.8364                   22989202.5984
 -28831271.23448 -22450702.65247  20587594.6484                   20587590.0044
 11  8  3  0 56  0.0000000  0  9G09G28G10G17G12G05G04G27G02
 -14220233.84847 -11065450.79345  22928396.0164                   22928395.7504
 -38733608.32046 -30170267.24243  24275481.5164                   24275481.3794
 -21044586.72748 -16385034.24646  21343604.0234                   21343601.1454
 -37641234.29347 -29315384.32045  22687683.1954                   22687680.5434
 -11838504.52347  -9211560.01245  22456983.5634                   22456980.2854
  -4472168.27347  -3471016.33245  23465828.8134                   23465828.4804
 -34889555.37148 -27170059.93446  20892458.7974                   20892456.6564
 -21559894.80147 -16784388.55944  23293283.5864                   23293284.2154
 -27309670.35948 -21265039.60246  20877145.5004                   20877140.6724
 11  8  3  0 56 30.0000000  0  9G09G28G10G17G12G05G04G27G02
 -14189631.31247 -11041604.67644  22934218.9454                   22934219.0164
 -38663903.67246 -30115952.02743  24288745.8754                   24288745.8554
 -21119065.20348 -16443069.38346  21329430.8674                   21329428.0904
 -37626716.07447 -29304071.46545  22690445.8364                   22690443.5904
 -11951212.14147  -9299384.10545  22435535.8284                   22435533.0234
  -4607077.09447  -3576139.96145  23440156.3284                   23440156.1884
 -34858907.32848 -27146178.36346  20898291.4614                   20898288.6844
 -21537149.45747 -16766664.99244  23297612.2584                   23297611.0864
 -27363178.68448 -21306734.38346  20866963.2034                   20866958.6644
 11  8  3  0 57  0.0000000  0  9G09G28G10G17G12G05G04G27G02
 -14158667.24247 -11017476.91445  22940111.9224                   22940110.7154
 -38594017.48846 -30061495.41443  24302044.1954                   24302044.5944
 -21193028.63748 -16500703.19546  21315355.7814                   21315353.7074
 -37612105.13347 -29292686.34845  22693226.1954                   22693223.7704
 -12063677.10247  -9387019.10545  22414134.5314                   22414131.9454
  -4741914.72747  -3681208.11345  23414497.3914                   23414496.5904
 -34827986.82848 -27122084.48446  20904175.1884                   20904173.6094
 -21514180.48047 -16748767.16444  23301983.6254                   23301983.6684
 -27416358.44148 -21348173.13347  20856843.4064                   20856838.7934
 11  8  3  0 57 30.0000000  0  9G09G28G10G17G12G05G04G27G02
 -14127329.60947 -10993058.02745  22946075.9064                   22946075.1484
 -38523936.34446 -30006886.81243  24315381.0944                   24315381.0354
 -21266459.08648 -16557921.69146  21301382.6724                   21301380.2544
 -37597385.07847 -29281216.19945  22696027.1724                   22696024.5474
 -12175880.92647  -9474450.62146  22392782.9534                   22392779.8914
  -4876662.50047  -3786206.24245  23388856.0314                   23388854.6914
 -34796780.33248 -27097767.74246  20910113.5704                   20910111.0824
 -21490974.76247 -16730684.87144  23306399.3364                   23306399.2624
 -27469194.62948 -21389344.16047  20846789.1954                   20846784.5514
 11  8  3  0 58  0.0000000  0  9G09G28G10G17G12G05G04G27G02
 -14095605.84447 -10968338.26645  22952112.3054                   22952111.5704
 -38453646.65646 -29952115.71943  24328756.1564                   24328756.7584
 -21339338.92648 -16614711.14146  21287514.2974                   21287511.6954
 -37582540.35247 -29269648.89545  22698852.3834                   22698850.1334
 -12287805.90647  -9561664.84845  22371484.1564                   22371481.1174
  -5011302.07047  -3891120.05545  23363234.7274                   23363233.8444
 -34765275.07848 -27073218.21146  20916109.0784                   20916106.8244
 -21467519.68447 -16712408.27744  23310862.5704                   23310862.4924
 -27521672.45748 -21430235.95347  20836802.4844                   20836798.1884
 11  8  3  0 58 30.0000000  0  9G09G28G10G17G12G05G04G27G02
 -14063484.53947 -10943308.73444  22958224.8914                   22958224.5784
 -38383135.50446 -29897172.05142  24342174.3444                   24342174.9924
 -21411651.26248 -16671058.37946  21273753.5394                   21273751.4384
 -37567555.67247 -29257972.53145  22701703.1884                   22701701.6454
 -12399434.72748  -9648648.32046  22350241.8204                   22350238.5984
  -5145815.94947  -3995935.93745  23337637.1724                   23337636.3524
 -34733458.48048 -27048426.06646  20922163.6884                   20922161.1214
 -21443803.05547 -16693927.87144  23315375.6884                   23315376.0864
 -27573778.10948 -21470837.73846  20826887.6644                   20826882.7344
 11  8  3  0 59  0.0000000  0  9G09G28G10G17G12G05G04G27G02
 -14030958.57047 -10917963.86744  22964414.4144                   22964414.0664
 -38312394.92646 -29842049.62542  24355635.7734                   24355635.9774
 -21483384.20748 -16726954.14846  21260103.4454                   21260100.9454
 -37552420.01647 -29246178.53545  22704584.1414                   22704581.4804
 -12510754.69547  -9735391.12545  22329058.2664                   22329055.1684
  -5280191.07847  -4100643.69545  23312066.6884                   23312065.0904
 -34701323.08648 -27023385.51646  20928278.6174                   20928275.7544
 -21419817.34047 -16675237.78545  23319940.1884                   23319940.2664
 -27625502.06648 -21511142.10946  20817044.7664                   20817039.8204
 11  8  3  0 59 30.0000000  0  9G09G28G10G17G12G05G04G27G02
 -13998017.87947 -10892295.85544  22970682.5554                   22970681.9494
 -38241414.08646 -29786740.01242  24369142.1484                   24369142.2974
 -21554522.48048 -16782386.53146  21246565.8754                   21246563.1094
 -37537119.72347 -29234256.25045  22707495.3364                   22707492.8554
 -12621749.76647  -9821880.76645  22307936.5234                   22307933.5354
  -5414411.07447  -4205230.56645  23286524.5394                   23286523.6174
 -34668857.84848 -26998087.93446  20934456.3834                   20934454.2774
 -21395551.97347 -16656329.80144  23324557.8984                   23324558.0474
 -27676831.37948 -21551138.96146  20807277.0474                   20807272.3054
 11  8  3  1  0  0.0000000  0  9G09G28G10G17G12G05G04G27G02
 -13964657.21547 -10866300.57445  22977031.1564                   22977030.5234
 -38170186.20346 -29731237.84042  24382698.1024                   24382697.2894
 -21625055.15648 -16837347.02746  21233144.2814                   21233141.5474
 -37521645.82847 -29222198.69145  22710440.4144                   22710438.1334
 -12732409.20348  -9908108.87146  22286878.5164                   22286875.5394
  -5548464.55147  -4309687.69145  23261015.1254                   23261014.2384
 -34636056.69948 -26972528.61346  20940698.5234                   20940696.2894
 -21371001.20347 -16637199.41844  23329229.5234                   23329229.4144
 -27727758.39548 -21590822.31246  20797585.6644                   20797581.2384
 11  8  3  1  0 30.0000000  0  9G09G28G10G17G12G05G04G27G02
 -13930871.07847 -10839973.76244  22983459.8754                   22983460.2274
 -38098704.07446 -29675537.60943  24396300.2504                   24396300.2624
 -21694971.18048 -16891827.01646  21219839.5474                   21219836.7774
 -37505988.71147 -29209998.34845  22713419.6804                   22713417.2074
 -12842721.16047  -9994066.21546  22265887.0004                   22265884.1214
  -5682339.39147  -4414005.61345  23235539.6484                   23235538.4104
 -34602912.65248 -26946702.09046  20947005.5474                   20947003.3324
 -21346158.60547 -16617841.62544  23333957.6094                   23333956.7894
 -27778274.54348 -21630185.53147  20787972.9224                   20787968.2034
 11  8  3  1  1  0.0000000  0  9G09G28G10G17G12G05G04G27G02
 -13896653.55547 -10813310.80944  22989970.9384                   22989971.3054
 -38026960.75046 -29619633.77043  24409952.5864                   24409952.8754
 -21764259.60948 -16945817.97346  21206653.8674                   21206651.4614
 -37490138.68747 -29197647.71145  22716435.2114                   22716433.0274
 -12952674.02748 -10079743.75846  22244964.1254                   22244960.9804
  -5816023.82447  -4518175.15645  23210101.0394                   23210099.9264
 -34569419.30948 -26920603.40246  20953379.1724                   20953377.3164
 -21321017.77047 -16598251.46144  23338741.3674                   23338740.5474
 -27828371.55148 -21669222.14847  20778439.9694                   20778435.2704
 11  8  3  1  1 30.0000000  0  8G09G10G17G12G05G04G27G02
 -13862001.73047 -10786309.44544  22996565.9924                   22996565.4344
 -21832912.42648 -16999313.66446  21193589.6564                   21193587.6024
 -37474089.34447 -29185141.75445  22719490.0164                   22719487.1484
 -13062259.11748 -10165134.71146  22224109.7974                   22224107.4844
  -5949508.98847  -4622189.44145  23184698.4064                   23184698.1134
 -34535572.89148 -26894229.58246  20959820.0314                   20959817.9804
 -21295575.43747 -16578426.35244  23343583.2734                   23343582.2234
 -27878044.46148 -21707928.30946  20768987.6804                   20768983.1374
 11  8  3  1  2  0.0000000  0  8G09G10G17G12G05G04G27G02
 -13826912.66447 -10758967.35544  23003242.9064                   23003242.6484
 -21900921.36348 -17052307.62146  21180648.2814                   21180646.0234
 -37457833.58647 -29172474.95345  22722582.9694                   22722581.2544
 -13171467.84848 -10250232.39846  22203328.7034                   22203325.6764
  -6082785.25447  -4726040.95345  23159337.0864                   23159336.6134
 -34501369.50048 -26867577.59846  20966328.8834                   20966326.0904
 -21269827.85547 -16558363.38744  23348482.3984                   23348482.9494
 -27927287.23048 -21746299.28546  20759617.0944                   20759612.1764
 11  8  3  1  2 30.0000000  0  8G09G10G17G12G05G04G27G02
 -13791380.18047 -10731279.75444  23010004.4064                   23010003.7464
 -21968274.96148 -17104790.92646  21167831.7344                   21167829.2664
 -37441360.82447 -29159639.05945  22725717.6024                   22725715.8164
 -13280287.70748 -10335027.07846  22182621.3594                   22182618.2304
  -6215840.40647  -4829720.16045  23134017.5084                   23134016.2774
 -34466801.92248 -26840641.83646  20972906.7194                   20972904.1564
 -21243768.21547 -16538057.27744  23353441.9454                   23353441.4304
 -27976091.29348 -21784328.41447  20750329.7194                   20750324.6884
 11  8  3  1  3  0.0000000  0  8G09G10G17G12G05G04G27G02
 -13755399.26247 -10703242.73445  23016852.0234                   23016850.9694
 -22034963.10948 -17156755.69946  21155141.0474                   21155138.9924
 -37424663.46547 -29146628.15245  22728895.0944                   22728893.5634
 -13388708.42248 -10419510.72746  22161989.0784                   22161986.3014
  -6348663.22747  -4933218.35545  23108741.9304                   23108740.3054
 -34431864.46148 -26813417.85546  20979554.9844                   20979552.6214
 -21217390.89147 -16517503.61744  23358460.7814                   23358460.8834
 -28024448.85948 -21822009.62547  20741127.6254                   20741123.0164
 11  8  3  1  3 30.0000000  0  8G09G10G17G12G05G04G27G02
 -13718966.08647 -10674853.30945  23023784.9924                   23023784.1884
 -22100976.52048 -17208194.70346  21142579.0634                   21142576.6914
 -37407733.40647 -29133435.92645  22732116.7584                   22732115.0554
 -13496720.02048 -10503675.58646  22141435.0004                   22141432.2274
  -6481243.50447  -5036527.52745  23083512.9534                   23083511.5984
 -34396551.96548 -26785901.64146  20986274.7974                   20986272.4024
 -21190691.25447 -16496698.82444  23363542.5004                   23363541.7664
 -28072353.73448 -21859338.09446  20732011.6254                   20732006.7304
 11  8  3  1  4  0.0000000  0  8G09G10G17G12G05G04G27G02
 -13682081.67647 -10646112.25445  23030804.4454                   23030803.0124
 -22166311.67648 -17259105.19146  21130146.3984                   21130143.9344
 -37390567.75047 -29120060.11345  22735383.4534                   22735381.2584
 -13604317.75447 -10587517.96546  22120959.8204                   22120956.9694
  -6613576.01647  -5139643.64545  23058330.8134                   23058329.5744
 -34360864.84048 -26758093.50046  20993066.0084                   20993063.3984
 -21163670.09447 -16475643.48044  23368684.2584                   23368683.2304
 -28119804.22348 -21896312.48046  20722981.8054                   20722977.1094
 11  8  3  1  4 30.0000000  0  8G09G10G17G12G05G04G27G02
 -13644747.00847 -10617020.37545  23037908.6174                   23037907.6334
 -22230963.87548 -17309483.50046  21117843.5394                   21117840.8444
 -37373163.35547 -29106498.26645  22738695.8524                   22738693.0664
 -13711496.41847 -10671033.77746  22100563.9064                   22100561.6994
  -6745655.50447  -5242562.58245  23033196.5784                   23033195.7974
 -34324802.78948 -26729993.21946  20999928.1564                   20999925.5824
 -21136327.69947 -16454337.80944  23373887.2274                   23373887.5004
 -28166798.80148 -21932931.62947  20714039.2194                   20714034.4224
 11  8  3  1  5  0.0000000  0  8G09G10G17G12G05G04G27G02
 -13606964.52047 -10587579.53144  23045098.6884                   23045097.9774
 -22294930.36348 -17359327.50046  21105670.8674                   21105668.5944
 -37355518.58647 -29092749.11745  22742053.0394                   22742051.5744
 -13818252.48447 -10754220.28946  22080249.3984                   22080246.5084
  -6877477.99647  -5345281.28145  23008111.9304                   23008110.5084
 -34288367.38748 -26701602.01246  21006861.8754                   21006859.4184
 -21108665.78147 -16432783.16444  23379151.0004                   23379151.4964
 -28213337.37148 -21969195.43047  20705183.5004                   20705178.4184
 11  8  3  1  5 30.0000000  0  8G09G10G17G12G05G04G27G02
 -13568733.78547 -10557789.43045  23052373.6484                   23052372.8164
 -22358205.78548 -17408633.00446  21093629.6954                   21093627.7424
 -37337629.57447 -29078809.63745  22745457.3444                   22745454.8444
 -13924579.97347 -10837072.85545  22060015.9774                   22060013.0354
  -7009036.97747  -5447794.62945  22983077.1254                   22983075.7384
 -34251557.30148 -26672918.84446  21013866.2894                   21013864.2734
 -21080683.34046 -16410978.77744  23384476.2424                   23384476.5594
 -28259416.80948 -22005101.47346  20696414.4534                   20696409.8094
 11  8  3  1  6  0.0000000  0  8G09G10G17G12G05G04G27G02
 -13530057.52347 -10527652.15245  23059733.4454                   23059732.7304
 -22420787.75448 -17457398.14146  21081720.7894                   21081718.9574
 -37319494.78147 -29064678.64545  22748908.9694                   22748906.2154
 -14030475.70747 -10919588.98446  22039864.4454                   22039861.9264
  -7140328.89547  -5550099.89145  22958092.4534                   22958092.2304
 -34214373.91448 -26643944.78546  21020942.2034                   21020940.0434
 -21052382.20746 -16388926.05144  23389861.1094                   23389862.0554
 -28305037.34848 -22040649.92647  20687733.3054                   20687728.4534
 11  8  3  1  6 30.0000000  0  8G09G10G17G12G05G04G27G02
 -13490936.76247 -10497168.50845  23067177.7344                   23067177.2734
 -22482672.18748 -17505619.75446  21069944.3914                   21069942.2464
 -37301111.35947 -29050353.92645  22752406.8594                   22752404.5164
 -14135934.93747 -11001764.97346  22019796.5084                   22019793.0234
  -7271348.45347  -5652192.93745  22933160.2424                   22933159.2894
 -34176817.68448 -26614680.19546  21028088.8444                   21028086.7624
 -21023763.05146 -16366625.51644  23395307.4924                   23395308.1374
 -28350197.71148 -22075839.80147  20679139.6884                   20679134.5824
 11  8  3  1  7  0.0000000  0  8G09G10G17G12G05G04G27G02
 -13451374.88347 -10466341.14845  23074705.8914                   23074706.0474
 -22543857.62148 -17553296.68446  21058301.3054                   21058299.1804
 -37282479.30947 -29035835.46945  22755952.8204                   22755950.3164
 -14240954.78148 -11083598.58246  21999811.9534                   21999808.9184
  -7402092.80547  -5754071.53545  22908280.0084                   22908279.3914
 -34138890.97348 -26585126.91046  21035306.1094                   21035303.4304
 -20994828.68447 -16344079.34444  23400813.7274                   23400813.6884
 -28394898.50448 -22110671.57047  20670633.3524                   20670628.2274
 11  8  3  1  7 30.0000000  0  8G09G10G17G12G05G04G27G02
 -13411373.83247 -10435171.57045  23082317.7424                   23082318.0864
 -22604340.82447 -17600426.42646  21046791.9064                   21046789.6914
 -37263596.35947 -29021121.48445  22759545.3674                   22759542.8834
 -14345531.34447 -11165086.78546  21979911.3204                   21979908.8554
  -7532557.25047  -5855732.02045  22883453.2734                   22883452.8674
 -34100594.45348 -26555285.47746  21042593.7664                   21042591.3954
 -20965580.24646 -16321288.43044  23406379.2664                   23406380.4144
 -28439138.99648 -22145144.66047  20662214.6254                   20662209.6174
 11  8  3  1  8  0.0000000  0  8G09G10G17G12G05G04G27G02
 -13370936.64847 -10403662.19144  23090013.2114                   23090012.8324
 -22664119.69548 -17647007.33646  21035415.8364                   21035413.7504
 -37244461.65247 -29006211.34045  22763186.7734                   22763185.0044
 -14449662.04348 -11246227.55546  21960095.8984                   21960093.3014
  -7662738.87547  -5957172.12945  22858681.3674                   22858679.8244
 -34061930.16848 -26525157.47346  21049951.1414                   21049948.8954
 -20936020.34046 -16298254.82844  23412005.4534                   23412005.4384
 -28482919.70348 -22179259.49247  20653883.4064                   20653878.6414
 11  8  3  1  8 30.0000000  0  8G09G10G17G12G05G04G27G02
 -13330066.02046 -10371815.05144  23097790.2114                   23097790.7544
 -22723192.17248 -17693037.81646  21024174.9924                   21024172.9534
 -37225073.81247 -28991103.95745  22766875.8524                   22766873.8754
 -14553343.14548 -11327017.99646  21940366.2194                   21940363.3524
  -7792633.55547  -6058388.67245  22833962.8204                   22833961.0744
 -34022899.71148 -26494744.14146  21057378.4924                   21057376.3324
 -20906150.67646 -16274979.85244  23417688.3754                   23417689.0044
 -28526241.05148 -22213016.37147  20645639.7974                   20645634.6254
 11  8  3  1  9  0.0000000  0  8G09G10G17G12G05G04G27G02
 -13288765.64847 -10339633.04344  23105649.7894                   23105650.0314
 -22781557.00048 -17738516.86746  21013068.5314                   21013066.4774
 -37205433.03147 -28975799.46545  22770613.6094                   22770611.4414
 -14656573.08648 -11407456.88346  21920721.9224                   21920719.4064
  -7922239.39847  -6159380.14845  22809299.4224                   22809297.8014
 -33983506.28948 -26464047.98046  21064874.9224                   21064872.2424
 -20875974.90647 -16251466.37144  23423431.3444                   23423431.9414
 -28569104.23848 -22246416.25047  20637482.8594                   20637478.1414
 11  8  3  1  9 30.0000000  0  8G09G10G17G12G05G04G27G02
 -13247038.91847 -10307118.77744  23113590.1254                   23113589.8914
 -22839212.23048 -17783442.98046  21002097.1094                   21002094.9184
 -37185538.57447 -28960297.32045  22774399.5004                   22774396.9574
 -14759349.11347 -11487542.07446  21901164.5944                   21901161.8634
  -8051553.13347  -6260144.00445  22784691.4454                   22784690.3404
 -33943751.82048 -26433070.48446  21072439.9534                   21072437.9964
 -20845495.57446 -16227716.35244  23429231.2584                   23429231.4774
 -28611509.91048 -22279459.60947  20629413.6414                   20629408.8794
 11  8  3  1 10  0.0000000  0  8G09G10G17G12G05G04G27G02
 -13204887.78947 -10274273.85244  23121611.3524                   23121611.1174
 -22896155.10548 -17827814.03146  20991261.1884                   20991258.7384
 -37165388.54747 -28944596.01245  22778234.2664                   22778231.1844
 -14861667.29347 -11567270.49646  21881693.8914                   21881691.3364
  -8180570.25047  -6360676.72745  22760140.6884                   22760139.2974
 -33903636.96548 -26401812.17646  21080073.4384                   21080071.6684
 -20814713.94547 -16203730.74644  23435089.0554                   23435089.7934
 -28653457.51248 -22312146.03546  20621431.1094                   20621426.5514
 11  8  3  1 10 30.0000000  0  8G09G10G17G12G05G04G27G02
 -13162316.38347 -10241101.43044  23129713.3444                   23129712.5044
 -22952384.87148 -17871629.39846  20980561.0314                   20980559.3794
 -37144982.73047 -28928695.39145  22782117.4224                   22782114.6214
 -14963525.53948 -11646640.53546  21862311.1254                   21862308.0704
  -8309288.21147  -6460976.34045  22735646.4774                   22735644.8674
 -33863164.64548 -26370275.30946  21087775.0164                   21087772.9924
 -20783633.47747 -16179512.28544  23441003.6954                   23441004.0274
 -28694948.17248 -22344476.41046  20613535.6564                   20613530.8284
 11  8  3  1 11  0.0000000  0  8G09G10G17G12G05G04G27G02
 -13119327.88747 -10207603.96944  23137892.6024                   23137893.1374
 -23007899.51648 -17914887.53546  20969996.9144                   20969994.4104
 -37124320.50047 -28912594.97345  22786048.8054                   22786046.6094
 -15064921.34048 -11725650.22746  21843015.7974                   21843013.4774
  -8437704.19147  -6561040.64845  22711209.6174                   22711208.0124
 -33822337.09848 -26338461.64846  21095544.4924                   21095542.5234
 -20752256.54747 -16155062.80144  23446975.0164                   23446974.4804
 -28735982.88348 -22376451.49247  20605727.0784                   20605722.3634
 11  8  3  1 11 30.0000000  0  8G09G10G17G12G05G04G27G02
 -13075925.68447 -10173784.17244  23146152.3054                   23146151.4344
 -23062697.50848 -17957587.23046  20959568.9694                   20959566.5004
 -37103401.15247 -28896294.21145  22790029.9384                   22790028.1484
 -15165851.70348 -11804297.25446  21823809.3834                   21823806.6954
  -8565814.85247  -6660867.03945  22686830.4534                   22686828.8914
 -33781156.62948 -26306372.99246  21103380.5314                   21103378.8554
 -20720585.81246 -16130384.38744  23453001.0944                   23453001.6254
 -28776562.61348 -22408072.05147  20598005.0004                   20597999.9574
 11  8  3  1 12  0.0000000  0  8G09G10G17G12G05G04G27G02
 -13032115.46147 -10139646.42644  23154488.9614                   23154487.8834
 -23116779.93048 -17999729.34846  20949277.4454                   20949275.0234
 -37082226.49247 -28879794.51245  22794058.9534                   22794057.0434
 -15266316.46548 -11882581.46146  21804691.6484                   21804688.4884
  -8693619.93747  -6760455.32845  22662510.2274                   22662508.5084
 -33739628.04348 -26274013.07046  21111283.2344                   21111281.0704
 -20688626.41846 -16105481.06244  23459082.4454                   23459083.2774
 -28816690.74648 -22439340.71147  20590368.9064                   20590364.1884
 11  8  3  1 12 30.0000000  0  8G09G10G17G12G05G04G27G02
 -12987899.04747 -10105192.17244  23162902.4304                   23162902.8444
 -23170143.96948 -18041311.68746  20939122.6884                   20939120.1724
 -37060794.49247 -28863094.27045  22798137.3594                   22798135.2384
 -15366312.27347 -11960500.25446  21785662.7974                   21785659.7934
  -8821114.71147  -6859801.82045  22638248.9064                   22638246.9804
 -33697751.78148 -26241382.24646  21119252.0084                   21119249.9344
 -20656379.44547 -16080353.66044  23465219.6094                   23465220.5234
 -28856366.23848 -22470256.66847  20582819.0164                   20582814.0204
 11  8  3  1 13  0.0000000  0  8G09G10G17G12G05G04G27G02
 -12943280.80547 -10070424.81244  23171394.4144                   23171393.8554
 -23222789.10248 -18082333.84846  20929104.7034                   20929102.7734
 -37039105.71947 -28846193.95745  22802265.0004                   22802262.5744
 -15465837.08247 -12038052.03146  21766723.9304                   21766721.0314
  -8948297.44947  -6958905.15245  22614046.5474                   22614044.7734
 -33655531.21548 -26208483.13346  21127286.4384                   21127284.5904
 -20623848.73446 -16055005.14844  23471409.9774                   23471410.8134
 -28895591.00048 -22500821.40247  20575354.7664                   20575349.4104
 11  8  3  1 13 30.0000000  0  8G09G10G17G12G05G04G27G02
 -12898264.78547 -10035347.48444  23179960.3134                   23179960.7304
 -23274714.24648 -18122794.98046  20919223.4614                   20919221.6954
 -37017160.03547 -28829093.46145  22806441.3284                   22806438.8954
 -15564888.98047 -12115235.30546  21747875.2344                   21747872.3364
  -9075165.62947  -7057763.39845  22589904.2504                   22589902.9064
 -33612969.19548 -26175317.95346  21135386.0084                   21135383.5084
 -20591037.88746 -16029438.37944  23477653.9384                   23477654.8404
 -28934366.44948 -22531036.02047  20567976.2424                   20567971.1334
 11  8  3  1 14  0.0000000  0  8G09G10G17G12G05G04G27G02
 -12852855.13347  -9999963.41444  23188602.2114                   23188601.7074
 -23325919.30548 -18162695.01246  20909479.5864                   20909477.2034
 -36994957.35947 -28811792.69945  22810666.1334                   22810663.7894
 -15663466.33648 -12192048.80946  21729116.5394                   21729113.2194
  -9201717.19947  -7156374.93045  22565822.3444                   22565820.9454
 -33570068.91448 -26141889.16846  21143549.2664                   21143547.3134
 -20557950.43046 -16003656.06243  23483949.4614                   23483950.8204
 -28972694.42248 -22560901.96547  20560682.3984                   20560677.6914
 11  8  3  1 14 30.0000000  0  8G09G10G17G12G05G04G27G02
 -12807056.03947  -9964275.88344  23197317.1334                   23197315.7154
 -23376403.53948 -18202033.36746  20899872.6564                   20899870.3524
 -36972498.75047 -28794292.52745  22814940.5084                   22814937.5554
 -15761567.64847 -12268491.37546  21710448.4614                   21710445.2274
  -9327949.77747  -7254737.89545  22541801.3444                   22541799.6684
 -33526833.31648 -26108199.11746  21151776.8594                   21151775.0164
 -20524589.93446 -15977660.96144  23490297.9384                   23490299.7114
 -29010576.80548 -22590420.68447  20553473.5704                   20553468.5664
 11  8  3  1 15  0.0000000  0  8G09G10G17G12G05G04G27G02
 -12760871.63347  -9928288.09444  23206105.6174                   23206104.4184
 -23426166.23048 -18240809.47346  20890403.1024                   20890401.1214
 -36949783.80547 -28776592.58645  22819262.7114                   22819260.6914
 -15859190.44147 -12344561.06246  21691871.6724                   21691868.7154
  -9453860.89147  -7352850.36745  22517840.9304                   22517838.8014
 -33483265.05548 -26074249.83646  21160067.4614                   21160065.4064
 -20490959.60246 -15951455.61343  23496697.7894                   23496698.0824
 -29048014.87948 -22619593.19947  20546349.0704                   20546344.3054
 11  8  3  1 15 30.0000000  0  8G09G10G17G12G05G04G27G02
 -12714306.19947  -9892003.41844  23214966.7504                   23214966.5124
 -23475207.01648 -18279023.05146  20881070.9534                   20881068.4264
 -36926812.88347 -28758693.19545  22823634.0004                   22823631.3594
 -15956333.45747 -12420256.89546  21673385.9144                   21673383.1134
  -9579448.88747  -7450711.08245  22493941.9454                   22493940.1024
 -33439367.51248 -26040043.98046  21168421.2894                   21168419.1644
 -20457063.10946 -15925042.84844  23503148.3674                   23503149.2974
 -29085010.52348 -22648420.97347  20539308.8834                   20539304.2854
 11  8  3  1 16  0.0000000  0  9G09G25G10G17G12G05G04G27G02
 -12667364.91847  -9855425.87544  23223898.9774                   23223898.9804
   4535959.39556   3545420.09053  24575601.8914                   24575602.5984
 -23523526.55148 -18316674.62546  20871876.2894                   20871874.2194
 -36903587.30147 -28740595.35545  22828053.5164                   22828051.2424
 -16052996.14547 -12495578.45746  21654991.2114                   21654989.0044
  -9704712.11747  -7548318.71945  22470105.2814                   22470104.0044
 -33395144.79348 -26005584.73446  21176836.7194                   21176834.8984
 -20422905.17647 -15898426.37144  23509648.9614                   23509649.0594
 -29121566.59048 -22676906.19547  20532352.8134                   20532348.2234
 11  8  3  1 16 30.0000000  0  9G09G25G10G17G12G05G04G27G02
 -12620054.79347  -9818560.92244  23232902.4614                   23232902.4414
   4405874.37146   3444055.23443  24550847.0234                   24550848.9184
 -23571126.73048 -18353765.65246  20862818.3054                   20862815.9654
 -36880109.65247 -28722301.11345  22832520.6174                   22832518.8954
 -16149178.85547 -12570526.00046  21636688.1724                   21636685.0704
  -9829651.30947  -7645673.85245  22446329.7734                   22446328.5004
 -33350602.17248 -25970876.21546  21185312.7504                   21185310.6214
 -20388491.89546 -15871610.92644  23516197.7114                   23516197.0434
 -29157687.24248 -22705052.15247  20525479.3134                   20525474.5164
 11  8  3  1 17  0.0000000  0  9G09G25G10G17G12G05G04G27G02
 -12572381.98847  -9781413.35945  23241974.4774                   23241974.1054
   4276004.80946   3342858.26243  24526133.1954                   24526135.2464
 -23618009.81648 -18390297.90246  20853896.5944                   20853894.0554
 -36856382.63747 -28703812.55945  22837036.3204                   22837033.9534
 -16244882.73047 -12645100.42646  21618476.3674                   21618472.8094
  -9954266.18047  -7742776.27745  22422616.7274                   22422615.4454
 -33305745.16048 -25935922.71946  21193848.6484                   21193846.4104
 -20353829.00046 -15844600.97344  23522793.7734                   23522793.9654
 -29193376.55548 -22732861.98846  20518688.1174                   20518682.8754
 11  8  3  1 17 30.0000000  0  9G09G25G10G17G12G05G04G27G02
 -12524352.69147  -9743988.02345  23251113.7664                   23251114.2504
   4146350.44546   3241828.94944  24501461.6954                   24501463.0314
 -23664177.15247 -18426272.43046  20845111.4144                   20845108.8404
 -36832408.30947 -28685131.28945  22841598.2814                   22841596.3054
 -16340107.84047 -12719301.80546  21600355.8834                   21600352.7814
 -10078557.09047  -7839626.25845  22398964.8984                   22398963.2424
 -33260578.55947 -25900727.98446  21202443.0474                   21202441.5634
 -20318921.94146 -15817400.78543  23529435.8134                   23529436.1334
 -29228637.96948 -22760338.39847  20511977.4144                   20511973.3794
 11  8  3  1 18  0.0000000  0  9G09G25G10G17G12G05G04G27G02
 -12475970.76647  -9706287.89845  23260321.2664                   23260321.1094
   4016913.33247   3140968.93444  24476830.8914                   24476830.9694
 -23709627.96548 -18461688.63346  20836462.1884                   20836460.2304
 -36808186.61347 -28666257.25445  22846207.6804                   22846205.0904
 -16434851.84448 -12793128.28946  21582326.6724                   21582323.8984
 -10202521.00047  -7936221.45345  22375374.7194                   22375372.8444
 -33215105.16848 -25865294.19146  21211096.8204                   21211094.8634
 -20283773.93047 -15790012.80144  23536124.8914                   23536124.9694
 -29263473.07048 -22787482.61347  20505348.9384                   20505343.9924
 11  8  3  1 18 30.0000000  0  9G09G25G10G17G12G05G04G27G02
 -12427237.38347  -9668313.93044  23269594.4454                   23269595.0594
   3887698.23447   3040281.92644  24452240.8984                   24452242.6724
 -23754359.14148 -18496544.06646  20827950.1094                   20827947.9884
 -36783714.73847 -28647188.27045  22850864.4614                   22850862.5864
 -16529110.23848 -12866576.37546  21564389.9384                   21564387.0664
 -10326152.90247  -8032557.93045  22351848.0554                   22351846.6914
 -33169324.78948 -25829621.18446  21219808.5784                   21219806.6054
 -20248385.46947 -15762437.47344  23542858.7734                   23542858.9494
 -29297880.62548 -22814293.69547  20498801.0634                   20498796.5904
 11  8  3  1 19  0.0000000  0  9G09G25G10G17G12G05G04G27G02
 -12378155.96947  -9630068.71944  23278934.1564                   23278934.5084
   3758707.73447   2939769.93044  24427695.3674                   24427696.2384
 -23798369.44948 -18530837.79746  20819575.3594                   20819572.9534
 -36758991.87547 -28627923.72745  22855569.0394                   22855566.5084
 -16622880.47348 -12939644.06646  21546546.1174                   21546542.8134
 -10449449.66447  -8128633.25045  22328386.2974                   22328384.6954
 -33123239.44148 -25793710.53946  21228578.1174                   21228576.2384
 -20212759.32847 -15734676.92644  23549638.7194                   23549639.4144
 -29331861.25048 -22840772.09047  20492335.0234                   20492330.0664
 11  8  3  1 19 30.0000000  0  9G09G25G10G17G12G05G04G27G02
 -12328729.38747  -9591554.58644  23288339.9064                   23288340.1914
   3629944.54747   2839435.03544  24403192.2194                   24403193.8204
 -23841657.11748 -18564568.43046  20811337.8834                   20811335.1524
 -36734017.08247 -28608462.86345  22860321.0474                   22860318.9224
 -16716159.79748 -13012329.25046  21528795.5554                   21528792.6724
 -10572407.89547  -8224444.79745  22304987.8444                   22304986.2344
 -33076851.32048 -25757563.97346  21237405.7194                   21237403.4694
 -20176897.93047 -15706733.07844  23556463.3134                   23556464.5664
 -29365415.48048 -22866918.23847  20485950.0164                   20485945.3444
 11  8  3  1 20  0.0000000  0  9G09G25G10G17G12G05G04G27G02
 -12278962.69547  -9552775.43044  23297810.4304                   23297810.5044
   3501409.79347   2739278.11343  24378732.6954                   24378733.6094
 -23884222.64547 -18597736.35946  20803238.4454                   20803235.5124
 -36708791.43047 -28588806.52745  22865121.3834                   22865119.6844
 -16808946.71548 -13084630.73046  21511139.0474                   21511135.3524
 -10695025.99247  -8319991.28545  22281654.7584                   22281652.2584
 -33030163.55947 -25721183.91046  21246290.2894                   21246288.0204
 -20140805.28947 -15678609.02744  23563330.7664                   23563332.0354
 -29398545.94948 -22892734.17647  20479645.2424                   20479640.5634
 11  8  3  1 20 30.0000000  0  9G09G25G10G17G12G05G04G27G02
 -12228858.99647  -9513733.68444  23307344.8674                   23307345.0354
   3373106.14147   2639301.27043  24354318.0314                   24354318.6914
 -23926065.09448 -18630340.83646  20795275.4614                   20795273.3674
 -36683314.20347 -28568954.14545  22869970.4304                   22869968.4414
 -16901239.07048 -13156546.84046  21493576.2034                   21493572.8554
 -10817300.90647  -8415270.36345  22258385.7274                   22258384.1374
 -32983178.42248 -25684572.12946  21255231.3204                   21255228.8984
 -20104484.17646 -15650306.98044  23570242.3054                   23570244.0234
 -29431253.63348 -22918220.67247  20473421.2034                   20473416.1374
 11  8  3  1 21  0.0000000  0  9G09G25G10G17G12G05G04G27G02
 -12178421.34047  -9474431.69944  23316942.8204                   23316943.8094
   3245036.61747   2539506.83643  24329947.0394                   24329947.4964
 -23967182.89848 -18662380.67246  20787451.0864                   20787448.5784
 -36657584.26647 -28548904.86745  22874866.3284                   22874863.6644
 -16993033.55148 -13228074.97746  21476108.2194                   21476105.2774
 -10939229.40647  -8510279.50446  22235184.1954                   22235182.3204
 -32935897.32048 -25647729.73846  21264228.4534                   21264226.5514
 -20067936.85246 -15621828.67244  23577197.8984                   23577198.8794
 -29463538.73048 -22943377.88747  20467277.4304                   20467272.5474
 11  8  3  1 21 30.0000000  0  9G09G25G10G17G12G05G04G27G02
 -12127653.24646  -9434872.24644  23326604.0314                   23326603.9534
   3117203.68847   2439896.77743  24305621.7894                   24305622.1454
 -24007575.09848 -18693855.09046  20779764.9694                   20779762.3874
 -36631601.11747 -28528658.27745  22879810.4774                   22879808.8444
 -17084328.00448 -13299213.48846  21458735.4304                   21458732.7814
 -11060808.32047  -8605016.24646  22212048.1174                   22212046.5554
 -32888322.73048 -25610658.65246  21273281.8054                   21273279.6914
 -20031166.05146 -15593176.22344  23584194.5234                   23584195.9414
 -29495402.33248 -22968206.66847  20461214.2584                   20461209.3204
 11  8  3  1 22  0.0000000  0  9G09G25G10G17G12G05G04G27G02
 -12076557.94547  -9395057.83244  23336327.2664                   23336327.6764
   2989610.03547   2340473.15643  24281341.2974                   24281340.7894
 -24047240.65648 -18724763.30546  20772216.6334                   20772214.1844
 -36605364.24647 -28508213.96945  22884803.6024                   22884801.5904
 -17175119.87548 -13369960.37546  21441458.5864                   21441455.3874
 -11182034.46147  -8699478.09846  22188979.5864                   22188977.6884
 -32840456.62148 -25573360.41446  21282390.3914                   21282388.4304
 -19994174.39546 -15564351.66844  23591234.4454                   23591235.5824
 -29526845.25448 -22992707.64147  20455230.9454                   20455226.2344
 11  8  3  1 22 30.0000000  0  9G09G25G10G17G12G05G04G27G02
 -12025140.41446  -9354992.31644  23346111.0394                   23346112.5634
   2862256.62146   2241236.76643  24257106.5784                   24257106.4964
 -24086180.21148 -18755105.80146  20764806.9144                   20764804.3054
 -36578874.44147 -28487572.55545  22889844.5944                   22889842.3954
 -17265408.22347 -13440314.89146  21424277.1334                   21424273.9924
 -11302906.37947  -8793663.93746  22165978.4064                   22165976.5864
 -32792302.54348 -25535837.78546  21291553.6484                   21291551.4654
 -19956966.26646 -15535358.41444  23598314.5164                   23598315.8984
 -29557870.15648 -23016882.89147  20449326.8444                   20449321.9804
 11  8  3  1 23  0.0000000  0  9G09G25G10G17G12G05G04G27G02
 -11973405.78946  -9314679.71943  23355955.6334                   23355956.4494
   2735144.18846   2142188.13343  24232918.2664                   24232917.6804
 -24124395.05948 -18784883.57846  20757534.3594                   20757531.9104
 -36552132.46947 -28466734.67245  22894932.8524                   22894931.2114
 -17355192.27347 -13510276.45746  21407191.7974                   21407188.4694
 -11423423.22347  -8887573.09846  22143044.8834                   22143043.1254
 -32743864.43748 -25498093.82046  21300771.2274                   21300769.0044
 -19919546.35546 -15506200.16443  23605434.7504                   23605436.6954
 -29588479.71548 -23040734.48447  20443501.9774                   20443497.6024
 11  8  3  1 23 30.0000000  0  9G09G25G10G17G12G05G04G27G02
 -10345939.22746  -8046524.06244  23665652.7424                   23665652.9654
   4183699.27346   3270932.37543  24508568.6484                   24508568.5204
 -22586462.91848 -17586494.88346  21050193.4454                   21050190.7544
 -34949719.52747 -27218101.20745  23199862.4304                   23199860.2584
 -15869046.74647 -12352240.94946  21689995.5864                   21689992.6764
  -9968157.98447  -7753600.10546  22419972.2114                   22419970.9104
 -31119726.30948 -24232531.65646  21609834.2664                   21609832.3634
 -18306498.57446 -14249279.95344  23912388.0004                   23912390.0354
 -28043254.24248 -21836662.67647  20737548.5234                   20737543.8874
 11  8  3  1 24  0.0000000  0  9G09G25G10G17G12G05G04G27G02
 -10293580.34047  -8005724.99644  23675616.6564                   23675616.4924
   4057076.60546   3172265.37744  24484472.8754                   24484473.8284
 -22623225.27048 -17615140.85546  21043197.7734                   21043195.3244
 -34922472.89547 -27196870.07845  23205047.1334                   23205045.1604
 -15957814.96947 -12421410.96146  21673103.8524                   21673100.7854
 -10087955.35247  -7846948.63346  22397175.4454                   22397173.6804
 -31070726.46948 -24194349.97746  21619158.9304                   21619156.1484
 -18268662.79346 -14219797.66443  23919588.0704                   23919589.4344
 -28073036.19148 -21859869.38747  20731881.3984                   20731876.3674
 11  8  3  1 24 30.0000000  0  9G09G25G10G17G12G05G04G27G02
 -10240915.25447  -7964687.35244  23685638.8134                   23685638.5394
   3930701.98046   3073791.66444  24460424.9844                   24460425.2034
 -22659261.12948 -17643220.72346  21036340.2194                   21036337.7584
 -34894973.46547 -27175441.96545  23210280.2974                   23210278.0354
 -16046072.43747 -12490182.98446  21656308.8594                   21656305.5944
 -10207389.18747  -7940013.88746  22374448.2734                   22374446.2154
 -31021449.74648 -24155952.53946  21628536.1334                   21628533.9384
 -18230623.98046 -14190157.14544  23926826.9224                   23926829.1564
 -28102406.63748 -21882755.43447  20726292.3204                   20726287.4104
 11  8  3  1 25  0.0000000  0  9G09G25G10G17G12G05G04G27G02
 -10187947.78147  -7923414.07044  23695718.3594                   23695717.8134
   3804577.56346   2975512.92244  24436423.9064                   24436425.3134
 -22694569.75048 -17670733.92246  21029621.2974                   21029619.0084
 -34867220.94147 -27153816.62545  23215560.6334                   23215559.4804
 -16133817.09847 -12558555.40246  21639611.3594                   21639608.6414
 -10326457.12547  -8032794.03146  22351789.9144                   22351788.0594
 -30971898.32048 -24117341.05146  21637964.9694                   21637963.0664
 -18192385.43447 -14160361.00044  23934104.1024                   23934105.1214
 -28131366.81648 -21905321.80147  20720781.9774                   20720776.7304
 11  8  3  1 25 30.0000000  0  9G09G25G10G17G12G05G04G27G02
 -10134681.18447  -7881907.71544  23705854.1414                   23705854.7304
   3678705.92247   2877431.16044  24412471.5474                   24412471.9534
 -22729150.35948 -17697679.83246  21023041.0474                   21023038.0554
 -34839214.91047 -27131993.75845  23220890.1724                   23220889.0554
 -16221046.64848 -12626526.45346  21623012.1254                   21623008.7734
 -10445156.07447  -8125286.64146  22329202.6484                   22329200.9224
 -30922074.35248 -24078517.18046  21647446.4144                   21647444.3754
 -18153949.61347 -14130411.12144  23941418.3054                   23941419.3674
 -28159917.71148 -21927569.24247  20715348.5394                   20715343.5164
 11  8  3  1 26  0.0000000  0  9G09G25G10G17G12G05G04G27G02
 -10081120.67247  -7840172.35544  23716046.3524                   23716047.2664
   3553087.82047   2779546.93844  24388567.3984                   24388567.7504
 -22763004.18748 -17724059.41446  21016598.5554                   21016596.0204
 -34810956.91447 -27109974.54745  23226267.8914                   23226265.2464
 -16307760.36747 -12694095.55546  21606510.7274                   21606507.8404
 -10563484.93047  -8217490.87946  22306685.2814                   22306682.9304
 -30871981.89148 -24039484.10946  21656978.8524                   21656976.2114
 -18115321.34847 -14100311.28543  23948769.3834                   23948770.0944
 -28188062.24648 -21949500.03547  20709992.4534                   20709987.7934
 11  8  3  1 26 30.0000000  0  9G09G25G10G17G12G05G04G27G02
 -10027271.47347  -7798212.03144  23726293.5164                   23726294.6804
   3427724.06347   2681860.95344  24364711.1094                   24364712.1214
 -22796132.23048 -17749873.45346  21010294.6884                   21010291.6724
 -34782447.96947 -27087759.79745  23231692.5554                   23231690.7974
 -16393957.53147 -12761262.14846  21590108.0234                   21590105.2344
 -10681442.46947  -8309405.78146  22284238.7114                   22284236.6174
 -30821624.58648 -24000244.67246  21666561.6724                   21666559.4734
 -18076504.97346 -14070064.87143  23956155.6804                   23956156.0434
 -28215802.85248 -21971116.08247  20704713.4774                   20704708.8954
 11  8  3  1 27  0.0000000  0  9G09G25G10G17G12G05G04G27G02
  -9973136.45347  -7756029.00444  23736595.7734                   23736596.3594
   3302617.82047   2584375.61744  24340904.4534                   24340905.3524
 -22828533.36748 -17775121.05546  21004129.1564                   21004126.2234
 -34753687.09047 -27065348.73045  23237166.1724                   23237163.6564
 -16479635.49247 -12828024.17246  21573804.5394                   21573801.4844
 -10799025.21947  -8401028.63346  22261863.3134                   22261861.4964
 -30771004.19948 -23960800.21946  21676194.3674                   21676192.0314
 -18037502.68746 -14039673.60943  23963577.3054                   23963579.2114
 -28243140.59848 -21992418.21147  20699511.5944                   20699506.8914
 11  8  3  1 27 30.0000000  0  9G09G25G10G17G12G05G04G27G02
  -9918721.44547  -7713627.75444  23746950.8984                   23746950.4344
   3177769.43447   2487091.19944  24317146.2814                   24317147.0824
 -22860209.36748 -17799803.63746  20998100.8524                   20998098.5084
 -34724675.61347 -27042742.40245  23242686.9454                   23242685.5514
 -16564793.72747 -12894381.22346  21557599.2424                   21557596.3284
 -10916232.34847  -8492358.80546  22239559.8204                   22239557.7194
 -30720124.74648 -23921153.89145  21685875.8914                   21685874.1294
 -17998319.56246 -14009141.42243  23971033.4694                   23971035.7074
 -28270078.74248 -22013408.95747  20694385.6174                   20694380.6414
 11  8  3  1 28  0.0000000  0  9G09G25G10G17G12G05G04G27G02
  -9864030.86347  -7671011.77344  23757358.2734                   23757357.8754
   3053180.36747   2390008.88744  24293437.6094                   24293438.8524
 -22891160.85548 -17823921.64546  20992211.1484                   20992208.8834
 -34695414.52047 -27019941.55144  23248254.3594                   23248252.7814
 -16649431.12148 -12960332.42246  21541493.3134                   21541490.1844
 -11033061.93447  -8583394.77046  22217327.0864                   22217325.8364
 -30668989.25448 -23881308.05145  21695606.7274                   21695604.9384
 -17958959.24247 -13978471.16043  23978524.1094                   23978525.1374
 -28296619.30548 -22034089.91447  20689334.6024                   20689329.9184
 11  8  3  1 28 30.0000000  0  9G09G25G10G17G12G05G04G27G02
  -9809069.09447  -7628184.48844  23767816.9224                   23767817.1094
   2928852.03146   2293129.72344  24269778.2814                   24269779.1414
 -22921388.42248 -17847475.56646  20986459.2034                   20986456.5474
 -34665904.54347 -26996946.79345  23253870.5554                   23253868.3714
 -16733546.75448 -13025877.05946  21525486.9064                   21525483.8404
 -11149512.79747  -8674135.62946  22195167.4304                   22195165.0744
 -30617601.45348 -23841265.60545  21705385.2664                   21705383.4804
 -17919425.89847 -13947666.05544  23986046.9694                   23986048.4884
 -28322764.45348 -22054462.75047  20684359.7424                   20684354.7854
 11  8  3  1 29  0.0000000  0  9G09G25G10G17G12G05G04G27G02
  -9753840.55547  -7585149.34444  23778326.6804                   23778327.0514
   2804786.27347   2196455.18444  24246169.4454                   24246170.0394
 -22950892.32048 -17870465.58646  20980844.5784                   20980841.7894
 -34636145.57047 -26973757.98045  23259533.4534                   23259531.1054
 -16817138.72748 -13091013.64146  21509579.7814                   21509577.0864
 -11265582.45347  -8764579.46146  22173080.3754                   22173078.2304
 -30565963.71148 -23801028.42645  21715212.0164                   21715209.5594
 -17879722.75047 -13916728.68743  23993602.4694                   23993604.3914
 -28348515.86748 -22074528.78947  20679459.3834                   20679454.5634
 11  8  3  1 29 30.0000000  0  9G09G25G10G17G12G05G04G27G02
  -9698350.33647  -7541910.33644  23788886.0864                   23788886.3834
   2680984.05147   2099985.97744  24222611.2814                   24222611.2424
 -22979673.78948 -17892892.67246  20975367.6094                   20975365.5634
 -34606138.82047 -26950376.13344  23265243.5314                   23265241.1604
 -16900206.38748 -13155741.67246  21493772.2034                   21493768.7034
 -11381270.10547  -8854725.61346  22151065.6254                   22151064.0164
 -30514080.05148 -23760599.62145  21725084.9224                   21725082.8284
 -17839854.48046 -13885662.57843  24001189.1414                   24001189.3054
 -28373876.45748 -22094290.28147  20674633.2424                   20674628.1994
 11  8  3  1 30  0.0000000  0  9G09G25G10G17G12G05G04G27G02
  -9642602.85547  -7498470.84844  23799493.9614                   23799495.4614
   2557446.76247   2003723.19944  24199102.7974                   24199102.6294
 -23007733.27048 -17914757.17246  20970028.0084                   20970025.3444
 -34575885.06247 -26926801.78544  23271000.6884                   23270998.7544
 -16982749.37548 -13220060.86346  21478065.1644                   21478062.0204
 -11496573.03147  -8944571.98046  22129124.2974                   22129121.9344
 -30461953.37548 -23719981.44146  21735004.6954                   21735002.5554
 -17799824.96946 -13854470.90243  24008806.5234                   24008806.5634
 -28398848.38348 -22113748.91047  20669881.1644                   20669876.7464
 11  8  3  1 30 30.0000000  0  9G09G25G10G17G12G05G04G27G02
  -9586602.97347  -7454834.69944  23810151.0314                   23810151.7304
   2434175.71947   1907667.86744  24175644.5784                   24175645.7734
 -23035071.93048 -17936060.00846  20964825.8364                   20964823.2704
 -34545384.94947 -26903035.46545  23276804.8054                   23276802.4064
 -17064766.02048 -13283969.91446  21462457.5944                   21462454.8244
 -11611490.19147  -9034117.76246  22107255.7274                   22107253.7704
 -30409586.95748 -23679176.45346  21744969.5784                   21744967.9614
 -17759638.37546 -13823156.78543  24016454.2504                   24016454.3014
 -28423434.16048 -22132906.64847  20665202.8914                   20665198.0664
 11  8  3  1 31  0.0000000  0  9G09G25G10G17G12G05G04G27G02
  -9530355.02747  -7411005.26644  23820854.0004                   23820855.5434
   2311172.22747   1811821.00443  24152238.2814                   24152238.4384
 -23061690.52048 -17956801.75046  20959760.1644                   20959757.4064
 -34514639.25447 -26879077.81245  23282655.6174                   23282654.0084
 -17146255.46548 -13347468.17246  21446950.6954                   21446947.8164
 -11726019.97747  -9123361.69146  22085461.5864                   22085459.8204
 -30356984.43048 -23638187.49245  21754979.4614                   21754977.6764
 -17719298.55546 -13791723.30543  24024130.2974                   24024131.0864
 -28447635.96548 -22151765.19147  20660597.3524                   20660592.0824
 11  8  3  1 31 30.0000000  0  9G09G25G10G17G12G05G04G27G02
  -9473864.80147  -7366987.02744  23831604.8364                   23831605.3554
   2188436.69547   1716182.94544  24128882.2664                   24128882.4304
 -23087590.97347 -17976983.89146  20954831.0704                   20954828.8834
 -34483649.74647 -26854930.13744  23288551.9384                   23288550.0314
 -17227217.55548 -13410555.48846  21431544.1024                   21431541.3134
 -11840161.78547  -9212303.29746  22063740.7274                   22063739.3324
 -30304149.82048 -23597017.66845  21765033.7504                   21765031.4694
 -17678810.59846 -13760174.37943  24031835.7194                   24031836.2814
 -28471457.52748 -22170327.44147  20656064.1334                   20656059.1564
 11  8  3  1 32  0.0000000  0  9G09G25G10G17G12G05G04G27G02
  -9417138.93746  -7322785.14844  23842398.9844                   23842399.0234
   2065968.69947   1620753.35544  24105577.7894                   24105577.6804
 -23112775.92648 -17996608.51646  20950038.8594                   20950036.4964
 -34452419.03147 -26830594.53544  23294495.1414                   23294493.4104
 -17307653.04748 -13473232.48446  21416237.7584                   21416234.8054
 -11953916.03547  -9300942.91046  22042094.1564                   22042092.0434
 -30251088.10548 -23555670.89145  21775130.8134                   21775129.0824
 -17638180.20346 -13728514.44544  24039566.6724                   24039569.3984
 -28494902.41848 -22188596.17647  20651603.0164                   20651598.2974
 11  8  3  1 32 30.0000000  0  9G09G25G10G17G12G05G04G27G02
  -9360180.68446  -7278402.21943  23853238.0234                   23853238.0474
   1943770.94947   1525534.36744  24082324.0164                   24082324.5704
 -23137245.10547 -18015675.39546  20945382.4064                   20945379.7854
 -34420946.57047 -26806070.55145  23300484.7734                   23300482.5744
 -17387559.65248 -13535497.34846  21401031.9924                   21401028.7934
 -12067279.22747  -9389277.80546  22020521.7974                   22020519.5434
 -30197801.27048 -23514148.69545  21785271.0554                   21785269.3484
 -17597410.16046 -13696745.72344  24047325.1804                   24047327.6334
 -28517972.04748 -22206572.49647  20647212.9064                   20647207.9494
 11  8  3  1 33  0.0000000  0  9G09G25G10G17G12G05G04G27G02
  -9302994.17247  -7233841.41444  23864121.3754                   23864120.4454
   1821845.23447   1430527.33244  24059121.7664                   24059123.2034
 -23160999.09848 -18034184.98446  20940862.2734                   20940859.5554
 -34389232.60547 -26781358.40244  23306519.3364                   23306516.8754
 -17466936.14848 -13597349.14146  21385926.9384                   21385923.8554
 -12180249.48847  -9477306.52046  21999024.7114                   21999022.5984
 -30144292.07048 -23472453.21545  21795453.4224                   21795451.1294
 -17556503.94546 -13664870.89544  24055109.1564                   24055112.3164
 -28540668.12548 -22224257.73447  20642893.6804                   20642889.3404
 11  8  3  1 33 30.0000000  0  9G09G25G10G17G12G05G04G27G02
  -9245584.46146  -7189106.70744  23875045.7274                   23875045.9964
   1700192.36747   1335732.93044  24035972.1484                   24035973.5904
 -23184038.98848 -18052138.12546  20936477.8134                   20936475.1024
 -34357278.14147 -26756458.82444  23312600.4454                   23312598.1024
 -17545781.75848 -13658787.25446  21370923.7194                   21370920.3204
 -12292825.96147  -9565028.38346  21977601.7034                   21977599.7584
 -30090564.26248 -23430587.40645  21805677.7114                   21805675.2384
 -17515466.12146 -13632893.52043  24062918.5634                   24062921.0434
 -28562993.42248 -22241654.05946  20638645.5314                   20638640.6804
 11  8  3  1 34  0.0000000  0  9G09G25G10G17G12G05G04G27G02
  -9187956.08647  -7144201.61344  23886011.9454                   23886012.8674
   1578814.05146   1241152.46944  24012874.3594                   24012875.4654
 -23206366.09848 -18069535.85946  20932229.1254                   20932226.3054
 -34325084.19947 -26731372.65245  23318727.0474                   23318725.1214
 -17624095.50848 -13719810.94946  21356020.4924                   21356017.1954
 -12405006.59447  -9652441.80546  21956254.7344                   21956252.3954
 -30036621.00848 -23388553.71545  21815942.7584                   21815941.0044
 -17474300.56246 -13600816.60944  24070753.0474                   24070754.3054
 -28584950.51648 -22258763.46547  20634467.0944                   20634462.5434
 11  8  3  1 34 30.0000000  0  9G09G25G10G17G12G05G04G27G02
  -9130112.60947  -7099128.89544  23897019.6884                   23897020.2974
   1457712.58246   1146787.70744  23989830.0394                   23989830.5004
 -23227980.89547 -18086378.54346  20928116.3834                   20928113.7074
 -34292650.47347 -26706099.62945  23324898.6414                   23324896.0664
 -17701875.43048 -13780418.66446  21341219.5944                   21341216.3164
 -12516789.09047  -9739544.99246  21934982.7344                   21934981.0904
 -29982464.37548 -23346353.76245  21826248.7034                   21826246.4494
 -17433010.32446 -13568642.49644  24078610.4144                   24078611.8284
 -28606540.52348 -22275586.83647  20630358.6174                   20630353.6094
 11  8  3  1 35  0.0000000  0  9G09G25G10G17G12G05G04G27G02
  -9072059.31247  -7053892.67244  23908066.4384                   23908067.1254
   1336888.88347   1052639.40244  23966837.6094                   23966838.6994
 -23248884.54748 -18102667.09446  20924138.5234                   20924135.8444
 -34259977.64547 -26680640.29345  23331115.8364                   23331114.3954
 -17779121.01248 -13840610.01246  21326520.2814                   21326517.2504
 -12628172.18447  -9826336.94546  21913787.1094                   21913785.3444
 -29928097.96548 -23303990.32445  21836594.2504                   21836591.8204
 -17391599.68046 -13536374.58644  24086491.0314                   24086492.1214
 -28627766.29748 -22292126.37947  20626319.6644                   20626314.6604
 11  8  3  1 35 30.0000000  0  9G09G25G10G17G12G05G04G27G02
  -9013799.11347  -7008495.20344  23919153.4614                   23919153.6914
   1216346.02346    958709.95344  23943898.9454                   23943900.4024
 -23269076.46948 -18118401.03546  20920295.7114                   20920293.6254
 -34227065.76247 -26654994.67245  23337379.3364                   23337377.2034
 -17855829.52348 -13900382.86746  21311923.2814                   21311919.9304
 -12739152.48847  -9912815.05546  21892668.3284                   21892666.2974
 -29873523.39148 -23261464.69545  21846979.4844                   21846976.7194
 -17350070.93746 -13504014.62944  24094393.1334                   24094395.0084
 -28648628.63748 -22308382.73047  20622349.5864                   20622344.8794
 11  8  3  1 36  0.0000000  0  9G09G25G10G17G12G05G04G27G02
  -8955335.93047  -6962939.57844  23930278.1484                   23930279.4804
   1096086.23047    865001.09844  23921014.4454                   23921015.3524
 -23288556.73848 -18133580.45346  20916588.9144                   20916586.3674
 -34193914.35547 -26629162.39545  23343687.6484                   23343685.2114
 -17931999.53948 -13959736.11746  21297428.4774                   21297425.5354
 -12849727.75047  -9998977.53146  21871626.5944                   21871624.2464
 -29818742.94948 -23218778.64145  21857404.0634                   21857401.6764
 -17308427.32846 -13471565.19143  24102317.5634                   24102319.8094
 -28669129.00448 -22324357.02747  20618448.2424                   20618443.6054
 11  8  3  1 36 30.0000000  0  9G09G25G10G17G12G05G04G27G02
  -8896672.77747  -6917228.15243  23941441.0314                   23941442.3554
    976112.29747    771515.00444  23898184.0864                   23898184.3134
 -23307325.39148 -18148205.34446  20913017.2894                   20913014.6174
 -34160522.82847 -26603143.02045  23350041.6334                   23350039.5004
 -18007628.75048 -14018667.96546  21283036.8364                   21283033.0944
 -12959894.84447 -10084821.96146  21850662.2664                   21850659.8524
 -29763758.32048 -23175933.46545  21867866.9064                   21867863.8204
 -17266671.64846 -13439028.42243  24110263.2894                   24110265.5354
 -28689268.44148 -22340050.07847  20614616.0554                   20614611.1764
 11  8  3  1 37  0.0000000  0  9G09G25G10G17G12G05G04G27G02
  -8837813.04346  -6871363.53943  23952641.7664                   23952642.3284
    856426.89547    678253.73844  23875408.5944                   23875409.6684
 -23325382.44948 -18162275.75846  20909581.5704                   20909578.6684
 -34126890.48047 -26576935.98445  23356441.7974                   23356440.0004
 -18082715.00848 -14077176.72346  21268748.4384                   21268744.9924
 -13069651.26647 -10170346.38346  21829776.2664                   21829774.4454
 -29708571.44148 -23132930.71545  21878368.5314                   21878365.7344
 -17224806.44146 -13406406.32043  24118230.2194                   24118231.7384
 -28709048.06248 -22355462.75847  20610851.8914                   20610846.9184
 11  8  3  1 37 30.0000000  0  9G09G25G10G17G12G05G04G27G02
  -8778761.70747  -6825349.57443  23963878.9384                   23963879.7034
    737031.03947    585218.04344  23852688.6254                   23852688.7854
 -23342729.35548 -18175792.80146  20906280.0084                   20906277.7274
 -34093018.59047 -26550542.31245  23362887.1724                   23362884.9264
 -18157257.54748 -14135261.80546  21254563.2114                   21254559.8874
 -13178995.66848 -10255549.75046  21808968.8674                   21808966.5554
 -29653185.97748 -23089773.21145  21888908.1884                   21888906.2894
 -17182835.97746 -13373702.18743  24126217.3984                   24126217.7704
 -28728470.36348 -22370597.00047  20607156.0704                   20607151.2774
 11  8  3  1 38  0.0000000  0  9G09G25G10G17G12G05G04G27G02
  -8719522.10947  -6779188.92643  23975152.5004                   23975152.2424
    617927.45347    492410.12944  23830023.9144                   23830023.7894
 -23359366.32848 -18188756.63346  20903114.3364                   20903111.6334
 -34058906.68447 -26523961.60245  23369378.2894                   23369376.2154
 -18231254.42248 -14192921.69546  21240482.0314                   21240478.9304
 -13287925.05148 -10340429.71946  21788240.3524                   21788237.9924
 -29597603.62548 -23046462.30945  21899485.0164                   21899482.7304
 -17140762.96946 -13340918.12543  24134223.7894                   24134224.9884
 -28747536.94948 -22385454.07446  20603527.9064                   20603522.9924
 11  8  3  1 38 30.0000000  0  9G09G25G10G17G12G05G04G27G02
  -8660096.76647  -6732883.52744  23986460.6884                   23986461.3914
    499119.60947    399832.64544  23807415.3444                   23807415.7774
 -23375292.52348 -18201166.62146  20900083.3284                   20900080.8754
 -34024553.35247 -26497192.76645  23375915.8674                   23375913.9574
 -18304702.50448 -14250153.96146  21226505.3984                   21226501.9224
 -13396435.92647 -10424983.59046  21767591.2664                   21767589.0944
 -29541825.52048 -23002998.86745  21910099.3364                   21910096.9884
 -17098589.14146 -13308055.48843  24142249.3284                   24142250.2034
 -28766247.81248 -22400033.94947  20599967.2504                   20599962.4184
 11  8  3  1 39  0.0000000  0  9G09G25G10G17G12G05G04G27G02
  -8600489.70347  -6686436.55944  23997804.0164                   23997804.8094
    380609.61347    307487.26244  23784863.7814                   23784864.2544
 -23390508.73448 -18213023.37946  20897188.1414                   20897185.7854
 -33989958.98847 -26470236.12145  23382498.6094                   23382496.6914
 -18377600.57848 -14306957.63746  21212633.3284                   21212630.0554
 -13504526.30948 -10509209.80546  21747022.4224                   21747020.2384
 -29485853.83648 -22959384.58245  21920750.2274                   21920747.9104
 -17056318.00846 -13275117.04343  24150292.8914                   24150294.4454
 -28784604.62548 -22414337.94147  20596474.1954                   20596469.3834
 11  8  3  1 39 30.0000000  0  9G09G25G10G17G12G05G04G27G02
  -8540705.01647  -6639851.17644  24009179.8524                   24009181.6454
    262399.19947    215375.32444  23762369.0234                   23762369.5234
 -23405015.94948 -18224327.68046  20894427.5084                   20894425.0594
 -33955123.64147 -26443091.69944  23389127.0944                   23389125.9844
 -18449947.18748 -14363331.60946  21198866.2344                   21198863.0004
 -13612194.08247 -10593106.69546  21726534.0164                   21726531.2664
 -29429691.81248 -22915621.96945  21931438.0314                   21931435.6214
 -17013952.78146 -13242105.27343  24158354.0004                   24158356.1334
 -28802609.43048 -22428367.65247  20593047.9304                   20593042.8874
 11  8  3  1 40  0.0000000  0  9G09G25G10G17G12G05G04G27G02
  -8480744.96947  -6593129.17243  24020590.8364                   24020591.8524
    144492.05947    123499.69944  23739931.8054                   23739932.4694
 -23418812.94548 -18235078.54346  20891801.9694                   20891799.4224
 -33920046.25847 -26415758.68745  23395802.5784                   23395800.6454
 -18521739.29348 -14419273.48846  21185204.5474                   21185201.5514
 -13719435.14547 -10676671.09846  21706126.4694                   21706124.0394
 -29373339.88748 -22871711.36745  21942161.0704                   21942159.2194
 -16971495.54345 -13209021.85543  24166434.2114                   24166436.9454
 -28820262.34848 -22442123.16447  20589688.7194                   20589683.7584
 11  8  3  1 40 30.0000000  0  9G09G25G10G17G12G05G04G27G02
  -8420614.92646  -6546274.71544  24032032.8204                   24032033.5824
     26888.83247     31860.87944  23717552.4924                   23717553.3284
 -23431902.19548 -18245277.93446  20889311.1644                   20889308.4844
 -33884728.14147 -26388238.08644  23402523.9774                   23402521.4264
 -18592976.71148 -14474783.14146  21171648.8524                   21171645.1684
 -13826249.32048 -10759902.85546  21685800.2114                   21685798.1604
 -29316802.03948 -22827655.91845  21952920.1334                   21952917.9104
 -16928950.91445 -13175870.37143  24174530.0394                   24174532.3634
 -28837566.60248 -22455606.97747  20586395.6724                   20586391.1604
 11  8  3  1 41  0.0000000  0  9G09G25G10G17G12G05G04G27G02
  -8360318.21946  -6499290.37543  24043506.5234                   24043507.8754
    -90407.84847    -59539.03544  23695231.5394                   23695232.3874
 -23444284.04747 -18254926.10546  20886954.7274                   20886952.0944
 -33849168.98047 -26360529.66044  23409289.9384                   23409287.9414
 -18663657.53148 -14529859.09446  21158198.3914                   21158195.2934
 -13932633.48048 -10842799.54746  21665556.1884                   21665554.0984
 -29260080.06648 -22783456.97745  21963713.8284                   21963711.6684
 -16886321.63345 -13142652.87543  24182641.8984                   24182645.3094
 -28854523.41448 -22468820.06247  20583169.2584                   20583164.1254
 11  8  3  1 41 30.0000000  0  9G09G25G10G17G12G05G04G27G02
  -8299859.22747  -6452179.57044  24055012.1094                   24055012.9494
   -207396.24647   -150698.76244  23672969.5164                   23672970.0434
 -23455959.47748 -18264023.82046  20884732.8134                   20884730.2304
 -33813369.42247 -26332633.88344  23416102.2194                   23416100.7074
 -18733780.68748 -14584500.48046  21144854.5944                   21144851.0274
 -14038586.06647 -10925359.94946  21645393.8754                   21645391.5474
 -29203176.92648 -22739116.86745  21974541.8834                   21974540.1294
 -16843611.18746 -13109372.15243  24190770.2894                   24190773.2384
 -28871134.86748 -22481764.03547  20580007.9774                   20580003.3134
 11  8  3  1 42  0.0000000  0  9G09G25G10G17G12G05G04G27G02
  -8239240.48447  -6404944.24644  24066547.8984                   24066547.9734
   -324072.80547   -241615.50444  23650767.2344                   23650767.5314
 -23466928.28147 -18272570.92246  20882645.6724                   20882643.1684
 -33777327.94147 -26304549.60244  23422960.8204                   23422958.8594
 -18803343.57048 -14638705.30946  21131617.2504                   21131613.8594
 -14144103.53948 -11007581.29346  21625314.5554                   21625312.5434
 -29146093.16048 -22694636.02345  21985405.0314                   21985402.4574
 -16800821.68746 -13076029.81643  24198913.2344                   24198915.4924
 -28887401.09048 -22494438.99647  20576912.6414                   20576907.7234
 11  8  3  1 42 30.0000000  0  9G09G25G10G17G12G05G04G27G02
  -8178467.25847  -6357588.58644  24078112.1094                   24078112.8914
   -440437.07847   -332288.92644  23628622.5944                   23628623.8834
 -23477192.80948 -18280569.23846  20880692.3984                   20880689.8794
 -33741046.57847 -26276278.41444  23429865.2274                   23429863.5234
 -18872346.34048 -14692473.68446  21118486.0474                   21118482.8484
 -14249185.28147 -11089463.10546  21605317.9384                   21605315.6134
 -29088833.06248 -22650017.76645  21996300.6414                   21996299.3874
 -16757957.84446 -13042629.52743  24207070.0004                   24207070.7274
 -28903325.66048 -22506847.74247  20573882.3054                   20573877.0744
 11  8  3  1 43  0.0000000  0  9G09G25G10G17G12G05G04G27G02
  -8117543.15246  -6310115.34844  24089705.0784                   24089706.5864
   -556486.49247   -422716.96944  23606538.9614                   23606540.1764
 -23486753.14848 -18288018.84446  20878873.3284                   20878871.0164
 -33704524.57847 -26247819.73844  23436814.9224                   23436813.2154
 -18940786.87948 -14745803.94546  21105462.5634                   21105459.2344
 -14353828.64147 -11171003.32446  21585405.0944                   21585402.9494
 -29031398.57447 -22605263.62945  22007230.2814                   22007228.2934
 -16715022.28146 -13009173.37943  24215239.7114                   24215241.8674
 -28918909.78548 -22518991.20347  20570916.8594                   20570911.7934
 11  8  3  1 43 30.0000000  0  9G09G25G10G17G12G05G04G27G02
  -8056472.33246  -6262527.80143  24101326.9774                   24101328.8244
   -672218.86347   -512897.98845  23584516.7734                   23584517.4144
 -23495610.25047 -18294920.46546  20877187.9844                   20877185.1134
 -33667762.59847 -26219174.02744  23443810.7274                   23443809.9024
 -19008663.85948 -14798695.07046  21092546.0474                   21092542.9224
 -14458031.39547 -11252200.22346  21565575.6484                   21565573.4534
 -28973791.95748 -22560375.36345  22018192.1644                   22018190.2154
 -16672018.44546 -12975664.01643  24223423.6804                   24223425.9184
 -28934155.10948 -22530870.65247  20568015.8524                   20568010.7344
 11  8  3  1 44  0.0000000  0  9G09G25G10G17G12G05G04G27G02
  -7995257.02046  -6214827.73444  24112975.6254                   24112977.7624
   -787631.00447   -602829.51244  23562554.6174                   23562554.7344
 -23503764.05948 -18301274.07046  20875636.1254                   20875633.6054
 -33630759.19147 -26190340.22344  23450852.6094                   23450850.1374
 -19075974.63348 -14851145.01246  21079737.2034                   21079733.5594
 -14561790.87147 -11333051.70346  21545831.2734                   21545828.6374
 -28916014.43748 -22515353.91845  22029187.0864                   22029184.7384
 -16628948.53546 -12942103.18743  24231620.6414                   24231622.4064
 -28949062.16848 -22542486.52046  20565178.9454                   20565174.3164
 11  8  3  1 44 30.0000000  0  9G09G25G10G17G12G05G04G27G02
  -7933903.12547  -6167019.60944  24124651.5704                   24124653.8054
   -902722.78547   -692511.39544  23540653.6334                   23540653.2974
 -23511217.80548 -18307082.16846  20874217.6254                   20874215.0434
 -33593516.79747 -26161320.15244  23457939.6884                   23457937.4964
 -19142720.11348 -14903154.44146  21067035.6954                   21067032.4264
 -14665106.06648 -11413556.99246  21526170.7194                   21526168.1724
 -28858070.32848 -22470202.65645  22040213.1414                   22040211.3204
 -16585817.66047 -12908494.82844  24239828.1174                   24239829.9344
 -28963634.84448 -22553841.83247  20562405.9774                   20562400.8444
 11  8  3  1 45  0.0000000  0  9G09G25G10G17G12G05G04G27G02
  -7872412.89847  -6119105.27044  24136353.4534                   24136354.8054
  -1017490.38347   -781940.68044  23518814.2584                   23518813.7624
 -23517970.76648 -18312344.19546  20872932.7814                   20872930.0744
 -33556034.03947 -26132112.83644  23465072.1334                   23465069.8324
 -19208897.02348 -14954720.84446  21054442.9534                   21054439.4264
 -14767973.54747 -11493713.40246  21506595.6884                   21506593.4304
 -28799960.18447 -22424922.03545  22051271.2344                   22051269.5634
 -16542627.53547 -12874840.32444  24248046.4924                   24248048.9304
 -28977873.42248 -22564936.80947  20559696.1484                   20559691.4654
 11  8  3  1 45 30.0000000  0  9G09G25G10G17G12G05G04G27G02
  -7810789.97747  -6071087.51644  24148079.5554                   24148080.9024
  -1131931.63747   -871115.64844  23497036.0864                   23497036.1994
 -23524023.61348 -18317060.67646  20871780.7584                   20871778.1524
 -33518310.86747 -26102718.16444  23472250.1024                   23472248.3954
 -19274504.19948 -15005843.28946  21041957.8754                   21041954.5784
 -14870391.32848 -11573519.40246  21487106.5634                   21487103.8524
 -28741686.38747 -22379513.88345  22062360.7664                   22062358.9924
 -16499381.17646 -12841141.98444  24256275.8284                   24256278.4064
 -28991778.88348 -22575772.21547  20557050.4064                   20557045.5664
 11  8  3  1 46  0.0000000  0  9G09G25G10G17G12G05G04G27G02
  -7749037.85947  -6022969.08244  24159831.2814                   24159832.0554
  -1246044.00047   -960034.36344  23475322.1334                   23475321.3674
 -23529377.19148 -18321232.27746  20870761.9774                   20870759.0554
 -33480346.75847 -26073135.73044  23479475.2504                   23479472.1484
 -19339539.95348 -15056520.48046  21029581.9454                   21029578.5744
 -14972356.74648 -11652972.92646  21467702.8834                   21467700.5824
 -28683250.71547 -22333979.59445  22073480.3134                   22073478.5664
 -16456081.49646 -12807402.11344  24264515.5314                   24264518.9104
 -29005352.88748 -22586349.34847  20554467.1724                   20554461.9184
 11  8  3  1 46 30.0000000  0  9G09G25G10G17G12G05G04G27G02
  -7687162.37547  -5974754.51244  24171605.6804                   24171605.9344
  -1359827.12947  -1048696.55544  23453669.0944                   23453668.7034
 -23534034.20748 -18324861.10946  20869875.8834                   20869873.1604
 -33442144.08647 -26043367.41844  23486744.0164                   23486742.5744
 -19404004.21148 -15106752.33246  21017314.8364                   21017311.8444
 -15073869.64148 -11732073.82846  21448386.0164                   21448383.1374
 -28624657.25847 -22288322.37945  22084630.4534                   22084629.4534
 -16412733.39146 -12773624.51243  24272764.9844                   24272767.5984
 -29018599.00848 -22596670.98447  20551946.3524                   20551941.6134
 11  8  3  1 47  0.0000000  0  9G09G25G10G17G12G05G04G27G02
  -7625167.11347  -5926446.61344  24183402.5004                   24183403.2234
  -1473278.88347  -1137100.49644  23432080.1024                   23432080.6214
 -23537995.80948 -18327948.05946  20869121.7344                   20869119.5944
 -33403702.92247 -26013413.28144  23494059.8054                   23494057.6334
 -19467896.42648 -15156538.44146  21005156.3834                   21005153.1604
 -15174927.51648 -11810820.16046  21429154.9144                   21429152.1524
 -28565908.17647 -22242543.89145  22095809.7664                   22095808.2194
 -16369339.75846 -12739811.41443  24281022.4144                   24281024.9534
 -29031518.81248 -22606738.35247  20549487.9144                   20549482.8954
 11  8  3  1 47 30.0000000  0  9G09G25G10G17G12G05G04G27G02
  -7563054.81247  -5878047.52743  24195222.8054                   24195223.1254
  -1586396.24247  -1225243.83244  23410553.5084                   23410555.2774
 -23541262.21948 -18330493.29346  20868500.5164                   20868497.4614
 -33365022.39547 -25983272.60944  23501420.1804                   23501418.1374
 -19531213.86748 -15205876.67646  20993107.5314                   20993104.2154
 -15275527.87948 -11889210.00046  21410010.9454                   21410008.3914
 -28507004.98447 -22196645.30145  22107019.0164                   22107017.2854
 -16325902.93746 -12705964.70343  24289287.2194                   24289290.1604
 -29044113.41848 -22616552.32047  20547091.2584                   20547086.0984
 11  8  3  1 48  0.0000000  0  9G09G25G10G17G12G05G04G27G02
  -7500829.93446  -5829560.70343  24207063.1174                   24207064.2664
  -1699177.39547  -1313125.18744  23389092.1804                   23389093.3794
 -23543835.20348 -18332498.18046  20868010.6094                   20868008.1844
 -33326103.05547 -25952945.85944  23508826.3284                   23508824.0004
 -19593955.33648 -15254766.10546  20981168.3754                   20981165.1214
 -15375668.75048 -11967241.79746  21390954.8834                   21390952.8284
 -28447950.09047 -22150628.50045  22118256.7584                   22118255.0514
 -16282426.59446 -12672087.15243  24297560.7274                   24297563.5314
 -29056384.67248 -22626114.31646  20544756.1954                   20544751.0204
 11  8  3  1 48 30.0000000  0  9G09G25G10G17G12G05G04G27G02
  -7438494.60946  -5780987.85943  24218925.0474                   24218925.6844
  -1811618.79347  -1400741.84044  23367695.4384                   23367695.7814
 -23545714.18048 -18333962.29746  20867653.2894                   20867650.4304
 -33286943.73047 -25922432.08644  23516278.4774                   23516276.0314
 -19656118.75848 -15303205.10946  20969339.0784                   20969335.7304
 -15475346.56648 -12044912.76646  21371987.0634                   21371984.5904
 -28388744.52347 -22104494.27745  22129522.9924                   22129521.0234
 -16238912.38746 -12638180.14542  24305841.8364                   24305844.2344
 -29068332.84848 -22635424.58247  20542482.4384                   20542477.4844
 11  8  3  1 49  0.0000000  0  9G09G25G10G17G12G05G04G27G02
  -7376053.02346  -5732332.20743  24230807.8364                   24230809.0274
  -1923718.66047  -1488092.32444  23346363.7274                   23346364.5274
 -23546901.16848 -18334887.19146  20867427.0084                   20867424.9844
 -33247544.90647 -25891731.69944  23523775.9614                   23523774.0784
 -19717702.94948 -15351192.75446  20957620.1414                   20957616.6954
 -15574559.98848 -12122221.87146  21353107.2894                   21353104.8164
 -28329390.62547 -22058244.48445  22140817.8594                   22140816.1604
 -16195364.12146 -12604246.54742  24314129.0704                   24314131.5004
 -29079960.05148 -22644484.72347  20540269.4774                   20540264.4774
 11  8  3  1 49 30.0000000  0  9G09G25G10G17G12G05G04G27G02
  -7313508.14847  -5683596.02044  24242710.2344                   24242711.9064
  -2035473.87547  -1575174.25844  23325097.1254                   23325098.0084
 -23547396.21548 -18335272.92246  20867332.5084                   20867330.0664
 -33207905.69547 -25860844.00044  23531318.6254                   23531316.7344
 -19778706.28948 -15398727.80946  20946011.4924                   20946008.2424
 -15673305.85948 -12199166.65246  21334316.4844                   21334313.6684
 -28269889.67247 -22011880.11345  22152140.8284                   22152138.9344
 -16151783.82846 -12570287.93442  24322422.2894                   24322424.8404
 -29091266.97348 -22653295.30547  20538118.0234                   20538113.0084
 11  8  3  1 50  0.0000000  0  9G09G25G10G17G12G05G04G27G02
  -7250865.05146  -5634783.34443  24254630.4614                   24254631.8324
  -2146883.60947  -1661986.96945  23303897.4924                   23303897.4064
 -23547201.78548 -18335121.38746  20867369.8914                   20867367.6884
 -33168027.61747 -25829770.16844  23538907.1804                   23538904.9774
 -19839128.33248 -15445809.89546  20934513.7034                   20934510.2504
 -15771583.45748 -12275746.55546  21315614.6414                   21315612.2234
 -28210245.27347 -21965403.97745  22163490.3594                   22163488.5084
 -16108175.94546 -12536307.90243  24330719.9534                   24330723.8634
 -29102256.90248 -22661858.87947  20536026.6804                   20536021.8984
 11  8  3  1 50 30.0000000  0  9G09G25G10G17G12G05G04G27G02
  -7188125.33246  -5585895.31643  24266569.3674                   24266570.3954
  -2257943.82047  -1748527.33245  23282763.6484                   23282763.2974
 -23546317.52347 -18334432.32446  20867538.3674                   20867535.6604
 -33127909.27046 -25798509.14544  23546541.5004                   23546539.7154
 -19898966.18448 -15492436.76646  20923126.9844                   20923123.1524
 -15869388.89548 -12351958.53146  21297002.9924                   21297000.6054
 -28150457.75047 -21918816.29345  22174867.6884                   22174865.5664
 -16064541.97346 -12502307.53942  24339023.0864                   24339026.3134
 -29112929.37948 -22670175.09447  20533995.8984                   20533990.6174
 11  8  3  1 51  0.0000000  0  9G09G25G10G17G12G05G04G27G02
  -7125294.31246  -5536936.18043  24278524.9844                   24278526.7704
  -2368653.75447  -1834794.75845  23261695.6094                   23261696.3524
 -23544746.09847 -18333207.81646  20867837.2734                   20867835.2304
 -33087552.14547 -25767062.01644  23554220.9224                   23554219.0514
 -19958219.87148 -15538608.44946  20911850.9614                   20911847.5394
 -15966721.42648 -12427802.01646  21278481.2504                   21278478.3794
 -28090530.59847 -21872119.81245  22186271.8524                   22186269.9734
 -16020886.32446 -12468290.25842  24347330.7664                   24347334.3134
 -29123287.75448 -22678246.54347  20532024.9144                   20532019.8054
 11  8  3  1 51 30.0000000  0  9G09G25G10G17G12G05G04G27G02
  -7062376.63346  -5487909.52743  24290498.8984                   24290499.1054
  -2479012.12947  -1920788.22345  23240694.4694                   23240695.1334
 -23542489.46947 -18331449.38746  20868266.7504                   20868264.1954
 -33046957.19946 -25735429.60544  23561946.8204                   23561943.6294
 -20016889.04348 -15584324.67246  20900686.7974                   20900683.5554
 -16063580.12548 -12503276.27346  21260049.5864                   21260046.5824
 -28030466.96547 -21825316.98445  22197701.3674                   22197699.1994
 -15977212.87946 -12434259.15643  24355642.0084                   24355644.5904
 -29133334.29348 -22686075.00447  20530112.9064                   20530107.9924
 11  8  3  1 52  0.0000000  0  9G09G25G10G17G12G05G04G27G02
  -6999375.75846  -5438818.01643  24302486.8674                   24302489.2774
  -2589016.86347  -2006506.13345  23219761.2664                   23219761.8874
 -23539549.25448 -18329158.28946  20868826.3754                   20868823.5044
 -33006124.56646 -25703611.98444  23569716.4534                   23569714.7034
 -20074972.81648 -15629584.73846  20889633.5944                   20889630.1994
 -16159962.88748 -12578379.67646  21241708.3984                   21241706.2734
 -27970268.75847 -21778409.30145  22209156.4694                   22209154.8324
 -15933524.89146 -12400216.70343  24363955.7664                   24363959.5394
 -29143070.62548 -22693661.74647  20528259.9924                   20528254.9024
 11  8  3  1 52 30.0000000  0  9G09G25G10G17G12G05G04G27G02
  -6936294.52346  -5389663.94543  24314490.9924                   24314492.8634
  -2698664.84047  -2091946.05145  23198896.5704                   23198896.8714
 -23535925.74648 -18326334.74646  20869515.7344                   20869513.0784
 -32965053.68046 -25671608.70344  23577531.0554                   23577529.8954
 -20132469.20748 -15674387.10946  20878692.4924                   20878689.3524
 -16255866.93048 -12653110.04346  21223458.4774                   21223455.8794
 -27909937.20747 -21731397.70345  22220637.4694                   22220635.6914
 -15889824.37147 -12366164.45343  24372272.6564                   24372274.1174
 -29152497.76648 -22701007.55547  20526466.4694                   20526461.0354
 11  8  3  1 53  0.0000000  0  8G09G25G10G17G12G05G04G02
  -6873137.23846  -5340450.58643  24326509.5234                   24326511.7584
  -2807954.52747  -2177106.78145  23178099.6094                   23178099.7234
 -23531620.79347 -18322980.23846  20870334.9924                   20870332.4104
 -32923745.30146 -25639420.34444  23585392.4614                   23585391.1374
 -20189377.59047 -15718731.29346  20867863.0394                   20867859.6094
 -16351290.77748 -12727466.24246  21205299.6724                   21205297.1484
 -27849475.23047 -21684284.48045  22232142.7274                   22232140.7234
 -29161618.01248 -22708114.22747  20524730.8594                   20524725.5004
 11  8  3  1 53 30.0000000  0  8G09G25G10G17G12G05G04G02
  -6809907.40646  -5291180.68443  24338542.2734                   24338543.6644
  -2916883.57847  -2261986.48444  23157370.5864                   23157370.9384
 -23526635.89848 -18319095.89146  20871283.2894                   20871280.1994
 -32882199.32447 -25607046.87944  23593298.1954                   23593296.5044
 -20245696.34848 -15762616.02346  20857145.9064                   20857142.7664
 -16446232.15648 -12801446.48446  21187232.8834                   21187230.8554
 -27788884.64847 -21637071.04745  22243673.0944                   22243670.9184
 -29170433.03548 -22714983.06246  20523053.2114                   20523048.2624
 11  8  3  1 54  0.0000000  0  8G09G25G10G17G12G05G04G02
  -6746604.60246  -5241853.92644  24350588.3754                   24350590.4224
  -3025445.51647  -2346580.12144  23136711.2584                   23136711.8754
 -23520968.32048 -18314679.58246  20872361.8284                   20872358.9184
 -32840411.76246 -25574485.13744  23601250.5634                   23601248.4774
 -20301420.36348 -15806037.32446  20846542.0784                   20846538.5274
 -16540685.20748 -12875046.20746  21169259.0004                   21169257.2704
 -27728163.22747 -21589755.65645  22255227.7344                   22255225.7154
 -29178940.03548 -22721611.87547  20521434.3914                   20521429.5204
 11  8  3  1 54 30.0000000  0  8G09G25G10G17G12G05G04G02
  -6683231.02046  -5192472.00444  24362647.8754                   24362650.7344
  -3133636.89847  -2430885.02344  23116123.1334                   23116123.7774
 -23514618.33247 -18309731.52346  20873570.1564                   20873567.1564
 -32798381.47347 -25541734.26644  23609248.4614                   23609246.9304
 -20356547.27348 -15848993.34846  20836051.4774                   20836048.0164
 -16634646.34048 -12948262.62146  21151379.0234                   21151376.6764
 -27667311.63347 -21542338.83645  22266807.4924                   22266805.9264
 -29187139.31248 -22728000.90646  20519874.1644                   20519869.4304
 11  8  3  1 55  0.0000000  0  8G09G25G10G17G12G05G04G02
  -6619790.05146  -5143037.58244  24374720.5164                   24374722.5474
  -3241455.26647  -2514899.28145  23095606.1564                   23095606.4774
 -23507587.07047 -18304252.60546  20874908.0314                   20874904.7304
 -32756108.38346 -25508794.17644  23617292.4614                   23617290.6054
 -20411075.77348 -15891483.07046  20825675.3674                   20825672.0634
 -16728113.31648 -13021093.98846  21133592.9774                   21133590.1994
 -27606331.65247 -21494821.99245  22278411.4384                   22278410.2304
 -29195032.26248 -22734151.23846  20518372.1174                   20518366.7814
 11  8  3  1 55 30.0000000  0  8G09G25G10G17G12G05G04G02
  -6556286.32847  -5093554.30144  24386805.1564                   24386806.8484
  -3348899.27747  -2598621.81644  23075159.7664                   23075160.8914
 -23499876.73448 -18298244.53946  20876375.7034                   20876373.0274
 -32713593.39147 -25475665.64544  23625383.1414                   23625380.7274
 -20465005.46148 -15933506.19546  20815413.1094                   20815409.7934
 -16821085.31648 -13093539.64546  21115900.7974                   21115898.4414
 -27545226.31647 -21447207.44945  22290039.0474                   22290037.0354
 -29202621.77048 -22740065.12546  20516927.8444                   20516922.6644
 11  8  3  1 56  0.0000000  0  8G09G25G10G17G12G05G04G02
  -6492725.07846  -5044026.18744  24398900.9144                   24398902.2704
  -3455968.46947  -2682052.28944  23054785.4454                   23054786.1024
 -23491490.67247 -18291709.92646  20877971.4924                   20877968.5474
 -32670838.84847 -25442350.41044  23633519.3204                   23633517.0084
 -20518337.34048 -15975063.48846  20805264.1414                   20805260.7974
 -16913561.95348 -13165599.31646  21098303.2974                   21098300.4064
 -27483999.19147 -21399498.00445  22301690.7974                   22301688.6564
 -29209910.85548 -22745744.92246  20515540.7504                   20515535.6764
 11  8  3  1 56 30.0000000  0  8G09G25G10G17G12G05G04G02
  -6429110.17646  -4994456.24243  24411006.5704                   24411007.8014
  -3562661.04747  -2765189.28944  23034483.1804                   23034482.7664
 -23482430.49247 -18284650.03146  20879695.1094                   20879692.6954
 -32627844.94947 -25408848.62944  23641700.7424                   23641697.9494
 -20571070.49248 -16016154.25846  20795229.0164                   20795225.9414
 -17005541.78148 -13237271.85546  21080800.0634                   21080797.3094
 -27422652.76247 -21351695.57845  22313364.4384                   22313362.6054
 -29216901.47748 -22751192.14846  20514210.8284                   20514205.5164
 11  8  3  1 57  0.0000000  0  8G09G25G10G17G12G05G04G02
  -6365444.87546  -4944847.05143  24423121.2274                   24423123.7894
  -3668974.59847  -2848030.97745  23014251.8674                   23014252.2384
 -23472697.98848 -18277066.25046  20881547.6174                   20881544.5704
 -32584611.66847 -25375160.36744  23649927.8914                   23649925.3134
 -20623203.61348 -16056777.45346  20785308.7974                   20785305.2704
 -17097022.34848 -13308555.36346  21063391.6334                   21063388.7424
 -27361188.69947 -21303801.49645  22325061.1024                   22325058.9924
 -29223595.12548 -22756407.96946  20512936.4694                   20512931.4304
 11  8  3  1 57 30.0000000  0  8G09G25G10G17G12G05G04G02
  -6301735.87146  -4895203.77343  24435244.5394                   24435247.2304
  -3774909.69147  -2930577.75845  22994092.8054                   22994093.4454
 -23462297.44147 -18268961.91046  20883526.4064                   20883523.6604
 -32541142.30147 -25341288.11744  23658199.3364                   23658196.7774
 -20674738.57448 -16096934.55146  20775502.0084                   20775498.6094
 -17188004.81648 -13379450.75046  21046078.2114                   21046075.7584
 -27299611.77047 -21255819.45745  22336778.5474                   22336776.5084
 -29229996.26648 -22761395.85246  20511718.6334                   20511713.5124
 11  8  3  1 58  0.0000000  0  8G09G25G10G17G12G05G04G02
  -6237985.83246  -4845528.53944  24447377.1414                   24447378.6374
  -3880463.48047  -3012827.39145  22974007.2194                   22974007.8204
 -23451229.59047 -18260337.59846  20885632.6724                   20885630.3984
 -32497436.16046 -25307231.39544  23666516.7584                   23666514.8164
 -20725673.72348 -16136624.27046  20765809.5004                   20765806.3794
 -17278486.60948 -13449955.99246  21028860.2424                   21028857.3754
 -27237923.25447 -21207750.49245  22348517.1484                   22348515.6804
 -29236105.95348 -22766156.64146  20510556.1174                   20510550.6884
 11  8  3  1 58 30.0000000  0  8G09G25G10G17G12G05G04G02
  -4598781.02747  -3568226.22743  24759306.3594                   24759308.1564
  -2410210.88347  -1867175.97345  23253786.8914                   23253787.3914
 -21864077.42248 -17023595.63746  21187657.6954                   21187654.5434
 -30878075.46146 -24045391.87944  23974671.2344                   23974668.7304
 -19200587.18048 -14948245.12546  21056023.6804                   21056020.3484
 -15793043.42248 -12292467.75046  21311530.3134                   21311528.0474
 -25600707.80947 -19931998.19544  22660069.0554                   22660066.7274
 -27666505.91448 -21543091.65647  20809240.8054                   20809235.7974
 11  8  3  1 59  0.0000000  0  8G09G25G10G17G12G05G04G02
  -4534961.08246  -3518496.54743  24771451.2974                   24771453.1094
  -2514997.25047  -1948827.65645  23233846.6484                   23233846.6804
 -21851682.53148 -17013937.27346  21190016.3054                   21190013.3634
 -30833898.23447 -24010968.07844  23983077.8204                   23983075.1604
 -19250321.76648 -14986999.34046  21046559.3914                   21046555.9344
 -15882520.02748 -12362189.73046  21294503.1414                   21294500.8914
 -25538803.76247 -19883761.28544  22671849.2664                   22671847.3204
 -27672038.93048 -21547403.09046  20808188.2734                   20808183.1764
 11  8  3  1 59 30.0000000  0  8G09G25G10G17G12G05G04G02
  -4471112.18046  -3468744.28943  24783600.4844                   24783603.2384
  -2619397.23847  -2030178.25845  23213979.5634                   23213979.6094
 -21838627.05948 -17003764.16846  21192500.5084                   21192497.8754
 -30789486.22746 -23976361.32044  23991528.4844                   23991526.4654
 -19299454.76648 -15025284.77746  21037209.4304                   21037206.2464
 -15971491.61348 -12431518.19146  21277572.8834                   21277570.5824
 -25476795.44147 -19835443.12545  22683648.8204                   22683647.3634
 -27677286.74648 -21551492.27746  20807189.2734                   20807184.0514
 11  8  3  2  0  0.0000000  0  8G09G25G10G17G12G05G04G02
  -4407238.37546  -3418972.61343  24795756.0474                   24795758.5394
  -2723409.15647  -2111226.45345  23194186.5084                   23194187.2304
 -21824913.12948 -16993077.98846  21195110.4694                   21195107.4884
 -30744840.38746 -23941572.38744  24000024.4774                   24000021.6994
 -19347986.50048 -15063101.70746  21027974.3594                   21027970.8014
 -16059957.14148 -12500452.32046  21260738.1174                   21260735.5514
 -25414685.23447 -19787045.55945  22695468.0704                   22695466.2664
 -27682251.42248 -21555360.83646  20806244.5864                   20806239.6844
 11  8  3  2  0 30.0000000  0  8G09G25G10G17G12G05G04G02
  -4343342.77046  -3369183.90243  24807914.9614                   24807916.9924
  -2827030.30147  -2191970.16045  23174468.3674                   23174468.8284
 -21810541.93448 -16981879.63746  21197845.2664                   21197842.1884
 -30699960.21946 -23906600.80944  24008565.1644                   24008563.0394
 -19395915.27348 -15100448.78946  21018854.0234                   21018850.6214
 -16147914.07448 -12568990.14146  21244000.4694                   21243998.2194
 -25352474.39147 -19738569.55944  22707306.2734                   22707304.4414
 -27686934.16448 -21559009.71546  20805353.5234                   20805347.9884
 11  8  3  2  1  0.0000000  0  8G09G25G10G17G12G05G04G02
  -4279429.28146  -3319381.33643  24820076.3914                   24820079.7304
  -2930259.10947  -2272408.15645  23154824.6334                   23154825.1054
 -21795516.13748 -16970171.20746  21200704.6174                   21200701.0514
 -30654846.77046 -23871447.48044  24017149.7584                   24017148.0204
 -19443241.01648 -15137325.97746  21009848.1724                   21009845.0044
 -16235361.43748 -12637130.90246  21227359.7114                   21227357.4224
 -25290165.43747 -19690017.13744  22719163.3134                   22719161.3054
 -27691337.28948 -21562440.71146  20804515.5474                   20804510.7424
 11  8  3  2  1 30.0000000  0  8G09G25G10G17G12G05G04G02
  -4215501.26646  -3269567.41843  24832243.3674                   24832244.9654
  -3033093.38347  -2352538.69545  23135255.9614                   23135255.9024
 -21779837.35948 -16957953.96546  21203687.8984                   21203684.6644
 -30609500.25446 -23836112.53944  24025779.2344                   24025776.5394
 -19489962.54748 -15173732.35246  21000957.0634                   21000954.0204
 -16322297.34048 -12704873.12546  21210816.5084                   21210814.0434
 -25227760.32447 -19641389.76644  22731038.6024                   22731036.4344
 -27695462.01248 -21565654.76246  20803730.7814                   20803725.6804
 11  8  3  2  2  0.0000000  0  8G09G25G10G17G12G05G04G02
  -4151562.22346  -3219744.91043  24844410.5784                   24844412.1804
  -3135530.60547  -2432359.89145  23115762.4614                   23115762.4414
 -21763507.07448 -16945229.05946  21206795.8524                   21206792.7854
 -30563920.26646 -23800595.70744  24034452.2664                   24034450.0634
 -19536078.84048 -15209667.11346  20992181.5944                   20992178.5164
 -16408719.41048 -12772214.95346  21194371.0474                   21194368.6644
 -25165260.59047 -19592688.66044  22742931.8134                   22742929.9774
 -27699309.80148 -21568653.02746  20802998.7344                   20802993.1684
 11  8  3  2  2 30.0000000  0  8G09G25G10G17G12G05G04G02
  -4087616.77046  -3169917.36343  24856578.3754                   24856580.9654
  -3237570.07447  -2511871.12145  23096345.2974                   23096345.3444
 -21746528.75048 -16931999.19546  21210026.4844                   21210023.8324
 -30518108.89846 -23764898.57444  24043169.6644                   24043168.2584
 -19581590.22748 -15245130.51646  20983520.9694                   20983517.8674
 -16494627.63348 -12839156.37946  21178023.0394                   21178020.0124
 -25102669.36747 -19543916.29345  22754842.7894                   22754841.1294
 -27702883.91848 -21571438.03946  20802318.5944                   20802313.6844
 11  8  3  2  3  0.0000000  0  8G09G25G10G17G12G05G04G02
  -4023667.79346  -3120087.10543  24868747.4694                   24868750.7154
  -3339209.05947  -2591070.30145  23077004.1094                   23077003.8834
 -21728903.40648 -16918265.16046  21213380.1884                   21213377.5004
 -30472065.70746 -23729020.78944  24051931.2504                   24051929.8874
 -19626495.71148 -15280121.79746  20974975.9144                   20974972.3874
 -16580019.65248 -12905695.57046  21161773.4694                   21161770.7194
 -25039988.09047 -19495073.73844  22766769.9454                   22766768.4924
 -27706185.10948 -21574010.38746  20801690.0634                   20801685.5474
 11  8  3  2  3 30.0000000  0  8G09G25G10G17G12G05G04G02
  -3959719.00046  -3070256.93443  24880916.5864                   24880918.8674
  -3440445.39147  -2669955.68745  23057738.8594                   23057739.0744
 -21710632.61748 -16904028.18446  21216857.3754                   21216854.6684
 -30425790.81646 -23692962.45744  24060737.4534                   24060736.1134
 -19670794.41048 -15314640.24646  20966546.2814                   20966542.6684
 -16664893.52048 -12971831.01246  21145622.4064                   21145619.9024
 -24977218.53547 -19446162.40645  22778715.4534                   22778713.2194
 -27709215.09448 -21576371.40247  20801113.6884                   20801108.2154
 11  8  3  2  4  0.0000000  0  8G09G25G10G17G12G05G04G02
  -3895773.57046  -3020429.44943  24893085.5084                   24893087.3014
  -3541276.76647  -2748525.52745  23038551.6254                   23038551.7074
 -21691718.68048 -16889290.03946  21220456.4774                   21220453.6604
 -30379284.31246 -23656723.64544  24069586.8984                   24069585.3094
 -19714485.75048 -15348685.43746  20958231.8444                   20958228.8284
 -16749247.46548 -13037561.32046  21129570.4144                   21129567.7814
 -24914362.37147 -19397183.59444  22790676.8134                   22790674.4614
 -27711975.42248 -21578522.29346  20800588.0084                   20800583.2544
 11  8  3  2  4 30.0000000  0  8G09G25G10G17G12G05G04G02
  -3831835.36746  -2970607.55143  24905252.6724                   24905254.3164
  -3641701.57847  -2826778.60545  23019441.3754                   23019441.1644
 -21672164.06248 -16874052.67246  21224177.6174                   21224174.9494
 -30332547.09846 -23620305.06644  24078481.9534                   24078479.4654
 -19757569.28148 -15382257.01246  20950033.3284                   20950029.9494
 -16833080.35248 -13102885.60246  21113617.4774                   21113614.9574
 -24851421.81647 -19348139.00844  22802653.3054                   22802651.3284
 -27714467.97348 -21580464.52046  20800114.0084                   20800109.3714
 11  8  3  2  5  0.0000000  0  8G09G25G10G17G12G05G04G02
  -3767907.28946  -2920793.56243  24917418.1094                   24917419.7074
  -3741717.38347  -2904712.95745  23000409.0314                   23000409.0164
 -21651970.25048 -16858317.22346  21228020.4224                   21228017.7544
 -30285579.25046 -23583706.76244  24087419.3594                   24087416.7814
 -19800043.78948 -15415354.01246  20941950.7894                   20941947.3984
 -16916390.15248 -13167802.29346  21097764.1724                   21097761.6094
 -24788398.55947 -19299029.94944  22814645.9924                   22814644.2464
 -27716694.18048 -21582199.21146  20799689.9774                   20799685.0274
 11  8  3  2  5 30.0000000  0  8G09G25G10G17G12G05G04G02
  -3703993.22746  -2870990.50843  24929580.0164                   24929582.9104
  -3841322.19147  -2982327.02745  22981454.6094                   22981454.8364
 -21631139.39848 -16842085.38346  21231984.0554                   21231981.2734
 -30238381.11346 -23546928.99244  24096400.6094                   24096398.5124
 -19841908.63348 -15447975.96146  20933984.1254                   20933980.9654
 -16999175.53148 -13232310.34046  21082011.2974                   21082007.8914
 -24725294.38347 -19249857.87145  22826654.7664                   22826653.0704
 -27718655.84848 -21583727.76646  20799316.5704                   20799312.1054
 11  8  3  2  6  0.0000000  0  8G09G25G10G17G12G05G04G02
  -3640096.44146  -2821200.93443  24941739.5864                   24941741.5004
  -3940513.65647  -3059618.99645  22962579.3754                   22962580.1914
 -21609673.32448 -16825358.55946  21236069.5164                   21236066.2894
 -30190952.71146 -23509971.79744  24105426.2114                   24105423.9694
 -19883163.57448 -15480122.64846  20926134.0084                   20926130.6334
 -17081434.52748 -13296408.21546  21066357.1644                   21066354.4264
 -24662110.81647 -19200623.93045  22838678.1024                   22838676.7194
 -27720354.18448 -21585051.13346  20798993.6334                   20798988.5084
 11  8  3  2  6 30.0000000  0  7G25G10G17G12G05G04G02
  -4039289.77047  -3136587.35245  22943782.8444                   22943782.7894
 -21587574.59848 -16808138.76646  21240274.4774                   21240271.7074
 -30143294.66446 -23472835.70344  24114494.6724                   24114493.0594
 -19923807.91848 -15511793.54746  20918399.1724                   20918396.0234
 -17163165.52748 -13360094.66446  21050804.3444                   21050801.4414
 -24598849.85947 -19151329.68044  22850717.0474                   22850714.3674
 -27721791.37548 -21586171.01246  20798720.1804                   20798715.4064
 11  8  3  2  7  0.0000000  0  7G25G10G17G12G05G04G02
  -4137647.14147  -3213229.41845  22925065.7034                   22925065.4184
 -21564843.46148 -16790426.18746  21244600.0164                   21244597.3954
 -30095405.87146 -23435519.76244  24123607.2584                   24123605.6374
 -19963839.80148 -15542987.21146  20910781.4844                   20910777.9694
 -17244365.82048 -13423367.58646  21035352.5634                   21035348.9534
 -24535511.82447 -19101975.36345  22862769.5784                   22862767.1454
 -27722967.58248 -21587087.51646  20798496.7584                   20798491.4574
 11  8  3  2  7 30.0000000  0  7G25G10G17G12G05G04G02
  -4235581.34047  -3289541.72745  22906429.8284                   22906429.7384
 -21541479.80148 -16772220.73046  21249045.9924                   21249043.0664
 -30047284.29747 -23398022.41844  24132765.1414                   24132762.5354
 -20003255.82448 -15573700.98846  20903280.7814                   20903277.7304
 -17325031.07448 -13486223.59446  21020002.0394                   21019999.4344
 -24472096.28947 -19052560.66844  22874836.8364                   22874835.1094
 -27723881.58648 -21587799.71546  20798322.5314                   20798317.3094
 11  8  3  2  8  0.0000000  0  7G25G10G17G12G05G04G02
  -4333087.65647  -3365520.60545  22887874.9614                   22887874.9804
 -21517483.07848 -16753521.97346  21253612.0944                   21253609.7854
 -29998927.63747 -23360341.91444  24141967.0164                   24141965.0944
 -20042052.79348 -15603932.37946  20895897.8284                   20895894.5704
 -17405157.61748 -13548659.80946  21004754.4304                   21004751.9384
 -24408602.40647 -19003084.90644  22886919.3984                   22886917.0514
 -27724532.57048 -21588306.96546  20798198.4844                   20798193.4884
 11  8  3  2  8 30.0000000  0  7G25G10G17G12G05G04G02
  -4430162.10947  -3441162.98445  22869402.0164                   22869402.0354
 -21492853.60948 -16734330.16446  21258299.4064                   21258296.4734
 -29950334.08647 -23322476.81244  24151214.6804                   24151212.1884
 -20080229.16848 -15633680.18746  20888633.2274                   20888630.0004
 -17484741.78948 -13610673.40246  20989610.2034                   20989607.5594
 -24345029.77347 -18953547.77344  22899016.8754                   22899014.6724
 -27724920.22348 -21588609.02346  20798125.1804                   20798119.8404
 11  8  3  2  9  0.0000000  0  7G25G10G17G12G05G04G02
  -4526804.01247  -3516468.28945  22851011.3444                   22851012.0594
 -21467594.75448 -16714647.91846  21263105.6254                   21263102.9734
 -29901505.49247 -23284428.53543  24160506.7424                   24160503.0004
 -20117785.22748 -15662944.62546  20881486.2584                   20881482.9184
 -17563783.47748 -13672264.28946  20974569.0634                   20974566.3554
 -24281381.69947 -18903951.85944  22911128.0314                   22911127.3484
 -27725047.78948 -21588708.42246  20798100.6724                   20798095.3674
 11  8  3  2  9 30.0000000  0  7G25G10G17G12G05G04G02
  -4623011.02047  -3591434.73045  22832703.8834                   22832704.3094
 -21441708.49248 -16694476.79746  21268031.7114                   21268028.7894
 -29852442.43446 -23246197.59444  24169841.8524                   24169840.9064
 -20154720.19148 -15691725.10546  20874458.1174                   20874455.0274
 -17642280.83648 -13733431.02346  20959631.4144                   20959629.0004
 -24217659.53947 -18854298.21144  22923254.8284                   22923252.9384
 -27724916.19948 -21588605.86746  20798125.8914                   20798120.5904
 11  8  3  2 10  0.0000000  0  7G25G10G17G12G05G04G02
  -4718782.77347  -3666062.01245  22814479.3914                   22814479.1254
 -21415199.03148 -16673820.05546  21273076.2584                   21273073.3484
 -29803146.73047 -23207785.34044  24179223.3834                   24179220.9774
 -20191035.59448 -15720022.80146  20867547.1564                   20867544.3674
 -17720234.17247 -13794173.83646  20944797.4614                   20944794.6524
 -24153866.60947 -18804589.41444  22935393.9694                   22935391.4574
 -27724528.77348 -21588303.97346  20798199.3204                   20798194.8594
 11  8  3  2 10 30.0000000  0  7G25G10G17G12G05G04G02
  -4814116.85547  -3740348.25045  22796337.5554                   22796338.0904
 -21388068.01648 -16652678.99246  21278239.3524                   21278236.6954
 -29753618.27347 -23169191.73444  24188647.9924                   24188646.0354
 -20226730.56648 -15747837.04346  20860754.7664                   20860751.6294
 -17797641.52748 -13854491.21146  20930067.4534                   20930064.9614
 -24090004.48447 -18754826.72744  22947546.5394                   22947544.3594
 -27723887.31248 -21587804.13346  20798321.3204                   20798316.2344
 11  8  3  2 11  0.0000000  0  7G25G10G17G12G05G04G02
  -4909012.72747  -3814293.01645  22778278.9924                   22778279.9384
 -21360319.20348 -16631056.52046  21283519.3984                   21283516.4844
 -29703858.98447 -23130418.24244  24198116.2974                   24198114.1094
 -20261806.02048 -15775168.54346  20854080.0704                   20854076.8014
 -17874502.99248 -13914383.21146  20915440.7344                   20915438.2274
 -24026076.13747 -18705012.42644  22959711.7664                   22959708.9774
 -27722994.51648 -21587108.43746  20798491.1094                   20798486.0474
 11  8  3  2 11 30.0000000  0  7G25G10G17G12G05G04G02
  -5003467.88747  -3887894.36745  22760305.1564                   22760305.1454
 -21331954.69948 -16608954.29346  21288916.8984                   21288913.8954
 -29653868.67247 -23091464.74644  24207629.3674                   24207627.9884
 -20296261.24248 -15802016.75046  20847523.8914                   20847520.0394
 -17950816.66448 -13973848.37946  20900918.8984                   20900916.0514
 -23962082.92247 -18655147.59044  22971889.6024                   22971887.4614
 -27721851.31248 -21586217.61746  20798708.9534                   20798704.0354
 11  8  3  2 12  0.0000000  0  7G25G10G17G12G05G04G02
  -5097480.35547  -3961150.77745  22742415.3914                   22742415.0704
 -21302976.45348 -16586373.82846  21294431.6094                   21294428.7154
 -29603648.11347 -23052331.85544  24217186.5314                   24217184.4494
 -20330095.71148 -15828381.25846  20841085.0314                   20841081.3914
 -18026581.32048 -14032885.73046  20886501.0704                   20886498.3674
 -23898026.32047 -18605233.35544  22984078.7504                   22984076.6454
 -27720459.57048 -21585133.13746  20798973.7194                   20798968.5984
 11  8  3  2 12 30.0000000  0  7G25G10G17G12G05G04G02
  -5191047.95747  -4034060.54345  22724609.4144                   22724609.9104
 -21273387.00048 -16563317.10946  21300062.4694                   21300059.7194
 -29553197.37547 -23013019.59444  24226786.8444                   24226784.5084
 -20363308.93048 -15854261.66846  20834764.6884                   20834761.4694
 -18101795.16048 -14091493.87546  20872188.7034                   20872186.0434
 -23833908.22347 -18555271.18044  22996279.5474                   22996277.8714
 -27718820.68448 -21583856.07846  20799285.2424                   20799280.3834
 11  8  3  2 13  0.0000000  0  7G25G10G17G12G05G04G02
  -5284170.25447  -4106623.29745  22706888.7114                   22706889.2274
 -21243189.87947 -16539786.85246  21305808.4534                   21305805.6724
 -29502518.37547 -22973529.43744  24236430.3834                   24236428.6804
 -20395902.74248 -15879659.42646  20828562.3524                   20828559.1884
 -18176458.70748 -14149673.21946  20857980.4304                   20857977.6374
 -23769731.62947 -18505263.42644  23008491.9614                   23008490.6094
 -27716937.76248 -21582388.85246  20799643.7504                   20799638.6094
 11  8  3  2 13 30.0000000  0  7G25G10G17G12G05G04G02
  -5376844.46147  -4178836.89845  22689253.6094                   22689254.0234
 -21212387.00847 -16515784.60946  21311669.7734                   21311667.2344
 -29451610.75047 -22933861.19944  24246118.8364                   24246116.5634
 -20427875.46948 -15904573.21146  20822478.2274                   20822475.0274
 -18250569.84048 -14207422.11746  20843877.5394                   20843874.6844
 -23705497.25047 -18455210.67644  23020716.1804                   23020713.4964
 -27714810.96948 -21580731.59446  20800048.3674                   20800043.6454
 11  8  3  2 14  0.0000000  0  7G25G10G17G12G05G04G02
  -5469069.19547  -4250700.27745  22671703.5864                   22671703.8244
 -21180981.09847 -16491312.44946  21317646.0704                   21317643.4024
 -29400475.45347 -22894015.49644  24255848.9774                   24255846.9574
 -20459228.04348 -15929003.77746  20816511.7814                   20816508.3834
 -18324127.52348 -14264739.75446  20829880.0394                   20829876.9264
 -23641207.56647 -18405114.80944  23032949.3524                   23032947.2814
 -27712443.62548 -21578886.89846  20800499.2114                   20800493.5124
 11  8  3  2 14 30.0000000  0  7G25G10G17G12G05G04G02
  -5560842.64847  -4322212.01245  22654239.8444                   22654240.1804
 -21148974.68448 -16466372.37146  21323736.8754                   21323734.1334
 -29349113.28547 -22853993.00844  24265622.2664                   24265620.6174
 -20489959.92648 -15952950.68046  20810663.7584                   20810660.6764
 -18397130.60248 -14321625.22746  20815988.1954                   20815985.0784
 -23576864.13347 -18354977.04744  23045194.1254                   23045191.8204
 -27709837.18748 -21576855.90246  20800995.3204                   20800989.9224
 11  8  3  2 15  0.0000000  0  7G25G10G17G12G05G04G02
  -5652162.94147  -4393370.61345  22636862.1644                   22636862.1724
 -21116370.57048 -16440966.55946  21329941.2894                   21329938.5234
 -29297524.75847 -22813794.17644  24275439.8134                   24275437.9064
 -20520070.99648 -15976413.83246  20804933.7664                   20804930.8014
 -18469578.12148 -14378077.79746  20802201.6334                   20802198.4844
 -23512468.75447 -18304798.81244  23057447.8444                   23057445.9454
 -27706993.05148 -21574639.68046  20801536.2194                   20801531.3444
 11  8  3  2 15 30.0000000  0  7G25G10G17G12G05G04G02
  -5743028.31247  -4464174.73845  22619570.8674                   22619571.4964
 -21083171.18448 -16415096.90246  21336259.1174                   21336256.4184
 -29245710.43747 -22773419.36344  24285300.2894                   24285297.6134
 -20549561.24648 -15999393.23046  20799322.0394                   20799318.9884
 -18541468.87148 -14434096.52746  20788521.1724                   20788518.2274
 -23448023.31647 -18254581.57844  23069711.2814                   23069709.3284
 -27703912.70348 -21572239.39546  20802122.3834                   20802117.0084
 11  8  3  2 16  0.0000000  0  8G29G25G10G17G12G05G04G02
   7733171.80956   6035846.17253  24667477.7584                   24667477.4144
  -5833437.27047  -4534623.23845  22602366.8284                   22602366.8874
 -21049379.61747 -16388765.80146  21342689.1254                   21342686.9024
 -29193671.15646 -22732869.30544  24295201.7974                   24295200.8054
 -20578431.43448 -16021889.46946  20793827.7664                   20793825.0434
 -18612802.21148 -14489680.90646  20774946.8054                   20774944.1254
 -23383529.77046 -18204326.86744  23081984.2274                   23081981.6604
 -27700598.48848 -21569656.88346  20802753.0474                   20802748.0944
 11  8  3  2 16 30.0000000  0  8G29G25G10G17G12G05G04G02
   7635152.24646   5959467.35243  24648824.5784                   24648824.0824
  -5923390.38347  -4604716.52345  22585249.3984                   22585248.7074
 -21015000.38347 -16361976.77346  21349231.6094                   21349228.7704
 -29141409.82046 -22692146.18044  24305147.2974                   24305145.8134
 -20606683.52348 -16043904.07046  20788452.1024                   20788448.9184
 -18683579.17248 -14544831.75446  20761478.5084                   20761475.4884
 -23318992.11346 -18154037.77044  23094264.6724                   23094263.2074
 -27697054.58648 -21566895.38746  20803427.3834                   20803422.2274
 11  8  3  2 17  0.0000000  0  8G29G25G10G17G12G05G04G02
   7537096.98046   5883060.75043  24630165.5944                   24630165.0474
  -6012888.48447  -4674455.26245  22568218.2194                   22568217.9414
 -20980039.48447 -16334734.50446  21355884.1024                   21355881.3364
 -29088930.00046 -22651252.80143  24315132.9064                   24315131.8204
 -20634320.29748 -16065439.20346  20783192.9614                   20783189.7034
 -18753801.49648 -14599550.39146  20748115.7894                   20748112.7344
 -23254414.89847 -18103717.84444  23106554.1334                   23106552.0314
 -27693285.00048 -21563958.03546  20804144.5394                   20804139.9384
 11  8  3  2 17 30.0000000  0  8G29G25G10G17G12G05G04G02
   7439005.30946   5806625.80543  24611499.7584                   24611499.0514
  -6101930.26647  -4743838.42245  22551274.5944                   22551274.2034
 -20944499.70347 -16307041.14545  21362647.4534                   21362644.3404
 -29036232.73046 -22610190.00843  24325162.1484                   24325159.7464
 -20661342.34048 -16086495.33246  20778050.3524                   20778047.3794
 -18823468.66848 -14653836.46546  20734858.6024                   20734855.6024
 -23189800.27046 -18053368.78944  23118849.7344                   23118847.7194
 -27689292.32848 -21560846.84846  20804904.6484                   20804898.9574
 11  8  3  2 18  0.0000000  0  8G29G25G10G17G12G05G04G02
   7340878.17646   5730163.19143  24592826.4064                   24592826.0554
  -6190512.87548  -4812863.78145  22534417.5234                   22534417.3204
 -20908382.67247 -16278897.98446  21369519.8834                   21369517.0084
 -28983317.53946 -22568957.37143  24335231.4924                   24335229.6094
 -20687748.71148 -16107071.71146  20773025.7344                   20773022.2664
 -18892578.59048 -14707688.30946  20721707.3054                   20721704.4844
 -23125148.85546 -18002991.07044  23131152.1804                   23131150.3404
 -27685076.68748 -21557561.91846  20805706.8594                   20805701.6804
 11  8  3  2 18 30.0000000  0  8G29G25G10G17G12G05G04G02
   7242716.17646   5653673.37144  24574148.0004                   24574145.7114
  -6278633.95347  -4881529.51645  22517648.1644                   22517648.7074
 -20871690.64847 -16250306.79346  21376502.1564                   21376499.5944
 -28930184.41046 -22527554.92644  24345341.8754                   24345340.6884
 -20713538.73048 -16127167.81647  20768118.5084                   20768114.8364
 -18961129.55548 -14761104.61747  20708662.3984                   20708659.5234
 -23060461.58247 -17952585.39544  23143461.7974                   23143459.5044
 -27680639.38748 -21554104.26246  20806550.8444                   20806546.2194
 11  8  3  2 19  0.0000000  0  8G29G25G10G17G12G05G04G02
   7144519.71546   5577156.77044  24555460.4304                   24555460.5474
  -6366291.04347  -4949833.70345  22500968.0634                   22500967.3014
 -20834425.62547 -16221269.10546  21383593.3754                   21383591.2034
 -28876833.24246 -22485982.62144  24355494.8364                   24355491.9964
 -20738711.53948 -16146782.97747  20763327.5004                   20763324.6174
 -19029119.83648 -14814084.01247  20695724.0474                   20695721.6024
 -22995739.34447 -17902152.46544  23155778.0234                   23155776.0234
 -27675981.49248 -21550474.70746  20807437.3054                   20807432.2034
 11  8  3  2 19 30.0000000  0  8G29G25G10G17G12G05G04G02
   7046290.16446   5500614.28544  24536768.1174                   24536767.5984
  -6453481.25847  -5017774.09045  22484375.7114                   22484375.5744
 -20796588.63748 -16191785.74246  21390793.8984                   21390791.1954
 -28823263.54346 -22444239.97743  24365688.8364                   24365686.1374
 -20763266.87148 -16165916.98846  20758655.2344                   20758651.8014
 -19096547.34848 -14866624.88746  20682893.3364                   20682890.5704
 -22930982.63346 -17851692.67644  23168100.3364                   23168098.4304
 -27671103.20748 -21546673.42246  20808365.3594                   20808360.6134
 11  8  3  2 20  0.0000000  0  8G29G25G10G17G12G05G04G02
   6948028.35246   5424046.72744  24518069.1724                   24518069.6054
  -6540201.78147  -5085348.48845  22467874.0634                   22467874.0474
 -20758181.76648 -16161858.31246  21398102.4924                   21398099.7584
 -28769475.11746 -22402326.90643  24375924.3204                   24375921.5704
 -20787203.83248 -16184569.15646  20754100.0314                   20754096.7934
 -19163410.00448 -14918725.62147  20670169.6804                   20670166.5004
 -22866192.17646 -17801206.62544  23180429.8204                   23180427.9024
 -27666005.47348 -21542701.15646  20809335.5234                   20809330.3324
 11  8  3  2 20 30.0000000  0  8G29G25G10G17G12G05G04G02
   6849734.02347   5347453.82844  24499364.5634                   24499364.5634
  -6626451.15247  -5152555.74645  22451460.8444                   22451461.3984
 -20719208.09848 -16131489.21545  21405518.5864                   21405516.0744
 -28715468.77346 -22360244.04343  24386201.0394                   24386199.4104
 -20810522.56248 -16202739.58246  20749662.7034                   20749659.6134
 -19229707.18748 -14970385.72347  20657553.8054                   20657550.9494
 -22801369.77047 -17750695.63744  23192765.6174                   23192762.5904
 -27660690.23848 -21538559.40246  20810346.9304                   20810341.7974
 11  8  3  2 21  0.0000000  0  8G29G25G10G17G12G05G04G02
   6751406.09847   5270834.70744  24480653.0704                   24480653.6804
  -6712228.92647  -5219395.54345  22435138.0234                   22435137.7704
 -20679671.93047 -16100681.81646  21413042.5784                   21413039.6054
 -28661246.37947 -22317992.80544  24396519.2974                   24396517.7194
 -20833224.41048 -16220429.32046  20745342.6804                   20745339.0554
 -19295439.22748 -15021605.45347  20645045.5314                   20645042.2344
 -22736518.43046 -17700162.12144  23205106.5864                   23205103.9184
 -27655160.06648 -21534250.16046  20811399.7974                   20811394.5704
 11  8  3  2 21 30.0000000  0  8G29G25G10G17G12G05G04G02
   6653047.52047   5194191.74643  24461935.8594                   24461935.4144
  -6797530.24647  -5285864.05545  22418905.7974                   22418905.3594
 -20639572.37147 -16069435.39846  21420672.8984                   21420670.2424
 -28606805.47346 -22275571.30143  24406879.3134                   24406876.9804
 -20855306.59848 -16237636.21146  20741140.3444                   20741136.7814
 -19360602.40248 -15072381.91847  20632644.9534                   20632641.9104
 -22671636.53546 -17649604.80543  23217452.0944                   23217450.5744
 -27649413.62948 -21529772.40246  20812493.0554                   20812487.5864
 11  8  3  2 22  0.0000000  0  8G29G25G10G17G12G05G04G02
   6554659.07847   5117525.45743  24443213.8754                   24443212.0274
  -6882352.62147  -5351959.37545  22402764.5004                   22402764.5124
 -20598911.82047 -16037751.85545  21428410.0394                   21428407.7074
 -28552146.08646 -22232979.57043  24417280.1334                   24417277.8874
 -20876768.73048 -16254359.94146  20737056.4224                   20737052.8834
 -19425194.74248 -15122713.56647  20620353.6644                   20620350.2544
 -22606724.87146 -17599024.28544  23229804.7424                   23229802.5984
 -27643451.51648 -21525126.57846  20813627.8054                   20813622.9024
 11  8  3  2 22 30.0000000  0  8G29G25G10G17G12G05G04G02
   6456240.97747   5040836.09443  24424485.4454                   24424484.5704
  -6966694.53547  -5417680.30945  22386714.9144                   22386714.5824
 -20557692.97347 -16005633.26646  21436254.2194                   21436251.5354
 -28497268.79346 -22190218.07443  24427722.3524                   24427721.0944
 -20897610.70748 -16270600.43046  20733090.3834                   20733086.9024
 -19489215.80548 -15172600.07447  20608170.6254                   20608168.1024
 -22541785.22346 -17548421.94944  23242162.8984                   23242160.7234
 -27637275.66848 -21520314.21546  20814802.4774                   20814798.2274
 11  8  3  2 23  0.0000000  0  8G29G25G10G17G12G05G04G02
   6357793.48847   4964123.82843  24405751.4144                   24405749.4694
  -7050553.74647  -5483025.10245  22370756.7974                   22370756.5004
 -20515918.46147 -15973081.70745  21444203.6804                   21444200.6054
 -28442173.86746 -22147286.96543  24438208.0004                   24438205.1524
 -20917832.94948 -16286358.01646  20729241.8364                   20729238.4844
 -19552664.14848 -15222040.30546  20596096.8284                   20596094.1254
 -22476818.46946 -17497798.50844  23254525.2584                   23254523.1294
 -27630887.48448 -21515336.40246  20816018.4614                   20816013.0354
 11  8  3  2 23 30.0000000  0  8G29G25G10G17G12G05G04G02
   6259317.73047   4887389.49243  24387011.9614                   24387011.0784
  -7133927.61747  -5547991.70345  22354891.3754                   22354891.0164
 -20473590.05147 -15940098.53545  21452258.1334                   21452255.5124
 -28386860.85946 -22104185.91043  24448732.9454                   24448731.1454
 -20937434.72348 -16301632.11746  20725511.7114                   20725508.3874
 -19615537.53548 -15271032.52347  20584132.5314                   20584129.6954
 -22411825.33646 -17447154.50044  23266893.1564                   23266890.5394
 -27624287.57048 -21510193.60546  20817274.0944                   20817269.3524
 11  8  3  2 24  0.0000000  0  8G29G25G10G17G12G05G04G02
   6160815.18846   4810634.27743  24368267.0784                   24368266.8914
  -7216812.95348  -5612577.62945  22339118.6024                   22339118.4964
 -20430708.85547 -15906684.62145  21460418.6094                   21460415.1484
 -28331329.37946 -22060914.63743  24459300.4694                   24459298.7234
 -20956414.85948 -16316421.82846  20721900.3444                   20721896.8794
 -19677834.07848 -15319575.25847  20572277.4144                   20572275.0514
 -22346805.73847 -17396489.89544  23279265.1174                   23279264.4574
 -27617475.89848 -21504885.79746  20818570.5314                   20818565.4024
 11  8  3  2 24 30.0000000  0  8G29G25G10G17G12G05G04G02
   6062283.32046   4733856.26243  24349517.2974                   24349517.1684
  -7299210.57048  -5676783.52345  22323439.1954                   22323438.8554
 -20387280.50447 -15872844.34445  21468682.5474                   21468679.7704
 -28275582.21146 -22017475.28543  24469908.4534                   24469906.6214
 -20974776.10248 -16330729.28546  20718405.6564                   20718402.5004
 -19739555.54348 -15367669.87547  20560532.5004                   20560529.3094
 -22281763.70347 -17345807.80144  23291643.4454                   23291640.8914
 -27610456.31648 -21499415.98046  20819906.3524                   20819901.0824
 11  8  3  2 25  0.0000000  0  7G29G25G10G12G05G04G02
   5963723.69146   4657056.57443  24330761.2034                   24330761.4884
  -7381117.43448  -5740607.00446  22307852.7734                   22307852.2934
 -20343306.37147 -15838578.76645  21477050.6484                   21477047.2304
 -20992517.48048 -16344553.72746  20715029.7584                   20715026.5784
 -19800699.42248 -15415314.42247  20548897.3444                   20548894.4494
 -22216699.49247 -17295108.41044  23304024.5864                   23304022.4104
 -27603228.96548 -21493784.28146  20821281.4144                   20821276.5044
 11  8  3  2 25 30.0000000  0  7G29G25G10G12G05G04G02
   5865137.37146   4580236.14843  24312001.9774                   24312000.3714
  -7462531.22747  -5804046.27346  22292359.9064                   22292359.6884
 -20298788.50848 -15803889.50845  21485522.0944                   21485519.0824
 -21009638.62148 -16357894.87946  20711772.0314                   20711768.9844
 -19861264.56248 -15462508.00847  20537371.9924                   20537368.9884
 -22151613.69147 -17244392.21544  23316410.0784                   23316408.1054
 -27595795.07848 -21487991.62946  20822696.2114                   20822691.1054
 11  8  3  2 26  0.0000000  0  7G29G25G10G12G05G04G02
   5766526.94546   4503396.93443  24293236.7034                   24293234.9064
  -7543447.82047  -5867098.11745  22276961.7194                   22276961.3524
 -20253727.38747 -15768776.94145  21494097.0634                   21494093.7664
 -21026137.69548 -16370751.29746  20708632.3524                   20708628.8874
 -19921247.75048 -15509248.13347  20525957.6804                   20525954.6414
 -22086505.23847 -17193658.36344  23328799.0474                   23328797.6374
 -27588153.57448 -21482037.19546  20824150.2344                   20824145.1644
 11  8  3  2 26 30.0000000  0  7G29G25G10G12G05G04G02
   5667895.61346   4426541.39543  24274467.1644                   24274466.3754
  -7623862.16448  -5929758.59045  22261659.7114                   22261658.5474
 -20208122.50847 -15733240.66445  21502775.1094                   21502772.1524
 -21042011.75048 -16383120.68446  20705611.5234                   20705608.0124
 -19980644.57448 -15555531.34047  20514654.4694                   20514652.0124
 -22021372.18047 -17142905.32444  23341194.0704                   23341192.1374
 -27580302.41048 -21475919.39846  20825644.3204                   20825639.3674
 11  8  3  2 27  0.0000000  0  7G29G25G10G12G05G04G02
   5569243.03946   4349669.35244  24255694.8444                   24255693.6484
  -7703773.33247  -5992026.98045  22246453.0704                   22246452.8244
 -20161977.86347 -15697283.80545  21511556.4144                   21511553.4144
 -21057262.04748 -16395004.02746  20702709.5084                   20702705.9184
 -20039455.36348 -15601357.89847  20503463.2894                   20503460.6994
 -21956216.99247 -17092135.05144  23353592.5314                   23353590.7424
 -27572244.02348 -21469640.12546  20827177.8674                   20827173.4384
 11  8  3  2 27 30.0000000  0  7G29G25G10G12G05G04G02
   5470570.64547   4272781.84043  24236917.8674                   24236916.8364
  -7783178.52048  -6053901.10945  22231342.6024                   22231342.3594
 -20115294.93447 -15660907.47745  21520439.7274                   21520437.2624
 -21071887.64548 -16406400.58647  20699926.4614                   20699922.8524
 -20097678.02748 -15646726.16447  20492383.7734                   20492380.6994
 -21891039.51247 -17041347.43044  23365995.0704                   23365993.5124
 -27563978.70348 -21463199.60946  20828750.5314                   20828745.6644
 11  8  3  2 28  0.0000000  0  7G29G25G10G12G05G04G02
   5371877.88747   4195878.47744  24218137.7034                   24218135.6174
  -7862077.01647  -6115380.40646  22216328.7974                   22216328.6214
 -20068077.27747 -15624114.49245  21529424.9614                   21529421.7074
 -21085890.00048 -16417311.50446  20697261.7424                   20697258.2424
 -20155312.89848 -15691636.43047  20481416.2734                   20481413.1914
 -21825842.12947 -16990544.29344  23378402.4144                   23378400.2974
 -27555508.91048 -21456599.75846  20830362.5394                   20830357.1724
 11  8  3  2 28 30.0000000  0  7G29G25G10G12G05G04G02
   5273163.82847   4118958.52344  24199352.9454                   24199352.2624
  -7940468.20747  -6176464.40646  22201410.9454                   22201410.8444
 -20020329.07847 -15586908.10545  21538510.9144                   21538507.6524
 -21099270.46148 -16427737.83247  20694715.7734                   20694712.4494
 -20212360.50848 -15736089.07847  20470560.6484                   20470557.3554
 -21760627.23047 -16939727.50844  23390812.0864                   23390810.3874
 -27546837.18748 -21449842.57846  20832012.7814                   20832007.7384
 11  8  3  2 29  0.0000000  0  7G29G25G10G12G05G04G02
   5174428.31347   4042021.81644  24180563.7194                   24180562.7274
  -8018350.71948  -6237152.02345  22186590.9534                   22186590.6134
 -19972053.51247 -15549290.76645  21547697.7424                   21547694.3834
 -21112029.67248 -16437680.06646  20692287.4924                   20692284.0744
 -20268819.98848 -15780083.44147  20459816.7194                   20459813.8444
 -21695396.41847 -16888898.31244  23403225.0394                   23403223.4144
 -27537964.88348 -21442929.09046  20833700.6094                   20833695.3834
 11  8  3  2 29 30.0000000  0  7G29G25G10G12G05G04G02
   5075672.37147   3965069.21944  24161771.4144                   24161770.5314
  -8095722.29748  -6297441.53946  22171867.5634                   22171866.8404
 -19923253.02047 -15511264.39145  21556983.9224                   21556981.0314
 -21124168.22348 -16447138.67646  20689977.9224                   20689974.6454
 -20324690.47748 -15823618.85547  20449184.9224                   20449181.9844
 -21630150.44946 -16838057.31644  23415641.0634                   23415638.6884
 -27528893.03948 -21435860.11346  20835427.0944                   20835421.8634
 11  8  3  2 30  0.0000000  0  7G29G25G10G12G05G04G02
   4976896.15646   3888100.84444  24142973.9454                   24142973.9734
  -8172581.40248  -6357331.71546  22157241.6884                   22157240.9844
 -19873930.39847 -15472831.16845  21566369.8914                   21566366.5744
 -21135686.29348 -16456113.78947  20687786.2424                   20687782.8014
 -20379971.34848 -15866694.83247  20438665.1094                   20438661.8674
 -21564890.62147 -16787205.49644  23428060.0784                   23428057.7114
 -27519623.37948 -21428636.98846  20837190.8674                   20837186.4024
 11  8  3  2 30 30.0000000  0  7G29G25G10G12G05G04G02
   4878099.16046   3811116.25844  24124174.3284                   24124172.8164
  -8248927.39547  -6416822.05546  22142713.5164                   22142713.3794
 -19824089.66047 -15433994.22745  21575854.2814                   21575850.8404
 -21146585.68748 -16464606.80946  20685711.9614                   20685708.5984
 -20434662.83648 -15909311.54347  20428257.6954                   20428254.8594
 -21499619.13346 -16736344.60544  23440480.1804                   23440478.8324
 -27510157.96148 -21421261.32046  20838992.5084                   20838987.4804
 11  8  3  2 31  0.0000000  0  7G29G25G10G12G05G04G02
   4779281.58646   3734115.66044  24105369.4144                   24105368.6524
  -8324758.55148  -6475911.23446  22128282.9694                   22128283.0474
 -19773733.63747 -15394755.75845  21585436.2734                   21585433.7854
 -21156866.62548 -16472617.92647  20683755.4694                   20683752.1524
 -20488764.19548 -15951468.42647  20417962.5704                   20417959.4344
 -21434337.25447 -16685475.62544  23452903.4454                   23452900.8484
 -27500498.15248 -21413734.18746  20840830.1804                   20840825.0474
 11  8  3  2 31 30.0000000  0  7G29G25G10G12G05G04G02
   4680444.60546   3657099.91044  24086560.9614                   24086561.0864
  -8400072.59848  -6534597.48846  22113951.3134                   22113951.2974
 -19722864.41047 -15355117.40645  21595116.5084                   21595113.9694
 -21166528.99648 -16480147.03546  20681916.7424                   20681913.3914
 -20542274.12548 -15993164.44147  20407779.9224                   20407777.0124
 -21369045.47747 -16634598.91444  23465327.7504                   23465325.5124
 -27490644.76648 -21406056.19946  20842705.5314                   20842700.0984
 11  8  3  2 32  0.0000000  0  7G29G25G10G12G05G04G02
   4581589.49646   3580070.01644  24067749.8914                   24067748.4064
  -8474867.31648  -6592879.07446  22099718.3054                   22099718.2114
 -19671484.28947 -15315080.96145  21604894.0864                   21604891.1094
 -21175573.06248 -16487194.36346  20680195.2194                   20680192.1134
 -20595191.72348 -16034398.91047  20397710.0004                   20397706.7584
 -21303744.35247 -16583714.92244  23477754.4384                   23477752.3554
 -27480598.17648 -21398227.67646  20844617.2734                   20844612.2814
 11  8  3  2 32 30.0000000  0  7G29G25G10G12G05G04G02
   4482715.32446   3503025.28543  24048934.4614                   24048933.5744
  -8549142.06648  -6650755.47746  22085584.3204                   22085583.6644
 -19619597.19547 -15274649.44945  21614768.0704                   21614764.7704
 -21184000.41448 -16493761.11746  20678592.0634                   20678588.7074
 -20647517.19148 -16075171.97347  20387752.6024                   20387749.7584
 -21238436.16047 -16532825.42644  23490182.0784                   23490179.3284
 -27470361.00848 -21390250.64846  20846565.4224                   20846560.1724
 11  8  3  2 33  0.0000000  0  7G29G25G10G12G05G04G02
   4383821.80646   3425965.49643  24030115.6414                   24030114.1094
  -8622896.07848  -6708226.11746  22071549.6484                   22071549.3164
 -19567206.98047 -15233825.90645  21624737.0864                   21624734.3914
 -21191812.23048 -16499848.24246  20677105.5554                   20677102.0824
 -20699250.63748 -16115483.72747  20377908.4694                   20377904.9414
 -21173122.75847 -16481931.84444  23502610.4304                   23502608.1374
 -27459935.22348 -21382126.64546  20848549.2274                   20848544.5744
 11  8  3  2 33 30.0000000  0  7G29G25G10G12G05G04G02
   4284910.42646   3348891.80543  24011292.9064                   24011291.6844
  -8696126.69548  -6765288.91446  22057614.1414                   22057614.2814
 -19514315.51248 -15192611.77045  21634802.0164                   21634799.0824
 -21199008.36748 -16505455.61346  20675736.3284                   20675733.0274
 -20750390.52348 -16155332.96947  20368176.8134                   20368173.2664
 -21107804.22747 -16431034.31644  23515040.7584                   23515038.3054
 -27449321.40648 -21373856.12946  20850568.6954                   20850563.6524
 11  8  3  2 34  0.0000000  0  7G29G25G10G12G05G04G02
   4185982.68846   3271805.35544  23992467.4224                   23992466.8714
  -8768831.03948  -6821941.63346  22043778.9614                   22043778.2854
 -19460924.23848 -15151008.17245  21644962.5474                   21644959.3874
 -21205588.02048 -16510582.60946  20674483.9304                   20674480.7624
 -20800935.20348 -16194718.41447  20358558.3984                   20358554.9454
 -21042480.36347 -16380132.59044  23527471.0474                   23527469.0904
 -27438519.43448 -21365438.98046  20852624.3834                   20852619.2384
 11  8  3  2 34 30.0000000  0  7G29G25G10G12G05G04G02
   4087037.58646   3194705.38744  23973638.5704                   23973638.0124
  -8841009.45348  -6878184.54346  22030043.9454                   22030043.4884
 -19407038.18447 -15109019.03545  21655216.4144                   21655213.1954
 -21211553.88748 -16515231.33246  20673348.7734                   20673345.6724
 -20850885.88748 -16233640.99647  20349052.8674                   20349049.9454
 -20977154.45747 -16329229.28144  23539902.8524                   23539900.6604
 -27427532.28148 -21356877.55146  20854715.3754                   20854710.3204
 11  8  3  2 35  0.0000000  0  7G29G25G10G12G05G04G02
   3988076.90647   3117593.29343  23954807.4844                   23954806.4344
  -8912659.00448  -6934015.35246  22016409.4924                   22016409.2504
 -19352659.06247 -15066645.70345  21665564.2974                   21665561.3954
 -21216905.49648 -16519401.41446  20672330.1724                   20672327.1844
 -20900240.62148 -16272099.19947  20339661.1254                   20339658.0744
 -20911825.93047 -16278323.93744  23552334.0704                   23552331.6844
 -27416359.88748 -21348171.78146  20856841.5474                   20856835.9654
 11  8  3  2 35 30.0000000  0  7G29G25G10G12G05G04G02
   3889100.86346   3040469.22344  23935972.7664                   23935971.5474
  -8983778.48048  -6989433.09846  22002875.6884                   22002875.7504
 -19297790.08648 -15023890.64845  21676005.5864                   21676002.9694
 -21221643.52348 -16523093.37946  20671428.5394                   20671425.5354
 -20948999.36748 -16310093.00047  20330382.5474                   20330379.2734
 -20846496.21147 -16227417.64544  23564765.5084                   23564763.5514
 -27405003.96548 -21339322.98046  20859002.3284                   20858996.9574
 11  8  3  2 36  0.0000000  0  7G29G25G10G12G05G04G02
   3790110.04746   2963333.65643  23917135.8364                   23917133.8164
  -9054366.02348  -7044436.36346  21989443.4774                   21989442.7974
 -19242434.01247 -14980756.03945  21686539.8444                   21686536.4884
 -21225768.69548 -16526307.79746  20670643.7734                   20670640.3284
 -20997161.69148 -16347622.07047  20321217.3364                   20321214.4224
 -20781166.22747 -16176511.15244  23577197.1884                   23577195.3484
 -27393465.32848 -21330331.80946  20861198.1024                   20861192.9024
 11  8  3  2 36 30.0000000  0  7G29G25G10G12G05G04G02
   3691105.29746   2886187.22744  23898295.5944                   23898293.7304
  -9124420.03948  -7099023.87946  21976112.5554                   21976112.3794
 -19186593.48847 -14937243.93745  21697165.5314                   21697162.8484
 -21229280.94548 -16529044.60946  20669975.3914                   20669971.6804
 -21044726.63748 -16384685.62947  20312165.7274                   20312162.9844
 -20715836.91847 -16125605.18444  23589629.0944                   23589627.1094
 -27381745.36348 -21321199.34446  20863428.0554                   20863423.2194
 11  8  3  2 37  0.0000000  0  7G29G25G10G12G05G04G02
   3592087.60546   2809030.69144  23879452.3914                   23879451.4144
  -9193938.40648  -7153194.00046  21962883.8204                   21962883.4414
 -19130270.73447 -14893356.09445  21707883.2974                   21707880.8324
 -21232181.71548 -16531304.93746  20669423.3054                   20669420.0554
 -21091693.35548 -16421283.04747  20303228.8594                   20303225.4964
 -20650508.69947 -16074700.04743  23602060.5784                   23602058.7544
 -27369844.48048 -21311925.91046  20865693.1414                   20865687.8954
 11  8  3  2 37 30.0000000  0  7G29G25G10G12G05G04G02
   3493057.43847   2731864.44544  23860608.3134                   23860606.2584
  -9262919.80548  -7206945.70746  21949756.8054                   21949756.6724
 -19073469.17647 -14849095.12945  21718692.3284                   21718689.5944
 -21234471.66848 -16533089.30546  20668987.6414                   20668984.1054
 -21138061.71948 -16457414.21547  20294404.7664                   20294401.8714
 -20585182.57047 -16023796.57043  23614491.5004                   23614489.1954
 -27357764.08648 -21302512.59446  20867991.8834                   20867987.0084
 11  8  3  2 38  0.0000000  0  7G29G25G10G12G05G04G02
   3394015.39147   2654688.94544  23841761.0314                   23841759.5704
  -9331362.73848  -7260277.82846  21936732.5084                   21936732.3094
 -19016191.54347 -14804463.19945  21729591.6484                   21729589.4264
 -21236151.19148 -16534398.02046  20668668.1644                   20668664.6294
 -21183831.14848 -16493078.67247  20285695.3524                   20285692.1134
 -20519859.94947 -15972895.85944  23626922.2974                   23626920.2114
 -27345505.64848 -21292960.54346  20870324.4844                   20870319.3404
 11  8  3  2 38 30.0000000  0  7G29G25G10G12G05G04G02
   3294961.46947   2577504.22344  23822911.7344                   23822910.9224
  -9399266.12548  -7313189.51246  21923811.1024                   21923810.6414
 -18958441.15247 -14759462.86745  21740581.5314                   21740578.6524
 -21237221.90248 -16535232.33646  20668464.2584                   20668460.5864
 -21229001.63748 -16528276.43047  20277099.5634                   20277096.3954
 -20454542.06247 -15921998.81643  23639351.9614                   23639349.6724
 -27333070.25448 -21283270.61346  20872690.7894                   20872685.5744
 11  8  3  2 39  0.0000000  0  7G29G25G10G12G05G04G02
   3195897.44146   2500311.63744  23804059.7974                   23804059.3554
  -9466627.48848  -7365678.84046  21910992.2734                   21910992.1024
 -18900220.24247 -14714095.91445  21751660.0164                   21751657.7344
 -21237683.73848 -16535592.19946  20668376.3364                   20668372.5904
 -21273571.96948 -16563006.52347  20268618.2894                   20268615.3834
 -20389228.84447 -15871105.39843  23651780.1724                   23651778.2854
 -27320458.23048 -21273443.04746  20875090.7114                   20875085.7074
 11  8  3  2 39 30.0000000  0  7G29G25G10G12G05G04G02
   3096824.31647   2423111.95344  23785206.8594                   23785205.7624
  -9533445.27348  -7417744.59046  21898277.2894                   21898276.7814
 -18841531.69547 -14668364.58645  21762828.4694                   21762825.5124
 -21237537.02348 -16535477.86746  20668404.5004                   20668400.8634
 -21317541.96948 -16597268.82847  20260250.8594                   20260247.6454
 -20323921.00847 -15820216.17244  23664208.4774                   23664205.6054
 -27307671.02748 -21263478.96946  20877524.0704                   20877518.9064
 11  8  3  2 40  0.0000000  0  7G29G25G10G12G05G04G02
   2997741.88746   2345905.02744  23766352.2734                   23766350.3914
  -9599718.56648  -7469386.07446  21885666.0784                   21885665.3554
 -18782379.11747 -14622271.67245  21774085.1174                   21774082.5044
 -21236783.30148 -16534890.54746  20668547.9064                   20668544.4844
 -21360911.53948 -16631063.27047  20251998.1804                   20251995.1024
 -20258620.25447 -15769332.46144  23676635.0634                   23676632.5594
 -27294709.94148 -21253379.41446  20879990.6094                   20879985.2194
 11  8  3  2 40 30.0000000  0  7G29G25G10G12G05G04G02
   2898651.00047   2268691.49244  23747495.2504                   23747493.2854
  -9665446.10548  -7520602.28946  21873158.5234                   21873157.9964
 -18722765.52747 -14575819.51645  21785428.9844                   21785425.8954
 -21235423.92248 -16533831.28146  20668806.3984                   20668803.3204
 -21403680.57848 -16664389.77047  20243859.1644                   20243855.9654
 -20193327.48847 -15718454.96544  23689060.0004                   23689057.6724
 -27281576.34048 -21243145.42646  20882489.6644                   20882484.2894
 11  8  3  2 41  0.0000000  0  7G29G25G10G12G05G04G02
   2799552.91447   2191472.31344  23728637.9224                   23728635.5434
  -9730625.37948  -7571391.27346  21860754.8914                   21860754.8204
 -18662692.84847 -14529009.63745  21796860.6644                   21796857.5514
 -21233458.99248 -16532300.16446  20669180.3284                   20669176.8524
 -21445847.55148 -16697247.11747  20235835.0394                   20235831.8674
 -20128042.62547 -15667583.64844  23701483.1094                   23701481.3714
 -27268270.52048 -21232777.23846  20885021.9774                   20885016.4064
 11  8  3  2 41 30.0000000  0  7G29G25G10G12G05G04G02
   2700449.49247   2114249.02044  23709779.0554                   23709776.1844
  -9795254.21148  -7621751.34846  21848456.4144                   21848456.6054
 -18602163.20347 -14481843.67645  21808378.8834                   21808376.1954
 -21230888.26248 -16530296.99246  20669669.6804                   20669666.1644
 -21487411.61348 -16729634.67247  20227925.5164                   20227922.8204
 -20062765.62547 -15616718.45344  23713904.2584                   23713902.9454
 -27254792.24648 -21222274.67646  20887586.6024                   20887581.5234
 11  8  3  2 42  0.0000000  0  7G29G25G10G12G05G04G02
   2601340.20746   2037021.15244  23690919.0864                   23690916.7814
  -9859332.48048  -7671682.41446  21836262.9144                   21836262.7814
 -18541181.02747 -14434325.08245  21819983.7814                   21819980.4964
 -21227714.05548 -16527823.58646  20670273.3524                   20670269.9924
 -21528373.96948 -16761553.36747  20220130.5554                   20220127.7464
 -19997499.00046 -15565861.35943  23726323.6334                   23726321.8914
 -27241144.18748 -21211639.82046  20890183.9454                   20890178.6024
 11  8  3  2 42 30.0000000  0  7G29G25G10G12G05G04G02
   4077649.25046   3187391.92644  23971851.0704                   23971849.7854
  -8347436.42648  -6493581.55146  22123967.1414                   22123966.2774
 -16904331.00847 -13158857.53545  22131465.9144                   22131462.9304
 -19648517.05948 -15297280.46546  20970784.7344                   20970781.1684
 -19993312.59448 -15565401.62147  20512243.2814                   20512239.9454
 -18356825.07846 -14287414.17243  24038534.1954                   24038532.0084
 -25651907.51648 -19973273.57846  21192605.4224                   21192600.4454
 11  8  3  2 43  0.0000000  0  7G29G25G10G12G05G04G02
   3978531.26646   3110157.23844  23952989.0234                   23952988.0664
  -8410408.37548  -6542650.56246  22111984.0634                   22111983.6374
 -16842451.36347 -13110639.62545  22143241.6334                   22143238.0944
 -19644138.09048 -15293868.28546  20971618.0554                   20971614.4774
 -20033069.43748 -15596380.96147  20504677.8364                   20504674.6764
 -18291580.23046 -14236574.03144  24050949.8444                   24050947.5274
 -25637922.21548 -19962375.93046  21195266.5164                   21195261.3204
 11  8  3  2 43 30.0000000  0  7G29G25G10G12G05G04G02
   3879410.73047   3032920.54344  23934127.0394                   23934126.2234
  -8472824.16448  -6591286.18746  22100106.6484                   22100106.2974
 -16780126.76247 -13062075.00045  22155100.9384                   22155097.9694
 -19639157.25048 -15289987.09846  20972565.8524                   20972562.3364
 -20072222.41448 -15626889.75447  20497227.2034                   20497224.3094
 -18226346.57846 -14185742.62943  24063363.6334                   24063361.7424
 -25623768.99648 -19951347.44546  21197960.0004                   21197954.4844
 11  8  3  2 44  0.0000000  0  7G29G25G10G12G05G04G02
   3780288.81647   2955682.75044  23915265.0704                   23915262.6024
  -8534682.59048  -6639487.52046  22088335.2664                   22088334.8364
 -16717360.28148 -13013166.05545  22167044.8984                   22167041.9304
 -19633575.62148 -15285637.78546  20973627.7344                   20973624.9964
 -20110771.39548 -15656927.89847  20489891.4384                   20489888.2344
 -18161124.99646 -14134920.62543  24075774.6484                   24075772.9264
 -25609448.87548 -19940188.90246  21200685.0234                   21200680.2584
 11  8  3  2 44 30.0000000  0  7G29G25G10G12G05G04G02
   3681165.81647   2878444.10544  23896402.8284                   23896400.0864
  -8595982.57848  -6687253.71146  22076670.5164                   22076670.0314
 -16654155.20347 -12963915.36745  22179072.4454                   22179069.7854
 -19627394.95348 -15280821.67646  20974803.9454                   20974800.9924
 -20148716.41448 -15686495.42647  20482670.8754                   20482668.1254
 -18095916.67246 -14084108.94943  24088182.9144                   24088181.8794
 -25594963.09448 -19928901.26646  21203441.4384                   21203435.9844
 11  8  3  2 45  0.0000000  0  7G29G25G10G12G05G04G02
   3582042.70747   2801205.39144  23877540.2194                   23877538.5744
  -8656722.71148  -6734583.64146  22065111.9144                   22065111.2114
 -16590514.22747 -12914324.99645  22191182.8204                   22191180.7344
 -19620615.96948 -15275539.35246  20976094.0394                   20976090.9804
 -20186057.41448 -15715592.28147  20475565.3674                   20475562.3874
 -18030722.22346 -14033308.07043  24100589.0864                   24100587.4534
 -25580312.82048 -19917485.46546  21206229.1094                   21206224.6914
 11  8  3  2 45 30.0000000  0  7G29G25G10G12G05G04G02
   3482919.75847   2723966.81344  23858677.1564                   23858675.9184
  -8716902.19548  -6781476.72346  22053660.1174                   22053659.5514
 -16526440.68747 -12864397.57045  22203375.5004                   22203372.5944
 -19613240.19548 -15269791.99646  20977497.7894                   20977494.1684
 -20222794.84448 -15744218.83247  20468574.5004                   20468571.4104
 -17965543.00846 -13982519.09043  24112992.1804                   24112990.9884
 -25565499.29748 -19905942.46146  21209048.3364                   21209042.8444
 11  8  3  2 46  0.0000000  0  7G29G25G10G12G05G04G02
   3383798.45747   2646729.51244  23839814.9614                   23839814.2034
  -8776519.05548  -6827931.38346  22042315.3674                   22042314.8054
 -16461937.10947 -12814135.03545  22215650.8054                   22215647.6804
 -19605268.64848 -15263580.39546  20979014.6644                   20979011.0084
 -20258927.83648 -15772374.39847  20461698.2034                   20461695.1994
 -17900379.14147 -13931742.04343  24125393.0704                   24125390.0554
 -25550522.88748 -19894272.52746  21211898.0944                   21211892.7194
 11  8  3  2 46 30.0000000  0  7G29G25G10G12G05G04G02
   3284678.82047   2569493.53144  23820954.2504                   23820952.3484
  -8835573.02348  -6873947.43746  22031077.7814                   22031076.9734
 -16397007.59847 -12763540.60945  22228005.6334                   22228002.7194
 -19596703.02748 -15256905.87946  20980644.5474                   20980641.2854
 -20294457.52748 -15800059.84447  20454937.1484                   20454934.1024
 -17835232.25047 -13880978.22343  24137790.3284                   24137787.5434
 -25535385.87948 -19882477.44546  21214778.6174                   21214773.5514
 11  8  3  2 47  0.0000000  0  7G29G25G10G12G05G04G02
   3185560.69947   2492258.68844  23802092.0394                   23802090.2274
  -8894064.02048  -6919524.80946  22019947.0864                   22019947.0554
 -16331656.29747 -12712617.52045  22240441.8284                   22240439.5084
 -19587545.54748 -15249770.18446  20982387.1724                   20982383.7584
 -20329384.83648 -15827275.91447  20448290.9844                   20448287.7854
 -17770104.32847 -13830229.18043  24150183.3674                   24150181.5824
 -25520090.23048 -19870558.75846  21217689.4844                   21217684.4454
 11  8  3  2 47 30.0000000  0  7G29G25G10G12G05G04G02
   3086445.32047   2415026.02044  23783230.9534                   23783229.1644
  -8951989.64148  -6964661.64146  22008923.9774                   22008923.9734
 -16265885.14547 -12661367.27345  22252957.9844                   22252954.7544
 -19577796.56248 -15242173.57446  20984242.4064                   20984238.9774
 -20363708.60248 -15854021.69147  20441759.2504                   20441756.3674
 -17704994.77046 -13779494.47744  24162573.2664                   24162571.6024
 -25504635.57448 -19858516.14546  21220630.4844                   21220625.1724
 11  8  3  2 48  0.0000000  0  7G29G25G10G12G05G04G02
   2987334.57447   2337796.95744  23764370.2894                   23764368.9964
  -9009348.59448  -7009356.89546  21998009.2814                   21998008.8524
 -16199697.09847 -12609792.17245  22265552.9774                   22265550.2274
 -19567457.03548 -15234116.79746  20986209.8524                   20986206.3674
 -20397428.71548 -15880297.08247  20435342.4924                   20435339.2154
 -17639904.33646 -13728774.69943  24174960.3364                   24174957.9774
 -25489022.83648 -19846350.36746  21223601.4534                   21223595.4654
 11  8  3  2 48 30.0000000  0  7G29G25G10G12G05G04G02
   2888229.91047   2260572.65644  23745511.1094                   23745509.7234
  -9066138.93448  -7053609.07846  21987202.4844                   21987201.7624
 -16133094.26647 -12557893.85545  22278227.0634                   22278224.3014
 -19556527.34448 -15225600.15246  20988289.8754                   20988286.2974
 -20430544.38748 -15906101.48447  20429040.7894                   20429037.8444
 -17574833.04746 -13678069.82043  24187343.0004                   24187340.5234
 -25473252.31248 -19834061.63346  21226602.3204                   21226597.3634
 11  8  3  2 49  0.0000000  0  7G29G25G10G12G05G04G02
   2789132.27047   2183353.81345  23726654.3134                   23726652.8094
  -9122359.54348  -7097417.32046  21976503.9844                   21976503.1604
 -16066079.61747 -12505674.64145  22290980.0474                   22290976.4064
 -19545009.61748 -15216625.29346  20990481.2734                   20990478.2274
 -20463055.85248 -15931435.08647  20422853.8754                   20422850.9734
 -17509781.55946 -13627380.35943  24199721.6414                   24199719.0084
 -25457324.94148 -19821650.67246  21229633.1724                   21229627.5514
 11  8  3  2 49 30.0000000  0  7G29G25G10G12G05G04G02
   2690041.64847   2106140.42645  23707797.3054                   23707796.1254
  -9178010.11348  -7140781.39546  21965913.9924                   21965913.5784
 -15998657.29747 -12453137.76245  22303809.5314                   22303806.9924
 -19532905.61748 -15207193.60546  20992784.6954                   20992781.1884
 -20494964.15248 -15956298.68047  20416781.9924                   20416779.1484
 -17444751.35946 -13576707.50043  24212096.3674                   24212094.0004
 -25441242.76648 -19809119.10946  21232693.6094                   21232688.2504
 11  8  3  2 50  0.0000000  0  7G29G25G10G12G05G04G02
   2590958.89547   2028933.19944  23688942.1484                   23688940.9694
  -9233089.65648  -7183700.48846  21955432.4614                   21955432.2154
 -15930830.21547 -12400285.49245  22316716.7114                   22316713.8634
 -19520216.49648 -15197305.97746  20995199.4384                   20995195.7974
 -20526269.27748 -15980692.26247  20410824.8364                   20410821.9734
 -17379743.31246 -13526051.86743  24224466.7664                   24224464.0824
 -25425006.23848 -19796467.26246  21235783.0554                   21235777.8364
 11  8  3  2 50 30.0000000  0  7G29G25G10G12G05G04G02
   2491885.05947   1951732.93444  23670088.8984                   23670086.6484
  -9287596.69548  -7226173.48046  21945060.3984                   21945059.4024
 -15862601.12547 -12347119.96545  22329700.4614                   22329697.7234
 -19506942.84848 -15186962.86746  20997725.2894                   20997721.9024
 -20556971.04748 -16004615.70347  20404982.4614                   20404979.5124
 -17314757.64846 -13475413.66043  24236832.2504                   24236831.2114
 -25408616.91048 -19783696.36346  21238901.7344                   21238896.9804
 11  8  3  2 51  0.0000000  0  7G29G25G10G12G05G04G02
   2392821.39547   1874540.52744  23651238.1884                   23651235.2774
  -9341530.02048  -7268199.42246  21934797.3674                   21934796.3874
 -15793973.12947 -12293643.59845  22342759.4774                   22342756.9414
 -19493086.94948 -15176166.06646  21000361.6644                   21000358.0274
 -20587069.71548 -16028069.19147  20399254.9064                   20399251.8554
 -17249794.86346 -13424793.34043  24249195.3204                   24249193.0904
 -25392074.49248 -19770806.16846  21242049.6564                   21242045.0944
 11  8  3  2 51 30.0000000  0  7G29G25G10G12G05G04G02
   2293769.13347   1797357.00444  23632389.0554                   23632386.2774
  -9394888.46948  -7309777.41446  21924643.5474                   21924642.9454
 -15724949.30147 -12239858.80945  22355894.5634                   22355891.5124
 -19478649.76648 -15164916.30946  21003109.3834                   21003105.7194
 -20616565.14548 -16051052.62547  20393642.1174                   20393638.9494
 -17184855.62946 -13374191.35543  24261552.6804                   24261550.5204
 -25375380.37548 -19757797.75846  21245226.3524                   21245221.5084
 11  8  3  2 52  0.0000000  0  7G29G25G10G12G05G04G02
   2194729.34847   1720183.21944  23613542.5634                   23613540.5594
  -9447670.62948  -7350906.33646  21914599.2424                   21914598.4654
 -15655532.06647 -12185767.44945  22369104.5944                   22369101.6414
 -19463632.25848 -15153214.36346  21005966.7034                   21005963.5904
 -20645457.47748 -16073566.10947  20388144.1804                   20388140.7384
 -17119940.26246 -13323607.97743  24273905.6724                   24273903.5554
 -25358534.96548 -19744671.46146  21248432.2974                   21248426.8204
 11  8  3  2 52 30.0000000  0  7G29G25G10G12G05G04G02
   2095702.48847   1643019.55944  23594697.6094                   23594695.7114
  -9499876.07448  -7391585.87546  21904664.7814                   21904664.2734
 -15585724.96147 -12131372.30145  22382388.2344                   22382385.2344
 -19448036.36748 -15141061.72746  21008934.8204                   21008931.2034
 -20673747.27748 -16095610.09847  20382760.6024                   20382757.7234
 -17055049.93746 -13273044.09043  24286253.4694                   24286251.7234
 -25341539.98048 -19731428.60946  21251666.1804                   21251661.0164
 11  8  3  2 53  0.0000000  0  7G29G25G10G12G05G04G02
   1996691.35247   1565868.11344  23575856.9304                   23575854.0314
  -9551502.07448  -7431813.89846  21894840.4534                   21894839.9264
 -15515529.35947 -12076674.43745  22395746.0704                   22395743.2974
 -19431861.46948 -15128457.91046  21012012.9384                   21012009.7154
 -20701433.12948 -16117183.46947  20377491.9144                   20377489.1994
 -16990183.55146 -13222498.82443  24298597.6024                   24298595.9304
 -25324394.25448 -19718068.29746  21254928.9384                   21254923.9884
 11  8  3  2 53 30.0000000  0  7G29G25G10G12G05G04G02
   1897696.47347   1488729.30944  23557018.6334                   23557015.6254
  -9602548.34448  -7471590.18746  21885126.7344                   21885125.9104
 -15444949.37147 -12021677.04745  22409176.7664                   22409173.9144
 -19415110.52348 -15115405.24646  21015200.6484                   21015196.9144
 -20728516.06248 -16138287.03547  20372338.4454                   20372335.1214
 -16925342.38746 -13171973.28143  24310936.8054                   24310934.4774
 -25307099.39548 -19704591.78946  21258220.1644                   21258214.6094
 11  8  3  2 54  0.0000000  0  7G29G25G10G12G05G04G02
   1798719.55547   1411604.50044  23538183.1484                   23538181.3324
  -9653013.27048  -7510913.47346  21875523.6954                   21875522.8984
 -15373987.14147 -11966381.79745  22422680.5784                   22422677.1684
 -19397784.19548 -15101904.21546  21018497.3284                   21018494.3524
 -20754995.67248 -16158920.47747  20367299.7194                   20367296.4264
 -16860526.25046 -13121467.23043  24323271.0004                   24323268.4264
 -25289655.89848 -19690999.44946  21261539.3754                   21261533.9534
 11  8  3  2 54 30.0000000  0  7G29G25G10G12G05G04G02
   1699759.59847   1334492.96944  23519351.5864                   23519350.8954
  -9702897.35548  -7549784.15646  21866031.0704                   21866030.2114
 -15302647.17247 -11910792.18745  22436255.9844                   22436252.7854
 -19379885.10248 -15087956.87146  21021903.4844                   21021900.5514
 -20780873.98448 -16179085.38347  20362375.2344                   20362372.0784
 -16795737.22746 -13070982.25843  24335599.1174                   24335597.2034
 -25272065.85548 -19677292.91446  21264886.5784                   21264881.7934
 11  8  3  2 55  0.0000000  0  7G29G25G10G12G05G04G02
   1600818.36347   1257396.04744  23500524.2114                   23500522.4774
  -9752199.51248  -7588201.39146  21856649.2974                   21856648.3054
 -15230932.41847 -11854910.57445  22449902.6954                   22449900.3444
 -19361415.25448 -15073564.79746  21025418.1724                   21025415.0944
 -20806150.63348 -16198781.45347  20357565.3674                   20357561.8134
 -16730976.11746 -13020519.08243  24347922.4454                   24347921.1564
 -25254329.88748 -19663472.67646  21268262.0704                   21268256.9614
 11  8  3  2 55 30.0000000  0  7G29G25G10G12G05G04G02
   1501897.40247   1180314.87545  23481700.2424                   23481697.9884
  -9800918.44148  -7626164.15646  21847378.1884                   21847377.4024
 -15158845.70347 -11798739.11345  22463620.5864                   22463617.9454
 -19342375.37948 -15058728.54746  21029041.3284                   21029037.6524
 -20830825.85548 -16218008.87947  20352869.6564                   20352866.0124
 -16666242.68046 -12970077.48443  24360241.5554                   24360239.8914
 -25236448.27748 -19649538.94946  21271664.8054                   21271659.1334
 11  8  3  2 56  0.0000000  0  7G29G25G10G12G05G04G02
   1402997.50447   1103250.08245  23462880.3204                   23462877.8284
  -9849053.11348  -7663671.66046  21838218.3594                   21838217.5864
 -15086389.69947 -11742279.88744  22477408.5164                   22477404.9924
 -19322766.78548 -15043449.13746  21032773.2974                   21032770.0004
 -20854899.84448 -16236767.82447  20348288.4694                   20348285.3754
 -16601537.41446 -12919657.78143  24372553.9144                   24372552.5474
 -25218422.10248 -19635492.57446  21275094.7344                   21275089.5824
 11  8  3  2 56 30.0000000  0  7G29G25G10G12G05G04G02
   1304119.63347   1026202.46544  23444063.7194                   23444061.8524
  -9896603.10248  -7700723.56646  21829170.0004                   21829169.3954
 -15013567.90647 -11685535.62545  22491265.6884                   22491263.0044
 -19302591.77048 -15027728.34846  21036611.8984                   21036608.8014
 -20878373.46148 -16255058.93447  20343821.6334                   20343818.4884
 -16536861.14546 -12869260.69543  24384861.5944                   24384860.1254
 -25200252.54748 -19621334.45746  21278552.3674                   21278547.1644
 11  8  3  2 57  0.0000000  0  8G29G25G10G26G12G05G04G02
   1205264.46947    949172.56345  23425252.3134                   23425251.2584
  -9943567.97348  -7737319.52746  21820232.8364                   21820232.1454
 -14940383.75847 -11628509.02345  22505192.1484                   22505188.9024
   9291525.43056   7251244.35253  24854893.3364                   24854891.7974
 -19281852.32448 -15011567.75846  21040558.8364                   21040555.1524
 -20901247.84048 -16272883.10547  20339468.7114                   20339465.3634
 -16472215.13347 -12818887.20743  24397164.1884                   24397161.9534
 -25181940.64148 -19607065.42646  21282036.9694                   21282031.2464
 11  8  3  2 57 30.0000000  0  8G29G25G10G26G12G05G04G02
   1106431.66447    872160.05945  23406445.6174                   23406443.3914
  -9989948.32848  -7773460.02746  21811406.8984                   21811406.0164
 -14866841.80147 -11571203.57844  22519186.9144                   22519183.4774
   9181871.20346   7165799.57043  24834026.5704                   24834025.2074
 -19260551.79748 -14994969.94546  21044611.8984                   21044608.5124
 -20923524.25448 -16290241.34047  20335229.6564                   20335226.1954
 -16407601.15647 -12768538.68044  24409459.6804                   24409457.3914
 -25163488.66848 -19592687.25846  21285548.2274                   21285543.1564
 11  8  3  2 58  0.0000000  0  8G29G25G10G26G12G05G04G02
   1007619.12547    795163.34445  23387641.8364                   23387639.7894
 -10035746.63748  -7809146.99246  21802691.8134                   21802690.9964
 -14792948.31647 -11513624.23844  22533248.6484                   22533245.2894
   9072112.92246   7080273.68843  24813140.4614                   24813138.7154
 -19238694.60248 -14977938.37946  21048771.3594                   21048768.1254
 -20945207.21948 -16307137.13747  20331103.4534                   20331100.6174
 -16343022.90647 -12718217.98043  24421748.3754                   24421746.4534
 -25144900.68048 -19578203.10546  21289085.2194                   21289079.9964
 11  8  3  2 58 30.0000000  0  8G29G25G10G26G12G05G04G02
    908828.17647    718183.46945  23368842.6334                   23368840.0864
 -10080961.97348  -7844379.69946  21794087.2504                   21794086.0594
 -14718706.28147 -11455773.28544  22547375.8524                   22547373.0664
   8962253.09446   6994668.74243  24792234.4534                   24792232.0864
 -19216282.78148 -14960474.63346  21053036.2814                   21053032.5204
 -20966296.44548 -16323570.28947  20327090.5004                   20327087.4104
 -16278480.82447 -12667925.46143  24434029.8134                   24434028.0234
 -25126177.11348 -19563613.29746  21292648.5314                   21292643.3874
 11  8  3  2 59  0.0000000  0  8G29G25G10G26G12G05G04G02
    810060.02047    641221.32044  23350047.0164                   23350044.4924
 -10125593.55148  -7879157.52046  21785594.3134                   21785593.4064
 -14644118.50447 -11397652.94144  22561569.7734                   22561566.6454
   8852294.96946   6908987.18843  24771310.6024                   24771308.6024
 -19193317.47748 -14942579.59446  21057406.2424                   21057403.1844
 -20986792.66448 -16339541.35947  20323189.9844                   20323187.2734
 -16213975.46147 -12617661.57443  24446304.8054                   24446302.4534
 -25107319.07848 -19548918.70346  21296236.8984                   21296231.6914
 11  8  3  2 59 30.0000000  0  8G29G25G10G26G12G05G04G02
    711317.19147    564278.92244  23331257.6564                   23331254.9024
 -10169639.13348  -7913478.72746  21777212.7344                   21777211.7814
 -14569186.86747 -11339264.63744  22575828.9064                   22575825.5474
   8742242.39546   6823232.08643  24750367.4534                   24750366.3554
 -19169799.51248 -14924253.91046  21061881.6644                   21061878.2624
 -21006694.93748 -16355049.60947  20319402.6414                   20319399.7464
 -16149505.87547 -12567425.53543  24458573.2114                   24458571.0984
 -25088325.66848 -19534118.62946  21299851.0634                   21299845.8634
 11  8  3  3  0  0.0000000  0  8G29G25G10G26G12G05G04G02
    612601.34447    487357.51644  23312472.3754                   23312470.3984
 -10213097.77748  -7947342.58246  21768942.5474                   21768941.6884
 -14493913.84847 -11280610.34045  22590152.7734                   22590150.2624
   8632098.67246   6737405.87943  24729408.5554                   24729406.1294
 -19145730.19148 -14905498.60246  21066461.8054                   21066458.5314
 -21026003.66048 -16370095.35547  20315728.6254                   20315725.0904
 -16085071.94546 -12517217.28943  24470834.7894                   24470832.5124
 -25069197.29748 -19519213.38746  21303491.5314                   21303486.0124
 11  8  3  3  0 30.0000000  0  8G29G25G10G26G12G05G04G02
    513915.03547    410459.17244  23293693.0004                   23293690.7154
 -10255967.26248  -7980747.35246  21760784.9844                   21760783.8014
 -14418301.34047 -11221691.52344  22604541.2344                   22604539.2344
   8521867.94946   6651511.92243  24708431.4844                   24708429.3094
 -19121109.80548 -14886313.88346  21071147.1884                   21071143.4454
 -21044717.73048 -16384677.73047  20312167.4304                   20312163.9534
 -16020672.71147 -12467036.06243  24483089.4064                   24483086.4774
 -25049933.35248 -19504202.52346  21307157.2974                   21307151.8094
 11  8  3  3  1  0.0000000  0  8G29G25G10G26G12G05G04G02
    415259.03547    333584.44544  23274918.9774                   23274915.3714
 -10298247.37148  -8013692.87546  21752739.2664                   21752738.3874
 -14342352.73047 -11162510.80544  22618993.7034                   22618990.9454
   8411552.53946   6565551.94543  24687439.7974                   24687436.3754
 -19095940.33648 -14866701.32046  21075936.5314                   21075932.9414
 -21062838.39148 -16398797.71147  20308719.4694                   20308715.4774
 -15956309.35947 -12416882.84843  24495337.7034                   24495335.5434
 -25030534.88348 -19489086.82046  21310848.3284                   21310843.0944
 11  8  3  3  1 30.0000000  0  8G29G25G10G26G12G05G04G02
    316635.34047    256734.84444  23256151.4224                   23256148.4344
 -10339936.55148  -8046177.91846  21744806.2664                   21744805.3244
 -14266069.97347 -11103069.72344  22633510.2814                   22633507.1844
   8301156.18446   6479528.87143  24666431.3524                   24666428.6884
 -19070222.94548 -14846661.80146  21080830.4694                   21080826.8674
 -21080365.14548 -16412454.91047  20305383.6254                   20305380.5084
 -15891981.13746 -12366756.96943  24507578.9144                   24507577.4654
 -25011001.79748 -19473866.20746  21314565.6564                   21314559.6914
 11  8  3  3  2  0.0000000  0  8G29G25G10G26G12G05G04G02
    218045.94947    179912.00445  23237391.0084                   23237388.0434
 -10381033.83648  -8078201.75846  21736985.6644                   21736984.1024
 -14189455.98847 -11043370.50844  22648088.5784                   22648086.3914
   8190682.08646   6393445.22343  24645409.6414                   24645406.1054
 -19043959.15248 -14826196.50846  21085828.1414                   21085825.2384
 -21097298.82048 -16425649.97347  20302161.3364                   20302157.9654
 -15827688.25846 -12316658.64543  24519814.0004                   24519811.1524
 -24991334.30148 -19458540.89546  21318308.2894                   21318303.2814
 11  8  3  3  2 30.0000000  0  8G29G25G10G26G12G05G04G02
    119492.46146    103117.18444  23218635.5084                   23218633.9694
 -10421537.94548  -8109763.37146  21729277.7974                   21729276.9264
 -14112513.30947 -10983415.18445  22662730.5864                   22662727.9064
   8080133.80946   6307303.77343  24624373.4924                   24624370.3634
 -19017149.92648 -14805306.19946  21090929.8204                   21090926.4844
 -21113638.71948 -16438382.34847  20299051.9924                   20299048.6414
 -15763430.21946 -12266587.48443  24532040.1564                   24532039.1134
 -24971532.55548 -19443110.94946  21322076.5784                   21322071.0274
 11  8  3  3  3  0.0000000  0  8G29G25G10G26G12G05G04G02
     20975.09447     26350.48045  23199889.3364                   23199886.4414
 -10461449.50848  -8140863.26646  21721682.9064                   21721682.0084
 -14035245.96147 -10923206.86744  22677435.1724                   22677431.1644
   7969512.84846   6221105.67243  24603322.7194                   24603319.8984
 -18989798.62548 -14783993.51646  21096134.3984                   21096131.3794
 -21129387.11348 -16450653.80547  20296055.1254                   20296051.7624
 -15699208.93046 -12216544.89143  24544262.6484                   24544260.1954
 -24951598.55948 -19427577.95746  21325869.5394                   21325864.1804
 11  8  3  3  3 30.0000000  0  8G29G25G10G26G12G05G04G02
    -77502.00447    -50384.86745  23181149.5164                   23181146.9774
 -10500765.30148  -8171498.93046  21714201.6564                   21714200.5594
 -13957654.10247 -10862745.68044  22692199.7034                   22692196.7894
   7858824.83246   6134855.37143  24582258.8754                   24582256.7544
 -18961903.98448 -14762257.43446  21101442.7974                   21101439.5004
 -21144541.83248 -16462462.66447  20293171.3674                   20293168.0784
 -15635021.99646 -12166529.10943  24556476.3204                   24556474.2034
 -24931530.09048 -19411940.18746  21329688.4534                   21329683.2154
 11  8  3  3  4  0.0000000  0  8G29G25G10G26G12G05G04G02
   -175938.18747   -127088.32045  23162418.0474                   23162415.5124
 -10539485.08648  -8201670.16046  21706832.8444                   21706832.2464
 -13879741.32447 -10802034.45344  22707026.6644                   22707023.2894
   7748072.26247   6048554.78543  24561183.5704                   24561181.0634
 -18933469.01248 -14740100.31246  21106854.0084                   21106850.3874
 -21159104.08648 -16473809.86347  20290400.0164                   20290397.1954
 -15570870.12546 -12116540.63343  24568683.5634                   24568681.1844
 -24911328.32847 -19396198.54746  21333532.6414                   21333527.3714
 11  8  3  3  4 30.0000000  0  8G29G25G10G26G12G05G04G02
   -274333.30947   -203759.73845  23143693.6334                   23143691.9614
 -10577609.52348  -8231377.49646  21699578.2424                   21699577.4924
 -13801511.81647 -10741076.40244  22721912.3524                   22721909.7854
   7637256.88347   5962205.20344  24540095.7894                   24540093.5204
 -18904496.11348 -14717524.03546  21112367.6564                   21112364.0864
 -21173075.91848 -16484696.99247  20287741.3444                   20287738.2624
 -15506754.75446 -12066580.61342  24580884.7344                   24580882.3014
 -24890994.89847 -19380354.32046  21337402.0474                   21337396.3834
 11  8  3  3  5  0.0000000  0  8G29G25G10G26G12G05G04G02
   -372685.33247   -280397.59845  23124978.2974                   23124976.0234
 -10615137.58648  -8260620.12546  21692436.9144                   21692435.9654
 -13722968.03547 -10679873.45744  22736859.1334                   22736856.3324
   7526382.03146   5875809.28943  24518996.5634                   24518994.8554
 -18874986.91848 -14694529.85946  21117982.5634                   21117979.0744
 -21186457.35248 -16495124.07047  20285195.0164                   20285192.0594
 -15442675.88346 -12016649.02043  24593078.3524                   24593076.7194
 -24870530.16448 -19364407.76246  21341296.5004                   21341291.4454
 11  8  3  3  5 30.0000000  0  8G29G25G10G26G12G05G04G02
   -470993.35547   -357001.17245  23106270.7034                   23106267.9384
 -10652068.96948  -8289397.80546  21685408.9384                   21685408.0124
 -13644113.31247 -10618428.21944  22751864.7504                   22751861.3094
   7415450.59846   5789369.26643  24497887.6094                   24497884.5864
 -18844943.59848 -14671119.48446  21123699.7504                   21123696.2734
 -21199249.58648 -16505092.03547  20282760.5474                   20282756.9774
 -15378633.91446 -11966746.18043  24605265.7344                   24605263.3164
 -24849934.60548 -19348359.27746  21345215.7114                   21345210.1914
 11  8  3  3  6  0.0000000  0  8G29G25G10G26G12G05G04G02
   -569255.18047   -433568.73045  23087571.4454                   23087568.9734
 -10688402.53548  -8317709.66046  21678495.1254                   21678494.0784
 -13564949.82047 -10556742.37144  22766929.0084                   22766925.5204
   7304465.96146   5702887.78943  24476767.0084                   24476764.7344
 -18814367.41048 -14647293.89146  21129518.2194                   21129515.2274
 -21211452.53948 -16514600.80947  20280438.5004                   20280435.2544
 -15314628.64846 -11916871.93743  24617445.0164                   24617442.6764
 -24829208.21148 -19332208.84046  21349159.2734                   21349154.5784
 11  8  3  3  6 30.0000000  0  8G29G25G10G26G12G05G04G02
   -667470.84847   -510100.31645  23068881.8364                   23068879.5664
 -10724139.28948  -8345556.46546  21671694.4844                   21671693.4884
 -13485482.04747 -10494819.45744  22782051.5234                   22782048.6524
   7193429.98046   5616366.32843  24455638.2274                   24455635.9264
 -18783260.96548 -14623055.10546  21135437.5084                   21135434.4304
 -21223068.28148 -16523652.02347  20278228.1024                   20278225.0944
 -15250661.63346 -11867027.50043  24629617.4224                   24629614.6954
 -24808353.29748 -19315958.26646  21353128.1484                   21353122.8834
 11  8  3  3  7  0.0000000  0  8G29G25G10G26G12G05G04G02
   -765637.85547   -586594.00045  23050201.3674                   23050199.1724
 -10759277.77048  -8372937.07846  21665007.7894                   21665006.9884
 -13405712.03947 -10432661.01644  22797230.8204                   22797228.0634
   7082346.72746   5529807.99643  24434498.7664                   24434496.4264
 -18751626.82848 -14598405.12946  21141457.3594                   21141453.7584
 -21234097.03148 -16532245.84447  20276129.3834                   20276126.1844
 -15186732.28946 -11817212.44943  24641783.1954                   24641780.6644
 -24787369.38347 -19299607.15646  21357121.2814                   21357116.0514
 11  8  3  3  7 30.0000000  0  8G29G25G10G26G12G05G04G02
   -863755.03147   -663048.83245  23031529.8674                   23031527.6334
 -10793817.43448  -8399851.07846  21658435.3284                   21658434.3674
 -13325642.62947 -10370269.27344  22812467.4144                   22812464.8164
   6971218.88346   5443214.93843  24413352.7504                   24413350.4344
 -18719466.55948 -14573345.18746  21147577.1484                   21147573.5354
 -21244539.45748 -16540382.78147  20274142.3674                   20274139.1884
 -15122840.83046 -11767426.86343  24653941.5084                   24653938.7814
 -24766256.82447 -19283155.80546  21361138.4774                   21361133.3014
 11  8  3  3  8  0.0000000  0  8G29G25G10G26G12G05G04G02
   -961820.35247   -739463.27345  23012868.9844                   23012866.3134
 -10827757.68748  -8426298.01646  21651976.7194                   21651975.3324
 -13245276.26247 -10307646.12944  22827760.8524                   22827757.9614
   6860049.91046   5356589.81343  24392197.4844                   24392194.5944
 -18686781.14548 -14547876.03146  21153796.9224                   21153793.5824
 -21254396.27348 -16548063.41447  20272266.4224                   20272263.2344
 -15058987.32846 -11717670.93443  24666092.5944                   24666090.4414
 -24745015.88347 -19266604.43046  21365180.5944                   21365175.5744
 11  8  3  3  8 30.0000000  0  8G29G25G10G26G12G05G04G02
  -1059832.62947   -815836.39845  22994217.3444                   22994215.5314
 -10861098.55948  -8452277.89846  21645632.2034                   21645630.8874
 -13164616.37546 -10244794.27044  22843109.3134                   22843107.0044
   6748842.31346   5269934.62943  24371034.7424                   24371032.8484
 -18653573.28548 -14521999.78546  21160116.4224                   21160112.7734
 -21263668.76648 -16555288.71547  20270502.0474                   20270498.8054
 -14995172.42246 -11667945.00443  24678235.8594                   24678233.7274
 -24723647.55548 -19249953.77046  21369247.1954                   21369241.6684
 11  8  3  3  9  0.0000000  0  7G29G25G10G26G12G05G02
  -1157792.28147   -892168.49645  22975576.2734                   22975574.7504
 -10893841.15248  -8477791.59046  21639401.3834                   21639400.0594
 -13083667.46146 -10181717.19944  22858513.6724                   22858511.5474
   6637597.87946   5183250.73843  24349866.1174                   24349864.3054
 -18619846.30148 -14495719.02346  21166534.2734                   21166530.7034
 -21272359.25448 -16562060.51247  20268848.3594                   20268844.5084
 -24702153.54348 -19233205.19146  21373337.2274                   21373332.1954
 11  8  3  3  9 30.0000000  0  7G29G25G10G26G12G05G02
  -1255695.40647   -968456.55945  22956946.3674                   22956943.4454
 -10925982.80548  -8502837.02746  21633284.6724                   21633284.0044
 -13002430.47346 -10118415.66444  22873972.6804                   22873970.0664
   6526321.93846   5096542.26243  24328691.5704                   24328689.1844
 -18585600.39548 -14469033.91046  21173051.1174                   21173048.0634
 -21280466.13748 -16568377.54747  20267305.8204                   20267301.9534
 -24680532.65648 -19216357.73846  21377451.7734                   21377446.6294
 11  8  3  3 10  0.0000000  0  7G29G25G10G26G12G05G02
  -1353538.35947  -1044697.73845  22938327.3984                   22938324.1914
 -10957521.01648  -8527412.24246  21627283.4614                   21627282.3834
 -12920905.85547 -10054889.99644  22889486.5084                   22889483.6214
   6415019.67246   5009813.29343  24307511.0164                   24307507.5634
 -18550835.56648 -14441944.44946  21179666.7034                   21179663.6254
 -21287988.36748 -16574239.01647  20265874.3204                   20265870.6764
 -24658782.83647 -19199409.82046  21381590.5474                   21381585.2974
 11  8  3  3 10 30.0000000  0  7G29G25G10G26G12G05G02
  -1451317.12947  -1120888.91445  22919720.1174                   22919717.6954
 -10988453.14848  -8551515.18746  21621397.3524                   21621396.3714
 -12839094.46546  -9991140.86344  22905054.1484                   22905050.9804
   6303696.55146   4923068.07843  24286326.7664                   24286323.7344
 -18515551.11748 -14414450.07846  21186380.8134                   21186377.4694
 -21294924.39148 -16579643.69947  20264554.1884                   20264550.4224
 -24636901.98848 -19182359.80946  21385754.4614                   21385749.0594
 11  8  3  3 11  0.0000000  0  7G29G25G10G26G12G05G02
  -1549029.23447  -1197028.14545  22901126.6334                   22901123.8554
 -11018778.00448  -8575144.93746  21615626.6094                   21615625.2974
 -12756998.07447  -9927169.68744  22920676.7424                   22920673.5664
   6192356.76647   4836309.82843  24265139.8054                   24265137.2704
 -18479748.22348 -14386551.72346  21193194.2274                   21193190.8554
 -21301274.34848 -16584591.70347  20263345.9614                   20263342.5434
 -24614889.87948 -19165207.50846  21389942.7734                   21389938.0124
 11  8  3  3 11 30.0000000  0  7G29G25G10G26G12G05G02
  -1646674.47747  -1273115.26245  22882545.0164                   22882542.3054
 -11048496.39548  -8598302.11746  21609971.4144                   21609970.3634
 -12674620.81247  -9862979.60944  22936353.2584                   22936349.7304
   6081002.27346   4749540.13743  24243949.9384                   24243947.0434
 -18443430.25848 -14358252.01246  21200105.2114                   21200101.5944
 -21307040.31648 -16589084.65647  20262249.0084                   20262245.4574
 -24592748.26248 -19147954.30946  21394156.2584                   21394150.6954
 11  8  3  3 12  0.0000000  0  7G29G25G10G26G12G05G02
  -1744251.88347  -1349149.53545  22863976.4844                   22863973.7154
 -11077608.65648  -8620986.98446  21604431.5554                   21604430.5164
 -12591965.94947  -9798573.22344  22952081.3594                   22952078.7624
   5969635.64846   4662760.98043  24222757.1024                   24222754.7504
 -18406599.26648 -14329552.55546  21207113.7274                   21207110.4534
 -21312224.00448 -16593123.87947  20261262.2504                   20261258.7034
 -24570478.02048 -19130600.86346  21398394.5864                   21398389.2894
 11  8  3  3 12 30.0000000  0  7G29G25G10G26G12G05G02
  -1841760.93747  -1425130.56645  22845421.4454                   22845418.3404
 -11106115.97348  -8643200.46146  21599006.6254                   21599005.5944
 -12509037.89147  -9733953.94944  22967861.8594                   22967859.2814
   5858258.72746   4575973.80543  24201563.1334                   24201560.0004
 -18369259.57448 -14300456.69946  21214219.6724                   21214216.0824
 -21316827.56648 -16596711.05147  20260386.3674                   20260382.6484
 -24548080.82448 -19113148.49246  21402656.4144                   21402651.3204
 11  8  3  3 13  0.0000000  0  7G29G25G10G26G12G05G02
  -1939201.09847  -1501057.89845  22826878.9614                   22826876.3554
 -11134019.20748  -8664943.24246  21593697.0314                   21593696.1174
 -12425840.32447  -9669124.68044  22983693.9694                   22983690.8634
   5746873.49646   4489180.14143  24180367.1024                   24180363.4574
 -18331414.28948 -14270966.86746  21221421.3984                   21221417.9574
 -21320853.10948 -16599847.82847  20259620.1644                   20259616.6294
 -24525558.37948 -19095598.52746  21406942.3364                   21406937.3954
 11  8  3  3 13 30.0000000  0  7G29G25G10G26G12G05G02
  -2036570.34047  -1576929.96945  22808350.1024                   22808347.7234
 -11161317.63748  -8686214.73846  21588502.2734                   21588501.4734
 -12342375.81647  -9604087.42244  22999576.4924                   22999574.2584
   5635483.84046   4402383.02343  24159170.3914                   24159167.1094
 -18293065.08248 -14241084.37146  21228718.6804                   21228715.6254
 -21324301.24248 -16602534.66847  20258964.3834                   20258960.9804
 -24502910.25848 -19077950.62946  21411252.0084                   21411247.0864
 11  8  3  3 14  0.0000000  0  7G29G25G10G26G12G05G02
  -2133867.74647  -1652746.07845  22789834.5554                   22789832.0394
 -11188011.81248  -8707015.38746  21583422.7114                   21583421.3794
 -12258647.85547  -9538844.85544  23015509.2894                   23015506.7974
   5524092.29746   4315584.43043  24137973.1644                   24137969.9964
 -18254214.23848 -14210811.00046  21236112.3134                   21236108.6414
 -21327173.85548 -16604773.05147  20258417.4454                   20258413.9734
 -24480137.91448 -19060205.93746  21415585.6644                   21415580.3874
 11  8  3  3 14 30.0000000  0  7G29G25G10G26G12G05G02
  -2231091.10547  -1728504.47345  22771333.7734                   22771330.7384
 -11214101.17648  -8727344.75046  21578457.9694                   21578456.6414
 -12174658.94546  -9473398.96544  23031492.4144                   23031489.2074
   5412702.31346   4228787.08243  24116776.0084                   24116774.0274
 -18214864.08248 -14180148.53946  21243600.1094                   21243596.8914
 -21329471.72348 -16606563.58647  20257979.9614                   20257976.7154
 -24457241.03148 -19042364.20746  21419942.3914                   21419937.4774
 11  8  3  3 15  0.0000000  0  7G29G25G10G26G12G05G02
  -2328240.13747  -1804204.96545  22752846.9694                   22752844.8134
 -11239586.50048  -8747203.43446  21573608.1804                   21573607.2934
 -12090412.86347  -9407752.67244  23047523.7274                   23047521.3714
   5301316.17646   4141992.73443  24095580.0474                   24095578.1294
 -18175017.56648 -14149099.31246  21251182.6334                   21251179.5044
 -21331196.41048 -16607907.48447  20257651.6174                   20257648.4844
 -24434220.87948 -19024426.42646  21424322.8284                   21424317.8164
 11  8  3  3 15 30.0000000  0  7G29G25G10G26G12G05G02
  -2425313.53147  -1879846.49645  22734374.4774                   22734372.1644
 -11264468.29748  -8766591.82846  21568873.2894                   21568872.2274
 -12005913.06647  -9341908.69144  23063603.3134                   23063600.9964
   5189936.96546   4055203.82043  24074385.3364                   24074382.8524
 -18134677.16048 -14117665.24246  21258859.1334                   21258856.2424
 -21332349.85248 -16608806.25847  20257432.4454                   20257429.1604
 -24411078.39148 -19006393.30946  21428726.8754                   21428721.6174
 11  8  3  3 16  0.0000000  0  7G29G25G10G26G12G05G02
  -2522308.71947  -1955427.09445  22715917.0634                   22715914.3984
 -11288745.74648  -8785509.31646  21564253.3594                   21564252.5004
 -11921161.83647  -9275868.74644  23079731.5864                   23079728.4414
   5078568.60946   3968423.33243  24053192.5944                   24053189.4224
 -18093844.52748 -14085847.61346  21266629.5314                   21266626.1374
 -21332932.28948 -16609260.09447  20257321.4924                   20257318.0824
 -24387813.28548 -18988264.65246  21433154.0864                   21433148.9654
 11  8  3  3 16 30.0000000  0  7G29G25G10G26G12G05G02
  -2619225.79747  -2030946.84445  22697474.3444                   22697471.5354
 -11312420.66448  -8803957.29746  21559748.3444                   21559747.4414
 -11836163.64847  -9209636.42244  23095905.9924                   23095902.4924
   4967212.32846   3881652.22343  24032002.0864                   24032000.2074
 -18052524.12548 -14053649.91046  21274492.2974                   21274488.8014
 -21332946.75848 -16609271.34847  20257318.5784                   20257315.8094
 -24364427.86348 -18970042.25046  21437604.1564                   21437598.8204
 11  8  3  3 17  0.0000000  0  7G29G25G10G26G12G05G02
  -2716063.01247  -2106404.33645  22679046.5704                   22679044.5234
 -11335493.04348  -8821935.77046  21555357.8054                   21555356.9884
 -11750921.18047  -9143213.72344  23112127.1644                   23112124.1374
   4855871.35246   3794893.05943  24010813.8914                   24010812.3444
 -18010718.00448 -14021073.71546  21282447.6564                   21282444.8164
 -21332394.59048 -16608841.08647  20257423.7274                   20257420.4734
 -24340922.10248 -18951726.06246  21442077.2814                   21442072.0664
 11  8  3  3 17 30.0000000  0  7G29G25G10G26G12G05G02
  -2812818.52047  -2181798.16445  22660634.7814                   22660631.9964
 -11357962.57848  -8839444.48846  21551082.0314                   21551081.2304
 -11665437.16847  -9076602.80544  23128394.0704                   23128391.0554
   4744549.42246   3708148.74243  23989630.2344                   23989627.9804
 -17968427.78148 -13988120.30146  21290495.0234                   21290492.2894
 -21331276.70348 -16607969.98447  20257636.7274                   20257633.0864
 -24317296.25848 -18933316.30146  21446573.1414                   21446567.7704
 11  8  3  3 18  0.0000000  0  7G29G25G10G26G12G05G02
  -2909491.22747  -2257127.48045  22642237.9454                   22642235.1214
 -11379829.79348  -8856483.86346  21546920.7894                   21546920.0354
 -11579714.54347  -9009805.98044  23144706.8364                   23144703.2664
   4633249.17246   3621421.33644  23968450.4924                   23968449.4304
 -17925656.69948 -13954792.19546  21298634.4224                   21298631.3094
 -21329594.71148 -16606659.33247  20257956.4224                   20257952.8914
 -24293550.97348 -18914813.47346  21451091.2734                   21451086.4384
 11  8  3  3 18 30.0000000  0  7G29G25G10G26G12G05G02
  -3006079.56247  -2332391.03545  22623857.7664                   22623855.4344
 -11401095.07048  -8873054.19946  21542874.1174                   21542873.3674
 -11493756.78947  -8942825.88744  23161064.3204                   23161060.6844
   4521974.03146   3534713.45344  23947276.1884                   23947273.8014
 -17882407.27048 -13921091.35246  21306864.5474                   21306861.2734
 -21327350.25848 -16604910.39547  20258383.6334                   20258380.4454
 -24269687.07848 -18896218.23046  21455632.6564                   21455627.4344
 11  8  3  3 19  0.0000000  0  7G29G25G10G26G12G05G02
  -3102580.21547  -2407586.27345  22605494.6804                   22605491.9964
 -11421756.75048  -8889154.19546  21538942.4614                   21538941.5164
 -11407565.07447  -8875663.55144  23177465.0944                   23177462.8484
   4410728.92246   3448029.00844  23926106.6484                   23926104.2384
 -17838679.80948 -13887018.01246  21315185.3444                   21315182.5004
 -21324542.72748 -16602722.70347  20258917.7274                   20258914.8914
 -24245703.15648 -18877529.45746  21460196.6174                   21460191.0904
 11  8  3  3 19 30.0000000  0  7G29G25G10G26G12G05G02
  -3198993.66847  -2482713.57045  22587147.5634                   22587144.1684
 -11441817.40648  -8904785.86346  21535124.8134                   21535124.1914
 -11321144.44947  -8808322.81244  23193911.1414                   23193908.3634
   4299514.61746   3361368.53543  23904942.6024                   23904941.0084
 -17794479.37148 -13852576.12546  21323596.4844                   21323593.3714
 -21321175.93748 -16600099.22347  20259558.4614                   20259554.8554
 -24221602.00848 -18858749.32846  21464783.2034                   21464777.7344
 11  8  3  3 20  0.0000000  0  7G29G25G10G26G12G05G02
  -3295316.01247  -2557769.86745  22568818.4454                   22568815.2344
 -11461274.95748  -8919947.57846  21531422.0634                   21531421.4884
 -11234495.28547  -8740803.96944  23210399.9614                   23210396.9924
   4188336.81346   3274736.50443  23883786.7974                   23883784.5234
 -17749805.88748 -13817765.62146  21332097.6254                   21332094.1844
 -21317249.04348 -16597039.29347  20260305.8134                   20260302.3364
 -24197381.50048 -18839876.20746  21469392.3054                   21469387.0904
 11  8  3  3 20 30.0000000  0  7G29G25G10G26G12G05G02
  -3391546.58247  -2632754.65645  22550506.1954                   22550503.1054
 -11480130.50448  -8934640.20746  21527834.1334                   21527833.5984
 -11147621.60547  -8673110.21544  23226931.6884                   23226927.7274
   4077197.73447   3188134.64544  23862637.6254                   23862634.8404
 -17704662.52048 -13782588.97746  21340688.0864                   21340684.6684
 -21312764.40248 -16593544.76247  20261159.4224                   20261155.9384
 -24173042.76248 -18820910.93746  21474023.5634                   21474018.2544
 11  8  3  3 21  0.0000000  0  7G29G25G10G26G12G05G02
  -3487684.65647  -2707667.37145  22532211.3914                   22532208.3554
 -11498385.60948  -8948864.94946  21524360.2894                   21524360.0474
 -11060527.49247  -8605244.68444  23243505.0084                   23243501.5784
   3966099.49647   3101564.63743  23841496.0474                   23841494.3524
 -17659053.50048 -13747049.48846  21349367.6254                   21349363.9884
 -21307724.36348 -16589617.44547  20262118.3984                   20262114.7974
 -24148587.41848 -18801854.82846  21478677.3594                   21478671.7504
 11  8  3  3 21 30.0000000  0  7G29G25G10G26G12G05G02
  -3583728.07847  -2782506.33645  22513934.7974                   22513931.4344
 -11516040.12948  -8962621.70746  21521000.3914                   21520999.7734
 -10973215.15647  -8537209.09044  23260119.7194                   23260116.6214
   3855045.87547   3015029.39143  23820363.2664                   23820361.5394
 -17612980.36348 -13711148.34846  21358134.6884                   21358131.0944
 -21302129.99648 -16585258.18047  20263182.6414                   20263179.4064
 -24124015.52048 -18782707.88746  21483353.2894                   21483348.1214
 11  8  3  3 22  0.0000000  0  7G29G25G10G26G12G05G02
  -3679676.22347  -2857271.05545  22495676.3134                   22495673.4344
 -11533095.20748  -8975911.36746  21517755.2194                   21517754.5164
 -10885688.39847  -8469006.44144  23276775.3204                   23276773.2424
   3744039.44547   2928530.87143  23799239.9614                   23799236.1484
 -17566446.92248 -13674888.53146  21366989.8674                   21366986.4224
 -21295983.39848 -16580468.62147  20264352.2034                   20264349.1644
 -24099328.01248 -18763470.85946  21488050.8834                   21488045.5594
 11  8  3  3 22 30.0000000  0  7G29G25G10G26G12G05G02
  -3775523.35947  -2931957.06645  22477437.2814                   22477434.3404
 -11549547.29348  -8988731.16046  21514624.3834                   21514623.8324
 -10797946.46547  -8400636.12544  23293472.3984                   23293469.4494
   3633087.14846   2842074.57443  23778125.8204                   23778123.0044
 -17519451.67648 -13638268.85946  21375932.7734                   21375929.2274
 -21289282.24648 -16575246.93447  20265627.2504                   20265624.2274
 -24074521.70348 -18744141.26246  21492771.5554                   21492766.2384
 11  8  3  3 23  0.0000000  0  7G29G25G10G26G12G05G02
  -3871262.49647  -3006558.92645  22459218.8054                   22459215.6954
 -11565391.41848  -9001077.22746  21511609.3834                   21511608.3914
 -10709986.61347  -8332096.02344  23310210.3444                   23310208.0084
   3522197.91046   2755667.43444  23757024.7344                   23757021.8674
 -17471991.54748 -13601286.94546  21384964.2894                   21384960.6294
 -21282023.02348 -16569590.39147  20267009.0784                   20267005.6024
 -24049591.41848 -18724715.05146  21497515.5634                   21497510.2304
 11  8  3  3 23 30.0000000  0  7G29G25G10G26G12G05G02
  -3966887.51647  -3081071.88745  22441021.5864                   22441018.6214
 -11580623.73448  -9012946.55146  21508710.8364                   21508710.0554
 -10621807.21147  -8263384.81244  23326990.8364                   23326987.6414
   3411379.19146   2669315.22744  23735936.5704                   23735934.3244
 -17424064.80948 -13563941.43746  21394084.1174                   21394081.2624
 -21274202.86348 -16563496.74647  20268497.2734                   20268493.7344
 -24024533.20348 -18705189.18446  21502283.8204                   21502278.6564
 11  8  3  3 24  0.0000000  0  7G29G25G10G26G12G05G02
  -4062405.57847  -3155501.49645  22422845.4064                   22422842.3914
 -11595253.69148  -9024346.50446  21505926.6884                   21505925.3714
 -10533420.62947  -8194512.17244  23343810.3134                   23343807.3054
   3300625.43846   2583013.64844  23714860.7344                   23714858.1764
 -17375683.09848 -13526241.41846  21403290.6884                   21403288.0164
 -21265832.52348 -16556974.40247  20270089.8914                   20270086.8364
 -23999356.33648 -18685570.84446  21507074.9694                   21507069.3874
 11  8  3  3 24 30.0000000  0  7G29G25G10G26G12G05G02
  -4157816.87947  -3229847.90645  22404689.0004                   22404685.8674
 -11609283.65248  -9035278.93446  21503256.9844                   21503256.1214
 -10444831.46547  -8125481.65243  23360668.1564                   23360665.0354
   3189938.06646   2496763.78144  23693797.2584                   23693795.8164
 -17326850.93048 -13488190.38346  21412583.4064                   21412580.2774
 -21256915.07848 -16550025.72347  20271786.8204                   20271783.7664
 -23974062.85548 -18665861.62946  21511888.1414                   21511883.2034
 11  8  3  3 25  0.0000000  0  7G29G25G10G26G12G05G02
  -4253119.75047  -3304109.84845  22386553.5554                   22386550.0634
 -11622714.32048  -9045744.38346  21500701.3054                   21500700.5824
 -10356042.59447  -8056295.53943  23377563.7274                   23377560.6294
   3079319.97746   2410567.91444  23672747.3054                   23672745.4304
 -17277571.04748 -13449790.47746  21421960.8674                   21421957.8874
 -21247452.21548 -16542652.05947  20273587.4534                   20273584.2814
 -23948653.31648 -18646062.00446  21516723.5634                   21516718.2034
 11  8  3  3 25 30.0000000  0  7G29G25G10G26G12G05G02
  -4348312.64547  -3378286.06645  22368438.3284                   22368435.9414
 -11635545.93448  -9055743.03546  21498259.6644                   21498258.7504
 -10267056.64547  -7986955.82843  23394497.3204                   23394494.4384
   2968775.06346   2324429.05144  23651711.9384                   23651710.1334
 -17227845.84848 -13411043.59046  21431423.5634                   21431420.2114
 -21237445.73448 -16534854.78947  20275491.9224                   20275488.8754
 -23923127.85548 -18626172.03946  21521581.0234                   21521575.3364
 11  8  3  3 26  0.0000000  0  7G29G25G10G26G12G05G02
  -4443394.27047  -3452375.57845  22350345.2424                   22350342.3754
 -11647779.73448  -9065275.85246  21495931.5474                   21495930.9694
 -10177877.05147  -7917465.28143  23411467.5634                   23411464.6524
   2858305.89847   2238349.21544  23630689.7274                   23630687.8524
 -17177678.69948 -13371952.30146  21440969.7114                   21440966.2894
 -21226897.69148 -16526635.53547  20277499.1334                   20277495.7464
 -23897487.46148 -18606192.49646  21526460.3754                   21526454.6174
 11  8  3  3 26 30.0000000  0  7G29G25G10G26G12G05G02
  -4538362.05147  -3526376.39145  22332273.4534                   22332270.4804
 -11659415.76248  -9074342.87546  21493717.1174                   21493716.6294
 -10088506.09047  -7847825.59843  23428474.8594                   23428472.1094
   2747916.49647   2152331.50844  23609684.4774                   23609681.7074
 -17127071.56248 -13332518.18746  21450600.3364                   21450596.5234
 -21215809.01648 -16517994.99647  20279609.2194                   20279605.5204
 -23871731.92248 -18586123.24646  21531361.1954                   21531355.7894
 11  8  3  3 27  0.0000000  0  7G29G25G10G26G12G05G02
  -4633214.53947  -3600287.36745  22314223.3984                   22314220.7154
 -11670454.91048  -9082944.80146  21491616.2734                   21491615.3524
  -9998946.73447  -7778039.09443  23445517.3364                   23445514.1374
   2637609.84047   2066378.31344  23588692.8594                   23588690.5084
 -17076027.31648 -13292743.45346  21460313.5704                   21460310.4344
 -21204182.30148 -16508935.21547  20281821.3444                   20281817.8914
 -23845861.75848 -18565964.68446  21536284.4304                   21536278.8204
 11  8  3  3 27 30.0000000  0  7G29G25G10G26G12G05G02
  -4727950.32447  -3674107.40645  22296196.3134                   22296193.0354
 -11680897.86348  -9091082.16446  21489629.0004                   21489628.5784
  -9909201.85247  -7708107.99644  23462594.9224                   23462592.0864
   2527389.34847   1980492.26644  23567719.0164                   23567716.9264
 -17024548.53948 -13252630.11746  21470109.8674                   21470106.2384
 -21192018.46148 -16499456.88747  20284136.1644                   20284132.7774
 -23819877.31248 -18545717.06646  21541228.8134                   21541222.9064
 11  8  3  3 28  0.0000000  0  8G29G25G10G26G12G05G15G02
  -4822568.11747  -3747835.51645  22278190.6804                   22278188.3794
 -11690746.19148  -9098756.17646  21487755.0634                   21487753.9774
  -9819275.18747  -7638035.27343  23479707.2504                   23479703.8134
   2417257.34847   1894675.16844  23546761.7504                   23546758.6524
 -16972639.21148 -13212181.29346  21479987.4534                   21479984.5514
 -21179320.42248 -16489562.30547  20286552.6414                   20286549.1024
   9292943.14156   7252298.56354  24498688.6804                   24498686.0634
 -23793779.68448 -18525381.26646  21546194.7664                   21546189.5234
 11  8  3  3 28 30.0000000  0  8G29G25G10G26G12G05G15G02
  -4917068.05947  -3821471.78145  22260208.1804                   22260205.5554
 -11700002.49648  -9105968.86346  21485993.4774                   21485992.6604
  -9729171.56647  -7567824.66044  23496853.8204                   23496850.2774
   2307215.51247   1808928.32043  23525820.7894                   23525818.0664
 -16920303.96148 -13171400.58646  21489946.8364                   21489943.5204
 -21166091.84848 -16479254.32447  20289069.8204                   20289065.8754
   9184209.41846   7167571.09043  24477997.0004                   24477994.1684
 -23767571.10948 -18504959.00846  21551182.3054                   21551177.3164
 11  8  3  3 29  0.0000000  0  8G29G25G10G26G12G05G15G02
  -5011450.71947  -3895016.67245  22242247.6954                   22242244.7234
 -11708669.93748  -9112722.72346  21484344.2114                   21484343.2734
  -9638896.11347  -7497480.11744  23514032.6414                   23514029.2464
   2197264.66847   1723252.37944  23504897.4614                   23504895.5984
 -16867547.84448 -13130291.93046  21499986.0864                   21499982.4384
 -21152336.87148 -16468536.14847  20291687.5084                   20291683.8204
   9075368.31646   7082759.96144  24457285.4384                   24457282.4844
 -23741254.27048 -18484452.39846  21556190.4144                   21556184.8284
 11  8  3  3 29 30.0000000  0  8G29G25G10G26G12G05G15G02
  -5105716.14547  -3968470.20345  22224309.3054                   22224306.6374
 -11716751.05548  -9119019.68746  21482806.4064                   21482805.5124
  -9548453.59047  -7427005.41844  23531242.7974                   23531240.1024
   2087406.43847   1637648.61744  23483992.6724                   23483990.6604
 -16814374.77747 -13088858.37546  21510104.5004                   21510101.3674
 -21138059.25848 -16457410.73047  20294404.3054                   20294400.9384
   8966420.42647   6997865.59843  24436552.9844                   24436549.8874
 -23714831.24248 -18463863.03146  21561218.4384                   21561213.1134
 11  8  3  3 30  0.0000000  0  8G29G25G10G26G12G05G15G02
  -5199860.57047  -4041829.44945  22206394.1954                   22206390.8954
 -11724244.50048  -9124858.72746  21481380.6484                   21481379.5514
  -9457844.64847  -7356401.03943  23548484.7974                   23548481.7544
   1977646.39147   1552121.34844  23463105.2194                   23463103.1524
 -16760785.95347 -13047100.85546  21520302.1414                   21520298.4024
 -21123258.62148 -16445877.75847  20297220.9534                   20297217.1844
   8857370.52046   6912891.73843  24415800.8524                   24415798.2664
 -23688300.03548 -18443189.37946  21566267.1724                   21566261.3714
 11  8  3  3 30 30.0000000  0  8G29G25G10G26G12G05G15G02
  -5293881.44947  -4115092.43045  22188502.3524                   22188499.1764
 -11731150.43048  -9130239.96946  21480065.9534                   21480065.4694
  -9367071.25847  -7285668.52743  23565758.5704                   23565756.1564
   1867988.50847   1466673.71543  23442238.7814                   23442236.1134
 -16706783.44147 -13005020.99246  21530578.1024                   21530575.0164
 -21107935.76648 -16433937.85547  20300136.6724                   20300133.0044
   8748221.53146   6827840.68043  24395029.8834                   24395027.8094
 -23661660.24248 -18422431.10546  21571336.6724                   21571331.4884
 11  8  3  3 31  0.0000000  0  8G29G25G10G26G12G05G15G02
  -5387775.37147  -4188256.48445  22170635.1254                   22170632.5124
 -11737468.23848  -9135162.93046  21478864.2194                   21478863.1724
  -9276134.81646  -7214808.99243  23583063.3834                   23583061.3634
   1758437.85547   1381309.61744  23421392.1334                   23421389.0234
 -16652368.68047 -12962619.89546  21540933.1644                   21540930.3134
 -21092091.17648 -16421591.41447  20303151.6484                   20303148.3284
   8638977.34046   6742715.44943  24374242.2894                   24374239.3634
 -23634910.69948 -18401587.31646  21576427.1254                   21576421.4184
 11  8  3  3 31 30.0000000  0  8G29G25G10G26G12G05G15G02
  -5481541.57847  -4261321.03145  22152792.1884                   22152788.7774
 -11743199.83648  -9139629.11346  21477773.5394                   21477772.2814
  -9185039.08646  -7143825.31644  23600398.0394                   23600395.6644
   1648996.65647   1296030.79344  23400566.0314                   23400563.0554
 -16597545.56247 -12919900.58246  21551365.5864                   21551362.5354
 -21075728.02048 -16408840.89847  20306265.8204                   20306262.0084
   8529639.43046   6657517.16443  24353435.8674                   24353432.4614
 -23608052.69947 -18380659.02046  21581537.6174                   21581532.4144
 11  8  3  3 32  0.0000000  0  8G29G25G10G26G12G05G15G02
  -5575177.02747  -4334283.68745  22134973.7194                   22134970.5274
 -11748344.71948  -9143638.09846  21476794.3284                   21476793.3484
  -9093785.71947  -7072718.78143  23617763.7344                   23617760.9654
   1539669.68047   1210840.98044  23379761.2894                   23379758.6454
 -16542315.16447 -12876863.92246  21561875.2814                   21561872.6844
 -21058846.83248 -16395686.71947  20309477.8284                   20309474.4924
   8420211.53146   6572248.74243  24332612.3134                   24332608.4104
 -23581085.22747 -18359645.41046  21586669.2974                   21586664.0124
 11  8  3  3 32 30.0000000  0  8G29G25G10G26G12G05G15G02
  -5668679.75447  -4407142.91046  22117181.3284                   22117177.3244
 -11752903.95348  -9147190.75446  21475926.8364                   21475925.7584
  -9002377.52046  -7001491.61744  23635158.0084                   23635155.5594
   1430460.34447   1125742.84444  23358980.1484                   23358977.1094
 -16486680.62147 -12833512.33246  21572462.3984                   21572459.3714
 -21041449.34848 -16382130.23447  20312788.5474                   20312785.0984
   8310695.98046   6486912.04743  24311772.5164                   24311768.5474
 -23554008.71148 -18338546.84446  21591821.7974                   21591816.4574
